<?xml version="1.0" encoding="UTF-8" standalone="no" ?>
<gpx xmlns="http://www.topografix.com/GPX/1/1" xmlns:xsi="http://www.w3.org/2001/XMLSchema-instance" xsi:schemaLocation="http://www.topografix.com/GPX/1/1 http://www.topografix.com/GPX/1/1/gpx.xsd" version="1.1" creator="VisuGPX - https://www.visugpx.com">
  <metadata>
    <name>J1 grand</name>
  </metadata>
  <trk>
    <name><![CDATA[boucle de salletairne 2  89 KM33-20077382]]></name>
    <extensions>
      <line xmlns="http://www.topografix.com/GPX/gpx_style/0/2">
        <color>0000FF</color>
        <width>4</width>
      </line>
    </extensions>
    <trkseg>
      <trkpt lat="46.75802" lon="-1.78686">
        <ele>35</ele>
        <time>2024-12-16T18:26:24Z</time>
      </trkpt>
      <trkpt lat="46.75605" lon="-1.78836">
        <ele>22</ele>
        <time>2024-12-16T18:27:04Z</time>
      </trkpt>
      <trkpt lat="46.75574" lon="-1.78865">
        <ele>21</ele>
        <time>2024-12-16T18:27:10Z</time>
      </trkpt>
      <trkpt lat="46.75521" lon="-1.78946">
        <ele>18</ele>
        <time>2024-12-16T18:27:24Z</time>
      </trkpt>
      <trkpt lat="46.75489" lon="-1.79002">
        <ele>18</ele>
        <time>2024-12-16T18:27:33Z</time>
      </trkpt>
      <trkpt lat="46.75457" lon="-1.79039">
        <ele>16</ele>
        <time>2024-12-16T18:27:40Z</time>
      </trkpt>
      <trkpt lat="46.75386" lon="-1.79145">
        <ele>15</ele>
        <time>2024-12-16T18:27:58Z</time>
      </trkpt>
      <trkpt lat="46.75366" lon="-1.79168">
        <ele>15</ele>
        <time>2024-12-16T18:28:02Z</time>
      </trkpt>
      <trkpt lat="46.75364" lon="-1.79169">
        <ele>15</ele>
        <time>2024-12-16T18:28:03Z</time>
      </trkpt>
      <trkpt lat="46.75363" lon="-1.79185">
        <ele>15</ele>
        <time>2024-12-16T18:28:05Z</time>
      </trkpt>
      <trkpt lat="46.75341" lon="-1.79261">
        <ele>12</ele>
        <time>2024-12-16T18:28:15Z</time>
      </trkpt>
      <trkpt lat="46.75333" lon="-1.79277">
        <ele>11</ele>
        <time>2024-12-16T18:28:17Z</time>
      </trkpt>
      <trkpt lat="46.75309" lon="-1.7931">
        <ele>11</ele>
        <time>2024-12-16T18:28:23Z</time>
      </trkpt>
      <trkpt lat="46.75292" lon="-1.79342">
        <ele>12</ele>
        <time>2024-12-16T18:28:28Z</time>
      </trkpt>
      <trkpt lat="46.7528" lon="-1.79372">
        <ele>12</ele>
        <time>2024-12-16T18:28:32Z</time>
      </trkpt>
      <trkpt lat="46.75269" lon="-1.79406">
        <ele>12</ele>
        <time>2024-12-16T18:28:37Z</time>
      </trkpt>
      <trkpt lat="46.7526" lon="-1.79448">
        <ele>13</ele>
        <time>2024-12-16T18:28:42Z</time>
      </trkpt>
      <trkpt lat="46.75253" lon="-1.79526">
        <ele>14</ele>
        <time>2024-12-16T18:28:52Z</time>
      </trkpt>
      <trkpt lat="46.75248" lon="-1.79563">
        <ele>14</ele>
        <time>2024-12-16T18:28:56Z</time>
      </trkpt>
      <trkpt lat="46.75237" lon="-1.79611">
        <ele>16</ele>
        <time>2024-12-16T18:29:03Z</time>
      </trkpt>
      <trkpt lat="46.75221" lon="-1.7966">
        <ele>17</ele>
        <time>2024-12-16T18:29:09Z</time>
      </trkpt>
      <trkpt lat="46.75184" lon="-1.79726">
        <ele>17</ele>
        <time>2024-12-16T18:29:20Z</time>
      </trkpt>
      <trkpt lat="46.75172" lon="-1.79759">
        <ele>17</ele>
        <time>2024-12-16T18:29:24Z</time>
      </trkpt>
      <trkpt lat="46.75158" lon="-1.79815">
        <ele>16</ele>
        <time>2024-12-16T18:29:31Z</time>
      </trkpt>
      <trkpt lat="46.75134" lon="-1.79893">
        <ele>15</ele>
        <time>2024-12-16T18:29:42Z</time>
      </trkpt>
      <trkpt lat="46.7512" lon="-1.79928">
        <ele>15</ele>
        <time>2024-12-16T18:29:47Z</time>
      </trkpt>
      <trkpt lat="46.75112" lon="-1.79941">
        <ele>15</ele>
        <time>2024-12-16T18:29:49Z</time>
      </trkpt>
      <trkpt lat="46.7511" lon="-1.79943">
        <ele>14</ele>
        <time>2024-12-16T18:29:49Z</time>
      </trkpt>
      <trkpt lat="46.75101" lon="-1.79949">
        <ele>14</ele>
        <time>2024-12-16T18:29:51Z</time>
      </trkpt>
      <trkpt lat="46.75056" lon="-1.79971">
        <ele>14</ele>
        <time>2024-12-16T18:30:00Z</time>
      </trkpt>
      <trkpt lat="46.75019" lon="-1.79993">
        <ele>13</ele>
        <time>2024-12-16T18:30:07Z</time>
      </trkpt>
      <trkpt lat="46.75017" lon="-1.79995">
        <ele>13</ele>
        <time>2024-12-16T18:30:07Z</time>
      </trkpt>
      <trkpt lat="46.75037" lon="-1.80123">
        <ele>12</ele>
        <time>2024-12-16T18:30:23Z</time>
      </trkpt>
      <trkpt lat="46.75096" lon="-1.80489">
        <ele>15</ele>
        <time>2024-12-16T18:31:09Z</time>
      </trkpt>
      <trkpt lat="46.75103" lon="-1.8053">
        <ele>14</ele>
        <time>2024-12-16T18:31:14Z</time>
      </trkpt>
      <trkpt lat="46.75156" lon="-1.80863">
        <ele>11</ele>
        <time>2024-12-16T18:31:56Z</time>
      </trkpt>
      <trkpt lat="46.75171" lon="-1.80954">
        <ele>11</ele>
        <time>2024-12-16T18:32:07Z</time>
      </trkpt>
      <trkpt lat="46.7519" lon="-1.81074">
        <ele>10</ele>
        <time>2024-12-16T18:32:22Z</time>
      </trkpt>
      <trkpt lat="46.75212" lon="-1.81196">
        <ele>10</ele>
        <time>2024-12-16T18:32:38Z</time>
      </trkpt>
      <trkpt lat="46.75231" lon="-1.8126">
        <ele>10</ele>
        <time>2024-12-16T18:32:46Z</time>
      </trkpt>
      <trkpt lat="46.75244" lon="-1.81295">
        <ele>10</ele>
        <time>2024-12-16T18:32:51Z</time>
      </trkpt>
      <trkpt lat="46.75329" lon="-1.81488">
        <ele>9</ele>
        <time>2024-12-16T18:33:19Z</time>
      </trkpt>
      <trkpt lat="46.754" lon="-1.81649">
        <ele>9</ele>
        <time>2024-12-16T18:33:42Z</time>
      </trkpt>
      <trkpt lat="46.75451" lon="-1.81763">
        <ele>9</ele>
        <time>2024-12-16T18:33:59Z</time>
      </trkpt>
      <trkpt lat="46.75484" lon="-1.81816">
        <ele>9</ele>
        <time>2024-12-16T18:34:08Z</time>
      </trkpt>
      <trkpt lat="46.75528" lon="-1.81874">
        <ele>8</ele>
        <time>2024-12-16T18:34:18Z</time>
      </trkpt>
      <trkpt lat="46.75576" lon="-1.8192">
        <ele>7</ele>
        <time>2024-12-16T18:34:28Z</time>
      </trkpt>
      <trkpt lat="46.75581" lon="-1.81925">
        <ele>7</ele>
        <time>2024-12-16T18:34:29Z</time>
      </trkpt>
      <trkpt lat="46.75691" lon="-1.82015">
        <ele>6</ele>
        <time>2024-12-16T18:34:52Z</time>
      </trkpt>
      <trkpt lat="46.757" lon="-1.82024">
        <ele>6</ele>
        <time>2024-12-16T18:34:54Z</time>
      </trkpt>
      <trkpt lat="46.75787" lon="-1.82097">
        <ele>7</ele>
        <time>2024-12-16T18:35:12Z</time>
      </trkpt>
      <trkpt lat="46.75809" lon="-1.8212">
        <ele>7</ele>
        <time>2024-12-16T18:35:17Z</time>
      </trkpt>
      <trkpt lat="46.75823" lon="-1.82138">
        <ele>7</ele>
        <time>2024-12-16T18:35:20Z</time>
      </trkpt>
      <trkpt lat="46.75838" lon="-1.82159">
        <ele>7</ele>
        <time>2024-12-16T18:35:24Z</time>
      </trkpt>
      <trkpt lat="46.75862" lon="-1.82201">
        <ele>7</ele>
        <time>2024-12-16T18:35:30Z</time>
      </trkpt>
      <trkpt lat="46.75882" lon="-1.82248">
        <ele>7</ele>
        <time>2024-12-16T18:35:37Z</time>
      </trkpt>
      <trkpt lat="46.75892" lon="-1.82274">
        <ele>7</ele>
        <time>2024-12-16T18:35:41Z</time>
      </trkpt>
      <trkpt lat="46.75905" lon="-1.8232">
        <ele>7</ele>
        <time>2024-12-16T18:35:47Z</time>
      </trkpt>
      <trkpt lat="46.75916" lon="-1.82366">
        <ele>7</ele>
        <time>2024-12-16T18:35:53Z</time>
      </trkpt>
      <trkpt lat="46.75921" lon="-1.82386">
        <ele>7</ele>
        <time>2024-12-16T18:35:55Z</time>
      </trkpt>
      <trkpt lat="46.75974" lon="-1.82595">
        <ele>8</ele>
        <time>2024-12-16T18:36:22Z</time>
      </trkpt>
      <trkpt lat="46.76006" lon="-1.82714">
        <ele>8</ele>
        <time>2024-12-16T18:36:38Z</time>
      </trkpt>
      <trkpt lat="46.76023" lon="-1.82782">
        <ele>8</ele>
        <time>2024-12-16T18:36:47Z</time>
      </trkpt>
      <trkpt lat="46.76062" lon="-1.82933">
        <ele>8</ele>
        <time>2024-12-16T18:37:06Z</time>
      </trkpt>
      <trkpt lat="46.76065" lon="-1.82945">
        <ele>8</ele>
        <time>2024-12-16T18:37:08Z</time>
      </trkpt>
      <trkpt lat="46.76105" lon="-1.83101">
        <ele>13</ele>
        <time>2024-12-16T18:37:28Z</time>
      </trkpt>
      <trkpt lat="46.76122" lon="-1.83168">
        <ele>13</ele>
        <time>2024-12-16T18:37:37Z</time>
      </trkpt>
      <trkpt lat="46.76137" lon="-1.83228">
        <ele>14</ele>
        <time>2024-12-16T18:37:45Z</time>
      </trkpt>
      <trkpt lat="46.76148" lon="-1.8327">
        <ele>15</ele>
        <time>2024-12-16T18:37:50Z</time>
      </trkpt>
      <trkpt lat="46.76155" lon="-1.83292">
        <ele>15</ele>
        <time>2024-12-16T18:37:53Z</time>
      </trkpt>
      <trkpt lat="46.76165" lon="-1.83333">
        <ele>16</ele>
        <time>2024-12-16T18:37:59Z</time>
      </trkpt>
      <trkpt lat="46.76188" lon="-1.8342">
        <ele>17</ele>
        <time>2024-12-16T18:38:10Z</time>
      </trkpt>
      <trkpt lat="46.76191" lon="-1.83433">
        <ele>17</ele>
        <time>2024-12-16T18:38:12Z</time>
      </trkpt>
      <trkpt lat="46.76199" lon="-1.83465">
        <ele>17</ele>
        <time>2024-12-16T18:38:16Z</time>
      </trkpt>
      <trkpt lat="46.76204" lon="-1.83483">
        <ele>17</ele>
        <time>2024-12-16T18:38:18Z</time>
      </trkpt>
      <trkpt lat="46.7621" lon="-1.83506">
        <ele>17</ele>
        <time>2024-12-16T18:38:21Z</time>
      </trkpt>
      <trkpt lat="46.76236" lon="-1.83603">
        <ele>18</ele>
        <time>2024-12-16T18:38:34Z</time>
      </trkpt>
      <trkpt lat="46.76236" lon="-1.83608">
        <ele>18</ele>
        <time>2024-12-16T18:38:34Z</time>
      </trkpt>
      <trkpt lat="46.76243" lon="-1.83643">
        <ele>18</ele>
        <time>2024-12-16T18:38:39Z</time>
      </trkpt>
      <trkpt lat="46.76243" lon="-1.8367">
        <ele>19</ele>
        <time>2024-12-16T18:38:42Z</time>
      </trkpt>
      <trkpt lat="46.76234" lon="-1.83672">
        <ele>19</ele>
        <time>2024-12-16T18:38:44Z</time>
      </trkpt>
      <trkpt lat="46.76227" lon="-1.83673">
        <ele>19</ele>
        <time>2024-12-16T18:38:45Z</time>
      </trkpt>
      <trkpt lat="46.76213" lon="-1.83682">
        <ele>19</ele>
        <time>2024-12-16T18:38:48Z</time>
      </trkpt>
      <trkpt lat="46.76207" lon="-1.83687">
        <ele>19</ele>
        <time>2024-12-16T18:38:49Z</time>
      </trkpt>
      <trkpt lat="46.76193" lon="-1.83703">
        <ele>19</ele>
        <time>2024-12-16T18:38:52Z</time>
      </trkpt>
      <trkpt lat="46.76183" lon="-1.8372">
        <ele>20</ele>
        <time>2024-12-16T18:38:55Z</time>
      </trkpt>
      <trkpt lat="46.7618" lon="-1.83724">
        <ele>20</ele>
        <time>2024-12-16T18:38:56Z</time>
      </trkpt>
      <trkpt lat="46.76173" lon="-1.83731">
        <ele>20</ele>
        <time>2024-12-16T18:38:57Z</time>
      </trkpt>
      <trkpt lat="46.7616" lon="-1.83741">
        <ele>20</ele>
        <time>2024-12-16T18:39:00Z</time>
      </trkpt>
      <trkpt lat="46.76146" lon="-1.83751">
        <ele>20</ele>
        <time>2024-12-16T18:39:02Z</time>
      </trkpt>
      <trkpt lat="46.76134" lon="-1.83758">
        <ele>20</ele>
        <time>2024-12-16T18:39:05Z</time>
      </trkpt>
      <trkpt lat="46.76123" lon="-1.83771">
        <ele>20</ele>
        <time>2024-12-16T18:39:07Z</time>
      </trkpt>
      <trkpt lat="46.76118" lon="-1.83779">
        <ele>20</ele>
        <time>2024-12-16T18:39:09Z</time>
      </trkpt>
      <trkpt lat="46.76107" lon="-1.83799">
        <ele>21</ele>
        <time>2024-12-16T18:39:12Z</time>
      </trkpt>
      <trkpt lat="46.76105" lon="-1.83804">
        <ele>21</ele>
        <time>2024-12-16T18:39:12Z</time>
      </trkpt>
      <trkpt lat="46.76082" lon="-1.83842">
        <ele>21</ele>
        <time>2024-12-16T18:39:19Z</time>
      </trkpt>
      <trkpt lat="46.76051" lon="-1.83902">
        <ele>21</ele>
        <time>2024-12-16T18:39:28Z</time>
      </trkpt>
      <trkpt lat="46.76046" lon="-1.83948">
        <ele>21</ele>
        <time>2024-12-16T18:39:33Z</time>
      </trkpt>
      <trkpt lat="46.76044" lon="-1.84003">
        <ele>21</ele>
        <time>2024-12-16T18:39:40Z</time>
      </trkpt>
      <trkpt lat="46.76045" lon="-1.8401">
        <ele>21</ele>
        <time>2024-12-16T18:39:41Z</time>
      </trkpt>
      <trkpt lat="46.76047" lon="-1.84073">
        <ele>21</ele>
        <time>2024-12-16T18:39:49Z</time>
      </trkpt>
      <trkpt lat="46.76047" lon="-1.84086">
        <ele>21</ele>
        <time>2024-12-16T18:39:50Z</time>
      </trkpt>
      <trkpt lat="46.7605" lon="-1.84115">
        <ele>21</ele>
        <time>2024-12-16T18:39:54Z</time>
      </trkpt>
      <trkpt lat="46.76054" lon="-1.8414">
        <ele>22</ele>
        <time>2024-12-16T18:39:57Z</time>
      </trkpt>
      <trkpt lat="46.76059" lon="-1.84188">
        <ele>22</ele>
        <time>2024-12-16T18:40:03Z</time>
      </trkpt>
      <trkpt lat="46.7606" lon="-1.84202">
        <ele>22</ele>
        <time>2024-12-16T18:40:05Z</time>
      </trkpt>
      <trkpt lat="46.76062" lon="-1.84217">
        <ele>22</ele>
        <time>2024-12-16T18:40:06Z</time>
      </trkpt>
      <trkpt lat="46.76063" lon="-1.84222">
        <ele>22</ele>
        <time>2024-12-16T18:40:07Z</time>
      </trkpt>
      <trkpt lat="46.76064" lon="-1.84242">
        <ele>22</ele>
        <time>2024-12-16T18:40:10Z</time>
      </trkpt>
      <trkpt lat="46.76065" lon="-1.84258">
        <ele>22</ele>
        <time>2024-12-16T18:40:12Z</time>
      </trkpt>
      <trkpt lat="46.7607" lon="-1.84335">
        <ele>21</ele>
        <time>2024-12-16T18:40:21Z</time>
      </trkpt>
      <trkpt lat="46.7607" lon="-1.84341">
        <ele>21</ele>
        <time>2024-12-16T18:40:22Z</time>
      </trkpt>
      <trkpt lat="46.76074" lon="-1.84386">
        <ele>21</ele>
        <time>2024-12-16T18:40:27Z</time>
      </trkpt>
      <trkpt lat="46.76074" lon="-1.84413">
        <ele>21</ele>
        <time>2024-12-16T18:40:31Z</time>
      </trkpt>
      <trkpt lat="46.76069" lon="-1.84476">
        <ele>20</ele>
        <time>2024-12-16T18:40:38Z</time>
      </trkpt>
      <trkpt lat="46.76067" lon="-1.84511">
        <ele>20</ele>
        <time>2024-12-16T18:40:43Z</time>
      </trkpt>
      <trkpt lat="46.76066" lon="-1.84516">
        <ele>20</ele>
        <time>2024-12-16T18:40:43Z</time>
      </trkpt>
      <trkpt lat="46.76056" lon="-1.84598">
        <ele>21</ele>
        <time>2024-12-16T18:40:53Z</time>
      </trkpt>
      <trkpt lat="46.76049" lon="-1.84635">
        <ele>21</ele>
        <time>2024-12-16T18:40:58Z</time>
      </trkpt>
      <trkpt lat="46.76046" lon="-1.84647">
        <ele>21</ele>
        <time>2024-12-16T18:41:00Z</time>
      </trkpt>
      <trkpt lat="46.76038" lon="-1.84671">
        <ele>20</ele>
        <time>2024-12-16T18:41:03Z</time>
      </trkpt>
      <trkpt lat="46.76031" lon="-1.84695">
        <ele>20</ele>
        <time>2024-12-16T18:41:06Z</time>
      </trkpt>
      <trkpt lat="46.7603" lon="-1.84694">
        <ele>20</ele>
        <time>2024-12-16T18:41:06Z</time>
      </trkpt>
      <trkpt lat="46.76031" lon="-1.84695">
        <ele>20</ele>
        <time>2024-12-16T18:41:06Z</time>
      </trkpt>
      <trkpt lat="46.7601" lon="-1.84733">
        <ele>20</ele>
        <time>2024-12-16T18:41:12Z</time>
      </trkpt>
      <trkpt lat="46.75992" lon="-1.8476">
        <ele>20</ele>
        <time>2024-12-16T18:41:17Z</time>
      </trkpt>
      <trkpt lat="46.75973" lon="-1.84784">
        <ele>20</ele>
        <time>2024-12-16T18:41:21Z</time>
      </trkpt>
      <trkpt lat="46.75971" lon="-1.84786">
        <ele>20</ele>
        <time>2024-12-16T18:41:22Z</time>
      </trkpt>
      <trkpt lat="46.75961" lon="-1.84799">
        <ele>20</ele>
        <time>2024-12-16T18:41:24Z</time>
      </trkpt>
      <trkpt lat="46.75928" lon="-1.84849">
        <ele>21</ele>
        <time>2024-12-16T18:41:33Z</time>
      </trkpt>
      <trkpt lat="46.75912" lon="-1.84866">
        <ele>21</ele>
        <time>2024-12-16T18:41:36Z</time>
      </trkpt>
      <trkpt lat="46.75904" lon="-1.84878">
        <ele>21</ele>
        <time>2024-12-16T18:41:38Z</time>
      </trkpt>
      <trkpt lat="46.75896" lon="-1.84889">
        <ele>21</ele>
        <time>2024-12-16T18:41:40Z</time>
      </trkpt>
      <trkpt lat="46.75873" lon="-1.84929">
        <ele>20</ele>
        <time>2024-12-16T18:41:47Z</time>
      </trkpt>
      <trkpt lat="46.75868" lon="-1.84937">
        <ele>20</ele>
        <time>2024-12-16T18:41:48Z</time>
      </trkpt>
      <trkpt lat="46.75832" lon="-1.85016">
        <ele>21</ele>
        <time>2024-12-16T18:41:59Z</time>
      </trkpt>
      <trkpt lat="46.75831" lon="-1.85018">
        <ele>21</ele>
        <time>2024-12-16T18:42:00Z</time>
      </trkpt>
      <trkpt lat="46.75794" lon="-1.85103">
        <ele>21</ele>
        <time>2024-12-16T18:42:12Z</time>
      </trkpt>
      <trkpt lat="46.7575" lon="-1.85209">
        <ele>21</ele>
        <time>2024-12-16T18:42:27Z</time>
      </trkpt>
      <trkpt lat="46.75733" lon="-1.85247">
        <ele>21</ele>
        <time>2024-12-16T18:42:33Z</time>
      </trkpt>
      <trkpt lat="46.75721" lon="-1.85276">
        <ele>21</ele>
        <time>2024-12-16T18:42:37Z</time>
      </trkpt>
      <trkpt lat="46.7571" lon="-1.85301">
        <ele>22</ele>
        <time>2024-12-16T18:42:40Z</time>
      </trkpt>
      <trkpt lat="46.75623" lon="-1.85503">
        <ele>20</ele>
        <time>2024-12-16T18:43:10Z</time>
      </trkpt>
      <trkpt lat="46.75591" lon="-1.85595">
        <ele>21</ele>
        <time>2024-12-16T18:43:22Z</time>
      </trkpt>
      <trkpt lat="46.75564" lon="-1.85684">
        <ele>20</ele>
        <time>2024-12-16T18:43:34Z</time>
      </trkpt>
      <trkpt lat="46.75502" lon="-1.85914">
        <ele>18</ele>
        <time>2024-12-16T18:44:04Z</time>
      </trkpt>
      <trkpt lat="46.75485" lon="-1.85986">
        <ele>18</ele>
        <time>2024-12-16T18:44:13Z</time>
      </trkpt>
      <trkpt lat="46.75476" lon="-1.86042">
        <ele>17</ele>
        <time>2024-12-16T18:44:20Z</time>
      </trkpt>
      <trkpt lat="46.75464" lon="-1.86132">
        <ele>17</ele>
        <time>2024-12-16T18:44:32Z</time>
      </trkpt>
      <trkpt lat="46.75451" lon="-1.86224">
        <ele>17</ele>
        <time>2024-12-16T18:44:43Z</time>
      </trkpt>
      <trkpt lat="46.7545" lon="-1.86231">
        <ele>17</ele>
        <time>2024-12-16T18:44:44Z</time>
      </trkpt>
      <trkpt lat="46.75438" lon="-1.86311">
        <ele>17</ele>
        <time>2024-12-16T18:44:54Z</time>
      </trkpt>
      <trkpt lat="46.75433" lon="-1.86338">
        <ele>17</ele>
        <time>2024-12-16T18:44:57Z</time>
      </trkpt>
      <trkpt lat="46.75413" lon="-1.86405">
        <ele>16</ele>
        <time>2024-12-16T18:45:06Z</time>
      </trkpt>
      <trkpt lat="46.75392" lon="-1.86456">
        <ele>17</ele>
        <time>2024-12-16T18:45:13Z</time>
      </trkpt>
      <trkpt lat="46.75375" lon="-1.86489">
        <ele>18</ele>
        <time>2024-12-16T18:45:18Z</time>
      </trkpt>
      <trkpt lat="46.75333" lon="-1.86562">
        <ele>18</ele>
        <time>2024-12-16T18:45:30Z</time>
      </trkpt>
      <trkpt lat="46.75305" lon="-1.86615">
        <ele>18</ele>
        <time>2024-12-16T18:45:38Z</time>
      </trkpt>
      <trkpt lat="46.75285" lon="-1.86664">
        <ele>18</ele>
        <time>2024-12-16T18:45:45Z</time>
      </trkpt>
      <trkpt lat="46.75244" lon="-1.86771">
        <ele>17</ele>
        <time>2024-12-16T18:46:00Z</time>
      </trkpt>
      <trkpt lat="46.75231" lon="-1.86808">
        <ele>18</ele>
        <time>2024-12-16T18:46:05Z</time>
      </trkpt>
      <trkpt lat="46.75214" lon="-1.86862">
        <ele>18</ele>
        <time>2024-12-16T18:46:12Z</time>
      </trkpt>
      <trkpt lat="46.7519" lon="-1.86945">
        <ele>17</ele>
        <time>2024-12-16T18:46:23Z</time>
      </trkpt>
      <trkpt lat="46.75178" lon="-1.86986">
        <ele>17</ele>
        <time>2024-12-16T18:46:29Z</time>
      </trkpt>
      <trkpt lat="46.75176" lon="-1.86997">
        <ele>17</ele>
        <time>2024-12-16T18:46:30Z</time>
      </trkpt>
      <trkpt lat="46.75173" lon="-1.87015">
        <ele>17</ele>
        <time>2024-12-16T18:46:33Z</time>
      </trkpt>
      <trkpt lat="46.75177" lon="-1.87024">
        <ele>17</ele>
        <time>2024-12-16T18:46:34Z</time>
      </trkpt>
      <trkpt lat="46.75178" lon="-1.87033">
        <ele>17</ele>
        <time>2024-12-16T18:46:35Z</time>
      </trkpt>
      <trkpt lat="46.75178" lon="-1.87042">
        <ele>17</ele>
        <time>2024-12-16T18:46:36Z</time>
      </trkpt>
      <trkpt lat="46.75176" lon="-1.87051">
        <ele>17</ele>
        <time>2024-12-16T18:46:37Z</time>
      </trkpt>
      <trkpt lat="46.75172" lon="-1.87059">
        <ele>17</ele>
        <time>2024-12-16T18:46:38Z</time>
      </trkpt>
      <trkpt lat="46.75163" lon="-1.87066">
        <ele>17</ele>
        <time>2024-12-16T18:46:40Z</time>
      </trkpt>
      <trkpt lat="46.75147" lon="-1.87118">
        <ele>17</ele>
        <time>2024-12-16T18:46:47Z</time>
      </trkpt>
      <trkpt lat="46.75134" lon="-1.8719">
        <ele>16</ele>
        <time>2024-12-16T18:46:56Z</time>
      </trkpt>
      <trkpt lat="46.7513" lon="-1.8723">
        <ele>15</ele>
        <time>2024-12-16T18:47:01Z</time>
      </trkpt>
      <trkpt lat="46.75129" lon="-1.87256">
        <ele>15</ele>
        <time>2024-12-16T18:47:04Z</time>
      </trkpt>
      <trkpt lat="46.75131" lon="-1.87312">
        <ele>14</ele>
        <time>2024-12-16T18:47:11Z</time>
      </trkpt>
      <trkpt lat="46.75137" lon="-1.8738">
        <ele>13</ele>
        <time>2024-12-16T18:47:20Z</time>
      </trkpt>
      <trkpt lat="46.75138" lon="-1.87393">
        <ele>13</ele>
        <time>2024-12-16T18:47:21Z</time>
      </trkpt>
      <trkpt lat="46.75144" lon="-1.87465">
        <ele>13</ele>
        <time>2024-12-16T18:47:30Z</time>
      </trkpt>
      <trkpt lat="46.75147" lon="-1.87607">
        <ele>12</ele>
        <time>2024-12-16T18:47:47Z</time>
      </trkpt>
      <trkpt lat="46.75146" lon="-1.87663">
        <ele>11</ele>
        <time>2024-12-16T18:47:54Z</time>
      </trkpt>
      <trkpt lat="46.75143" lon="-1.87728">
        <ele>11</ele>
        <time>2024-12-16T18:48:02Z</time>
      </trkpt>
      <trkpt lat="46.75136" lon="-1.87834">
        <ele>11</ele>
        <time>2024-12-16T18:48:15Z</time>
      </trkpt>
      <trkpt lat="46.75132" lon="-1.87872">
        <ele>11</ele>
        <time>2024-12-16T18:48:20Z</time>
      </trkpt>
      <trkpt lat="46.75117" lon="-1.87961">
        <ele>11</ele>
        <time>2024-12-16T18:48:31Z</time>
      </trkpt>
      <trkpt lat="46.75105" lon="-1.87998">
        <ele>10</ele>
        <time>2024-12-16T18:48:36Z</time>
      </trkpt>
      <trkpt lat="46.75096" lon="-1.88013">
        <ele>10</ele>
        <time>2024-12-16T18:48:38Z</time>
      </trkpt>
      <trkpt lat="46.75033" lon="-1.88098">
        <ele>9</ele>
        <time>2024-12-16T18:48:54Z</time>
      </trkpt>
      <trkpt lat="46.75024" lon="-1.8811">
        <ele>9</ele>
        <time>2024-12-16T18:48:56Z</time>
      </trkpt>
      <trkpt lat="46.74985" lon="-1.88162">
        <ele>9</ele>
        <time>2024-12-16T18:49:05Z</time>
      </trkpt>
      <trkpt lat="46.74959" lon="-1.88202">
        <ele>11</ele>
        <time>2024-12-16T18:49:12Z</time>
      </trkpt>
      <trkpt lat="46.74942" lon="-1.88238">
        <ele>12</ele>
        <time>2024-12-16T18:49:17Z</time>
      </trkpt>
      <trkpt lat="46.74933" lon="-1.88263">
        <ele>13</ele>
        <time>2024-12-16T18:49:21Z</time>
      </trkpt>
      <trkpt lat="46.74914" lon="-1.8833">
        <ele>13</ele>
        <time>2024-12-16T18:49:30Z</time>
      </trkpt>
      <trkpt lat="46.74881" lon="-1.88456">
        <ele>11</ele>
        <time>2024-12-16T18:49:46Z</time>
      </trkpt>
      <trkpt lat="46.7487" lon="-1.885">
        <ele>12</ele>
        <time>2024-12-16T18:49:52Z</time>
      </trkpt>
      <trkpt lat="46.74854" lon="-1.88563">
        <ele>11</ele>
        <time>2024-12-16T18:50:00Z</time>
      </trkpt>
      <trkpt lat="46.74845" lon="-1.88622">
        <ele>12</ele>
        <time>2024-12-16T18:50:07Z</time>
      </trkpt>
      <trkpt lat="46.74832" lon="-1.88755">
        <ele>12</ele>
        <time>2024-12-16T18:50:24Z</time>
      </trkpt>
      <trkpt lat="46.74827" lon="-1.88821">
        <ele>12</ele>
        <time>2024-12-16T18:50:32Z</time>
      </trkpt>
      <trkpt lat="46.74822" lon="-1.89029">
        <ele>11</ele>
        <time>2024-12-16T18:50:57Z</time>
      </trkpt>
      <trkpt lat="46.74824" lon="-1.89082">
        <ele>11</ele>
        <time>2024-12-16T18:51:04Z</time>
      </trkpt>
      <trkpt lat="46.74825" lon="-1.89116">
        <ele>11</ele>
        <time>2024-12-16T18:51:08Z</time>
      </trkpt>
      <trkpt lat="46.74826" lon="-1.89122">
        <ele>11</ele>
        <time>2024-12-16T18:51:08Z</time>
      </trkpt>
      <trkpt lat="46.7484" lon="-1.89331">
        <ele>8</ele>
        <time>2024-12-16T18:51:34Z</time>
      </trkpt>
      <trkpt lat="46.74841" lon="-1.89426">
        <ele>8</ele>
        <time>2024-12-16T18:51:46Z</time>
      </trkpt>
      <trkpt lat="46.74841" lon="-1.89469">
        <ele>8</ele>
        <time>2024-12-16T18:51:51Z</time>
      </trkpt>
      <trkpt lat="46.74841" lon="-1.89512">
        <ele>8</ele>
        <time>2024-12-16T18:51:56Z</time>
      </trkpt>
      <trkpt lat="46.74842" lon="-1.89576">
        <ele>8</ele>
        <time>2024-12-16T18:52:04Z</time>
      </trkpt>
      <trkpt lat="46.74841" lon="-1.89635">
        <ele>9</ele>
        <time>2024-12-16T18:52:11Z</time>
      </trkpt>
      <trkpt lat="46.74841" lon="-1.89715">
        <ele>8</ele>
        <time>2024-12-16T18:52:21Z</time>
      </trkpt>
      <trkpt lat="46.74841" lon="-1.89725">
        <ele>8</ele>
        <time>2024-12-16T18:52:22Z</time>
      </trkpt>
      <trkpt lat="46.74842" lon="-1.89774">
        <ele>7</ele>
        <time>2024-12-16T18:52:28Z</time>
      </trkpt>
      <trkpt lat="46.74845" lon="-1.89812">
        <ele>7</ele>
        <time>2024-12-16T18:52:33Z</time>
      </trkpt>
      <trkpt lat="46.74846" lon="-1.89824">
        <ele>7</ele>
        <time>2024-12-16T18:52:34Z</time>
      </trkpt>
      <trkpt lat="46.74849" lon="-1.89855">
        <ele>7</ele>
        <time>2024-12-16T18:52:38Z</time>
      </trkpt>
      <trkpt lat="46.74851" lon="-1.89899">
        <ele>6</ele>
        <time>2024-12-16T18:52:43Z</time>
      </trkpt>
      <trkpt lat="46.74849" lon="-1.8993">
        <ele>6</ele>
        <time>2024-12-16T18:52:47Z</time>
      </trkpt>
      <trkpt lat="46.74851" lon="-1.90021">
        <ele>6</ele>
        <time>2024-12-16T18:52:58Z</time>
      </trkpt>
      <trkpt lat="46.74853" lon="-1.90117">
        <ele>6</ele>
        <time>2024-12-16T18:53:10Z</time>
      </trkpt>
      <trkpt lat="46.74853" lon="-1.90129">
        <ele>6</ele>
        <time>2024-12-16T18:53:11Z</time>
      </trkpt>
      <trkpt lat="46.74855" lon="-1.9018">
        <ele>6</ele>
        <time>2024-12-16T18:53:18Z</time>
      </trkpt>
      <trkpt lat="46.74854" lon="-1.90196">
        <ele>6</ele>
        <time>2024-12-16T18:53:20Z</time>
      </trkpt>
      <trkpt lat="46.74854" lon="-1.90225">
        <ele>6</ele>
        <time>2024-12-16T18:53:23Z</time>
      </trkpt>
      <trkpt lat="46.74848" lon="-1.90316">
        <ele>5</ele>
        <time>2024-12-16T18:53:34Z</time>
      </trkpt>
      <trkpt lat="46.74846" lon="-1.90326">
        <ele>5</ele>
        <time>2024-12-16T18:53:36Z</time>
      </trkpt>
      <trkpt lat="46.74843" lon="-1.90345">
        <ele>5</ele>
        <time>2024-12-16T18:53:38Z</time>
      </trkpt>
      <trkpt lat="46.74838" lon="-1.90367">
        <ele>5</ele>
        <time>2024-12-16T18:53:41Z</time>
      </trkpt>
      <trkpt lat="46.74834" lon="-1.90377">
        <ele>4</ele>
        <time>2024-12-16T18:53:42Z</time>
      </trkpt>
      <trkpt lat="46.7483" lon="-1.90388">
        <ele>4</ele>
        <time>2024-12-16T18:53:44Z</time>
      </trkpt>
      <trkpt lat="46.74827" lon="-1.90392">
        <ele>4</ele>
        <time>2024-12-16T18:53:44Z</time>
      </trkpt>
      <trkpt lat="46.74826" lon="-1.90398">
        <ele>4</ele>
        <time>2024-12-16T18:53:45Z</time>
      </trkpt>
      <trkpt lat="46.74816" lon="-1.90408">
        <ele>4</ele>
        <time>2024-12-16T18:53:47Z</time>
      </trkpt>
      <trkpt lat="46.74814" lon="-1.90413">
        <ele>4</ele>
        <time>2024-12-16T18:53:48Z</time>
      </trkpt>
      <trkpt lat="46.7478" lon="-1.9044">
        <ele>4</ele>
        <time>2024-12-16T18:53:55Z</time>
      </trkpt>
      <trkpt lat="46.74759" lon="-1.90457">
        <ele>4</ele>
        <time>2024-12-16T18:53:59Z</time>
      </trkpt>
      <trkpt lat="46.7473" lon="-1.90478">
        <ele>4</ele>
        <time>2024-12-16T18:54:05Z</time>
      </trkpt>
      <trkpt lat="46.74677" lon="-1.90521">
        <ele>3</ele>
        <time>2024-12-16T18:54:16Z</time>
      </trkpt>
      <trkpt lat="46.74676" lon="-1.90521">
        <ele>3</ele>
        <time>2024-12-16T18:54:16Z</time>
      </trkpt>
      <trkpt lat="46.74658" lon="-1.90538">
        <ele>2</ele>
        <time>2024-12-16T18:54:20Z</time>
      </trkpt>
      <trkpt lat="46.74619" lon="-1.90573">
        <ele>2</ele>
        <time>2024-12-16T18:54:28Z</time>
      </trkpt>
      <trkpt lat="46.74618" lon="-1.90574">
        <ele>2</ele>
        <time>2024-12-16T18:54:28Z</time>
      </trkpt>
      <trkpt lat="46.74603" lon="-1.90587">
        <ele>2</ele>
        <time>2024-12-16T18:54:31Z</time>
      </trkpt>
      <trkpt lat="46.74592" lon="-1.90595">
        <ele>2</ele>
        <time>2024-12-16T18:54:33Z</time>
      </trkpt>
      <trkpt lat="46.74588" lon="-1.90599">
        <ele>2</ele>
        <time>2024-12-16T18:54:34Z</time>
      </trkpt>
      <trkpt lat="46.74584" lon="-1.90602">
        <ele>2</ele>
        <time>2024-12-16T18:54:35Z</time>
      </trkpt>
      <trkpt lat="46.74565" lon="-1.90617">
        <ele>3</ele>
        <time>2024-12-16T18:54:39Z</time>
      </trkpt>
      <trkpt lat="46.74542" lon="-1.90636">
        <ele>4</ele>
        <time>2024-12-16T18:54:44Z</time>
      </trkpt>
      <trkpt lat="46.74539" lon="-1.90639">
        <ele>4</ele>
        <time>2024-12-16T18:54:44Z</time>
      </trkpt>
      <trkpt lat="46.74538" lon="-1.90643">
        <ele>4</ele>
        <time>2024-12-16T18:54:45Z</time>
      </trkpt>
      <trkpt lat="46.74531" lon="-1.90649">
        <ele>4</ele>
        <time>2024-12-16T18:54:46Z</time>
      </trkpt>
      <trkpt lat="46.74528" lon="-1.90653">
        <ele>4</ele>
        <time>2024-12-16T18:54:47Z</time>
      </trkpt>
      <trkpt lat="46.74528" lon="-1.90659">
        <ele>4</ele>
        <time>2024-12-16T18:54:48Z</time>
      </trkpt>
      <trkpt lat="46.74559" lon="-1.90724">
        <ele>4</ele>
        <time>2024-12-16T18:54:57Z</time>
      </trkpt>
      <trkpt lat="46.74563" lon="-1.90734">
        <ele>4</ele>
        <time>2024-12-16T18:54:59Z</time>
      </trkpt>
      <trkpt lat="46.74566" lon="-1.90748">
        <ele>4</ele>
        <time>2024-12-16T18:55:01Z</time>
      </trkpt>
      <trkpt lat="46.74569" lon="-1.90793">
        <ele>4</ele>
        <time>2024-12-16T18:55:06Z</time>
      </trkpt>
      <trkpt lat="46.74571" lon="-1.90841">
        <ele>4</ele>
        <time>2024-12-16T18:55:12Z</time>
      </trkpt>
      <trkpt lat="46.74571" lon="-1.90846">
        <ele>4</ele>
        <time>2024-12-16T18:55:13Z</time>
      </trkpt>
      <trkpt lat="46.74571" lon="-1.90872">
        <ele>4</ele>
        <time>2024-12-16T18:55:16Z</time>
      </trkpt>
      <trkpt lat="46.74575" lon="-1.90903">
        <ele>3</ele>
        <time>2024-12-16T18:55:20Z</time>
      </trkpt>
      <trkpt lat="46.74589" lon="-1.90941">
        <ele>3</ele>
        <time>2024-12-16T18:55:25Z</time>
      </trkpt>
      <trkpt lat="46.74596" lon="-1.90959">
        <ele>3</ele>
        <time>2024-12-16T18:55:27Z</time>
      </trkpt>
      <trkpt lat="46.74599" lon="-1.90976">
        <ele>3</ele>
        <time>2024-12-16T18:55:29Z</time>
      </trkpt>
      <trkpt lat="46.746" lon="-1.90985">
        <ele>3</ele>
        <time>2024-12-16T18:55:31Z</time>
      </trkpt>
      <trkpt lat="46.74597" lon="-1.91009">
        <ele>3</ele>
        <time>2024-12-16T18:55:34Z</time>
      </trkpt>
      <trkpt lat="46.74591" lon="-1.91016">
        <ele>3</ele>
        <time>2024-12-16T18:55:35Z</time>
      </trkpt>
      <trkpt lat="46.74587" lon="-1.91024">
        <ele>3</ele>
        <time>2024-12-16T18:55:36Z</time>
      </trkpt>
      <trkpt lat="46.74591" lon="-1.9103">
        <ele>3</ele>
        <time>2024-12-16T18:55:37Z</time>
      </trkpt>
      <trkpt lat="46.74592" lon="-1.91038">
        <ele>2</ele>
        <time>2024-12-16T18:55:38Z</time>
      </trkpt>
      <trkpt lat="46.74589" lon="-1.91044">
        <ele>2</ele>
        <time>2024-12-16T18:55:39Z</time>
      </trkpt>
      <trkpt lat="46.74583" lon="-1.91048">
        <ele>2</ele>
        <time>2024-12-16T18:55:40Z</time>
      </trkpt>
      <trkpt lat="46.74578" lon="-1.91057">
        <ele>2</ele>
        <time>2024-12-16T18:55:42Z</time>
      </trkpt>
      <trkpt lat="46.74575" lon="-1.91061">
        <ele>2</ele>
        <time>2024-12-16T18:55:42Z</time>
      </trkpt>
      <trkpt lat="46.74531" lon="-1.91117">
        <ele>3</ele>
        <time>2024-12-16T18:55:53Z</time>
      </trkpt>
      <trkpt lat="46.74483" lon="-1.91177">
        <ele>4</ele>
        <time>2024-12-16T18:56:04Z</time>
      </trkpt>
      <trkpt lat="46.74477" lon="-1.91184">
        <ele>4</ele>
        <time>2024-12-16T18:56:05Z</time>
      </trkpt>
      <trkpt lat="46.74465" lon="-1.91199">
        <ele>4</ele>
        <time>2024-12-16T18:56:08Z</time>
      </trkpt>
      <trkpt lat="46.74387" lon="-1.91293">
        <ele>3</ele>
        <time>2024-12-16T18:56:26Z</time>
      </trkpt>
      <trkpt lat="46.74358" lon="-1.91332">
        <ele>4</ele>
        <time>2024-12-16T18:56:33Z</time>
      </trkpt>
      <trkpt lat="46.74344" lon="-1.91359">
        <ele>4</ele>
        <time>2024-12-16T18:56:37Z</time>
      </trkpt>
      <trkpt lat="46.74328" lon="-1.91392">
        <ele>4</ele>
        <time>2024-12-16T18:56:42Z</time>
      </trkpt>
      <trkpt lat="46.74323" lon="-1.91403">
        <ele>4</ele>
        <time>2024-12-16T18:56:44Z</time>
      </trkpt>
      <trkpt lat="46.74319" lon="-1.91412">
        <ele>4</ele>
        <time>2024-12-16T18:56:45Z</time>
      </trkpt>
      <trkpt lat="46.74315" lon="-1.9142">
        <ele>4</ele>
        <time>2024-12-16T18:56:46Z</time>
      </trkpt>
      <trkpt lat="46.7431" lon="-1.9143">
        <ele>4</ele>
        <time>2024-12-16T18:56:48Z</time>
      </trkpt>
      <trkpt lat="46.74305" lon="-1.91441">
        <ele>4</ele>
        <time>2024-12-16T18:56:50Z</time>
      </trkpt>
      <trkpt lat="46.743" lon="-1.91451">
        <ele>4</ele>
        <time>2024-12-16T18:56:51Z</time>
      </trkpt>
      <trkpt lat="46.74289" lon="-1.91476">
        <ele>4</ele>
        <time>2024-12-16T18:56:55Z</time>
      </trkpt>
      <trkpt lat="46.7425" lon="-1.91561">
        <ele>4</ele>
        <time>2024-12-16T18:57:07Z</time>
      </trkpt>
      <trkpt lat="46.742" lon="-1.91664">
        <ele>4</ele>
        <time>2024-12-16T18:57:23Z</time>
      </trkpt>
      <trkpt lat="46.74178" lon="-1.91702">
        <ele>4</ele>
        <time>2024-12-16T18:57:29Z</time>
      </trkpt>
      <trkpt lat="46.74156" lon="-1.91738">
        <ele>4</ele>
        <time>2024-12-16T18:57:34Z</time>
      </trkpt>
      <trkpt lat="46.74066" lon="-1.91881">
        <ele>4</ele>
        <time>2024-12-16T18:57:58Z</time>
      </trkpt>
      <trkpt lat="46.74056" lon="-1.91896">
        <ele>4</ele>
        <time>2024-12-16T18:58:01Z</time>
      </trkpt>
      <trkpt lat="46.7402" lon="-1.91953">
        <ele>4</ele>
        <time>2024-12-16T18:58:10Z</time>
      </trkpt>
      <trkpt lat="46.74005" lon="-1.91983">
        <ele>5</ele>
        <time>2024-12-16T18:58:15Z</time>
      </trkpt>
      <trkpt lat="46.73984" lon="-1.92042">
        <ele>4</ele>
        <time>2024-12-16T18:58:23Z</time>
      </trkpt>
      <trkpt lat="46.7398" lon="-1.9206">
        <ele>4</ele>
        <time>2024-12-16T18:58:25Z</time>
      </trkpt>
      <trkpt lat="46.73976" lon="-1.92092">
        <ele>4</ele>
        <time>2024-12-16T18:58:29Z</time>
      </trkpt>
      <trkpt lat="46.73977" lon="-1.92112">
        <ele>4</ele>
        <time>2024-12-16T18:58:31Z</time>
      </trkpt>
      <trkpt lat="46.73975" lon="-1.92145">
        <ele>4</ele>
        <time>2024-12-16T18:58:36Z</time>
      </trkpt>
      <trkpt lat="46.73972" lon="-1.92169">
        <ele>4</ele>
        <time>2024-12-16T18:58:38Z</time>
      </trkpt>
      <trkpt lat="46.73923" lon="-1.92332">
        <ele>8</ele>
        <time>2024-12-16T18:59:00Z</time>
      </trkpt>
      <trkpt lat="46.73911" lon="-1.92371">
        <ele>9</ele>
        <time>2024-12-16T18:59:05Z</time>
      </trkpt>
      <trkpt lat="46.73844" lon="-1.92598">
        <ele>11</ele>
        <time>2024-12-16T18:59:36Z</time>
      </trkpt>
      <trkpt lat="46.73833" lon="-1.92633">
        <ele>11</ele>
        <time>2024-12-16T18:59:40Z</time>
      </trkpt>
      <trkpt lat="46.73822" lon="-1.9267">
        <ele>11</ele>
        <time>2024-12-16T18:59:45Z</time>
      </trkpt>
      <trkpt lat="46.73817" lon="-1.92695">
        <ele>11</ele>
        <time>2024-12-16T18:59:48Z</time>
      </trkpt>
      <trkpt lat="46.73816" lon="-1.92715">
        <ele>10</ele>
        <time>2024-12-16T18:59:51Z</time>
      </trkpt>
      <trkpt lat="46.73821" lon="-1.92806">
        <ele>10</ele>
        <time>2024-12-16T19:00:02Z</time>
      </trkpt>
      <trkpt lat="46.73828" lon="-1.92809">
        <ele>10</ele>
        <time>2024-12-16T19:00:03Z</time>
      </trkpt>
      <trkpt lat="46.73821" lon="-1.92806">
        <ele>10</ele>
        <time>2024-12-16T19:00:05Z</time>
      </trkpt>
      <trkpt lat="46.73849" lon="-1.93335">
        <ele>11</ele>
        <time>2024-12-16T19:01:09Z</time>
      </trkpt>
      <trkpt lat="46.73853" lon="-1.93378">
        <ele>12</ele>
        <time>2024-12-16T19:01:15Z</time>
      </trkpt>
      <trkpt lat="46.73871" lon="-1.93501">
        <ele>13</ele>
        <time>2024-12-16T19:01:30Z</time>
      </trkpt>
      <trkpt lat="46.73868" lon="-1.93501">
        <ele>13</ele>
        <time>2024-12-16T19:01:30Z</time>
      </trkpt>
      <trkpt lat="46.73861" lon="-1.93496">
        <ele>13</ele>
        <time>2024-12-16T19:01:32Z</time>
      </trkpt>
      <trkpt lat="46.73864" lon="-1.93509">
        <ele>13</ele>
        <time>2024-12-16T19:01:33Z</time>
      </trkpt>
      <trkpt lat="46.73869" lon="-1.93517">
        <ele>13</ele>
        <time>2024-12-16T19:01:35Z</time>
      </trkpt>
      <trkpt lat="46.73874" lon="-1.93534">
        <ele>13</ele>
        <time>2024-12-16T19:01:37Z</time>
      </trkpt>
      <trkpt lat="46.73919" lon="-1.9385">
        <ele>12</ele>
        <time>2024-12-16T19:02:16Z</time>
      </trkpt>
      <trkpt lat="46.73934" lon="-1.93955">
        <ele>12</ele>
        <time>2024-12-16T19:02:29Z</time>
      </trkpt>
      <trkpt lat="46.73953" lon="-1.94079">
        <ele>12</ele>
        <time>2024-12-16T19:02:45Z</time>
      </trkpt>
      <trkpt lat="46.73958" lon="-1.94107">
        <ele>12</ele>
        <time>2024-12-16T19:02:48Z</time>
      </trkpt>
      <trkpt lat="46.7396" lon="-1.94134">
        <ele>13</ele>
        <time>2024-12-16T19:02:52Z</time>
      </trkpt>
      <trkpt lat="46.73957" lon="-1.94167">
        <ele>13</ele>
        <time>2024-12-16T19:02:56Z</time>
      </trkpt>
      <trkpt lat="46.73948" lon="-1.94213">
        <ele>13</ele>
        <time>2024-12-16T19:03:02Z</time>
      </trkpt>
      <trkpt lat="46.7391" lon="-1.94339">
        <ele>12</ele>
        <time>2024-12-16T19:03:18Z</time>
      </trkpt>
      <trkpt lat="46.73893" lon="-1.94404">
        <ele>11</ele>
        <time>2024-12-16T19:03:27Z</time>
      </trkpt>
      <trkpt lat="46.73885" lon="-1.94427">
        <ele>10</ele>
        <time>2024-12-16T19:03:30Z</time>
      </trkpt>
      <trkpt lat="46.7387" lon="-1.94458">
        <ele>9</ele>
        <time>2024-12-16T19:03:35Z</time>
      </trkpt>
      <trkpt lat="46.73851" lon="-1.94487">
        <ele>7</ele>
        <time>2024-12-16T19:03:40Z</time>
      </trkpt>
      <trkpt lat="46.73781" lon="-1.94581">
        <ele>5</ele>
        <time>2024-12-16T19:03:57Z</time>
      </trkpt>
      <trkpt lat="46.73633" lon="-1.94788">
        <ele>6</ele>
        <time>2024-12-16T19:04:33Z</time>
      </trkpt>
      <trkpt lat="46.73567" lon="-1.94882">
        <ele>7</ele>
        <time>2024-12-16T19:04:49Z</time>
      </trkpt>
      <trkpt lat="46.73534" lon="-1.94944">
        <ele>6</ele>
        <time>2024-12-16T19:04:59Z</time>
      </trkpt>
      <trkpt lat="46.73536" lon="-1.94948">
        <ele>6</ele>
        <time>2024-12-16T19:05:00Z</time>
      </trkpt>
      <trkpt lat="46.735" lon="-1.95038">
        <ele>5</ele>
        <time>2024-12-16T19:05:12Z</time>
      </trkpt>
      <trkpt lat="46.73496" lon="-1.95049">
        <ele>4</ele>
        <time>2024-12-16T19:05:14Z</time>
      </trkpt>
      <trkpt lat="46.7349" lon="-1.95056">
        <ele>4</ele>
        <time>2024-12-16T19:05:15Z</time>
      </trkpt>
      <trkpt lat="46.73502" lon="-1.95067">
        <ele>4</ele>
        <time>2024-12-16T19:05:18Z</time>
      </trkpt>
      <trkpt lat="46.73515" lon="-1.95079">
        <ele>4</ele>
        <time>2024-12-16T19:05:20Z</time>
      </trkpt>
      <trkpt lat="46.73549" lon="-1.95091">
        <ele>3</ele>
        <time>2024-12-16T19:05:27Z</time>
      </trkpt>
      <trkpt lat="46.73574" lon="-1.95106">
        <ele>2</ele>
        <time>2024-12-16T19:05:31Z</time>
      </trkpt>
      <trkpt lat="46.73657" lon="-1.95157">
        <ele>3</ele>
        <time>2024-12-16T19:05:48Z</time>
      </trkpt>
      <trkpt lat="46.73779" lon="-1.95225">
        <ele>4</ele>
        <time>2024-12-16T19:06:11Z</time>
      </trkpt>
      <trkpt lat="46.73989" lon="-1.95314">
        <ele>5</ele>
        <time>2024-12-16T19:06:50Z</time>
      </trkpt>
      <trkpt lat="46.74086" lon="-1.95387">
        <ele>4</ele>
        <time>2024-12-16T19:07:09Z</time>
      </trkpt>
      <trkpt lat="46.74092" lon="-1.95391">
        <ele>4</ele>
        <time>2024-12-16T19:07:10Z</time>
      </trkpt>
      <trkpt lat="46.74151" lon="-1.95427">
        <ele>2</ele>
        <time>2024-12-16T19:07:22Z</time>
      </trkpt>
      <trkpt lat="46.74202" lon="-1.95453">
        <ele>2</ele>
        <time>2024-12-16T19:07:31Z</time>
      </trkpt>
      <trkpt lat="46.7423" lon="-1.95464">
        <ele>1</ele>
        <time>2024-12-16T19:07:36Z</time>
      </trkpt>
      <trkpt lat="46.74234" lon="-1.95465">
        <ele>1</ele>
        <time>2024-12-16T19:07:37Z</time>
      </trkpt>
      <trkpt lat="46.74285" lon="-1.9548">
        <ele>1</ele>
        <time>2024-12-16T19:07:46Z</time>
      </trkpt>
      <trkpt lat="46.74359" lon="-1.95495">
        <ele>1</ele>
        <time>2024-12-16T19:08:00Z</time>
      </trkpt>
      <trkpt lat="46.74427" lon="-1.95511">
        <ele>2</ele>
        <time>2024-12-16T19:08:12Z</time>
      </trkpt>
      <trkpt lat="46.74432" lon="-1.95513">
        <ele>2</ele>
        <time>2024-12-16T19:08:13Z</time>
      </trkpt>
      <trkpt lat="46.74434" lon="-1.95514">
        <ele>2</ele>
        <time>2024-12-16T19:08:13Z</time>
      </trkpt>
      <trkpt lat="46.74449" lon="-1.95517">
        <ele>2</ele>
        <time>2024-12-16T19:08:16Z</time>
      </trkpt>
      <trkpt lat="46.74452" lon="-1.95515">
        <ele>2</ele>
        <time>2024-12-16T19:08:16Z</time>
      </trkpt>
      <trkpt lat="46.74455" lon="-1.95514">
        <ele>2</ele>
        <time>2024-12-16T19:08:17Z</time>
      </trkpt>
      <trkpt lat="46.7446" lon="-1.95516">
        <ele>1</ele>
        <time>2024-12-16T19:08:18Z</time>
      </trkpt>
      <trkpt lat="46.74465" lon="-1.9552">
        <ele>1</ele>
        <time>2024-12-16T19:08:19Z</time>
      </trkpt>
      <trkpt lat="46.74469" lon="-1.9553">
        <ele>1</ele>
        <time>2024-12-16T19:08:20Z</time>
      </trkpt>
      <trkpt lat="46.74468" lon="-1.9554">
        <ele>1</ele>
        <time>2024-12-16T19:08:22Z</time>
      </trkpt>
      <trkpt lat="46.74498" lon="-1.95548">
        <ele>2</ele>
        <time>2024-12-16T19:08:27Z</time>
      </trkpt>
      <trkpt lat="46.74601" lon="-1.95571">
        <ele>3</ele>
        <time>2024-12-16T19:08:46Z</time>
      </trkpt>
      <trkpt lat="46.74606" lon="-1.95572">
        <ele>3</ele>
        <time>2024-12-16T19:08:46Z</time>
      </trkpt>
      <trkpt lat="46.74638" lon="-1.95578">
        <ele>2</ele>
        <time>2024-12-16T19:08:52Z</time>
      </trkpt>
      <trkpt lat="46.74662" lon="-1.9558">
        <ele>2</ele>
        <time>2024-12-16T19:08:57Z</time>
      </trkpt>
      <trkpt lat="46.74708" lon="-1.95576">
        <ele>2</ele>
        <time>2024-12-16T19:09:05Z</time>
      </trkpt>
      <trkpt lat="46.74741" lon="-1.95574">
        <ele>1</ele>
        <time>2024-12-16T19:09:11Z</time>
      </trkpt>
      <trkpt lat="46.7477" lon="-1.95572">
        <ele>1</ele>
        <time>2024-12-16T19:09:16Z</time>
      </trkpt>
      <trkpt lat="46.74806" lon="-1.95576">
        <ele>2</ele>
        <time>2024-12-16T19:09:22Z</time>
      </trkpt>
      <trkpt lat="46.74835" lon="-1.95585">
        <ele>2</ele>
        <time>2024-12-16T19:09:27Z</time>
      </trkpt>
      <trkpt lat="46.75043" lon="-1.95684">
        <ele>1</ele>
        <time>2024-12-16T19:10:06Z</time>
      </trkpt>
      <trkpt lat="46.75087" lon="-1.95702">
        <ele>2</ele>
        <time>2024-12-16T19:10:15Z</time>
      </trkpt>
      <trkpt lat="46.75116" lon="-1.95707">
        <ele>2</ele>
        <time>2024-12-16T19:10:20Z</time>
      </trkpt>
      <trkpt lat="46.75224" lon="-1.95711">
        <ele>1</ele>
        <time>2024-12-16T19:10:39Z</time>
      </trkpt>
      <trkpt lat="46.75255" lon="-1.95717">
        <ele>1</ele>
        <time>2024-12-16T19:10:44Z</time>
      </trkpt>
      <trkpt lat="46.7526" lon="-1.95719">
        <ele>1</ele>
        <time>2024-12-16T19:10:45Z</time>
      </trkpt>
      <trkpt lat="46.75298" lon="-1.95736">
        <ele>1</ele>
        <time>2024-12-16T19:10:52Z</time>
      </trkpt>
      <trkpt lat="46.75346" lon="-1.95762">
        <ele>1</ele>
        <time>2024-12-16T19:11:02Z</time>
      </trkpt>
      <trkpt lat="46.75505" lon="-1.95844">
        <ele>3</ele>
        <time>2024-12-16T19:11:32Z</time>
      </trkpt>
      <trkpt lat="46.75531" lon="-1.95858">
        <ele>2</ele>
        <time>2024-12-16T19:11:37Z</time>
      </trkpt>
      <trkpt lat="46.75653" lon="-1.95895">
        <ele>3</ele>
        <time>2024-12-16T19:11:59Z</time>
      </trkpt>
      <trkpt lat="46.75721" lon="-1.95912">
        <ele>2</ele>
        <time>2024-12-16T19:12:11Z</time>
      </trkpt>
      <trkpt lat="46.7592" lon="-1.95924">
        <ele>4</ele>
        <time>2024-12-16T19:12:46Z</time>
      </trkpt>
      <trkpt lat="46.76009" lon="-1.95931">
        <ele>5</ele>
        <time>2024-12-16T19:13:02Z</time>
      </trkpt>
      <trkpt lat="46.7603" lon="-1.95935">
        <ele>5</ele>
        <time>2024-12-16T19:13:06Z</time>
      </trkpt>
      <trkpt lat="46.7607" lon="-1.95948">
        <ele>4</ele>
        <time>2024-12-16T19:13:13Z</time>
      </trkpt>
      <trkpt lat="46.76104" lon="-1.95963">
        <ele>3</ele>
        <time>2024-12-16T19:13:20Z</time>
      </trkpt>
      <trkpt lat="46.76175" lon="-1.95994">
        <ele>3</ele>
        <time>2024-12-16T19:13:33Z</time>
      </trkpt>
      <trkpt lat="46.76236" lon="-1.96023">
        <ele>4</ele>
        <time>2024-12-16T19:13:44Z</time>
      </trkpt>
      <trkpt lat="46.7632" lon="-1.96079">
        <ele>3</ele>
        <time>2024-12-16T19:14:01Z</time>
      </trkpt>
      <trkpt lat="46.76383" lon="-1.96106">
        <ele>2</ele>
        <time>2024-12-16T19:14:12Z</time>
      </trkpt>
      <trkpt lat="46.76461" lon="-1.96133">
        <ele>2</ele>
        <time>2024-12-16T19:14:27Z</time>
      </trkpt>
      <trkpt lat="46.76513" lon="-1.96151">
        <ele>3</ele>
        <time>2024-12-16T19:14:36Z</time>
      </trkpt>
      <trkpt lat="46.76547" lon="-1.96164">
        <ele>4</ele>
        <time>2024-12-16T19:14:42Z</time>
      </trkpt>
      <trkpt lat="46.76725" lon="-1.96228">
        <ele>3</ele>
        <time>2024-12-16T19:15:15Z</time>
      </trkpt>
      <trkpt lat="46.76805" lon="-1.96258">
        <ele>3</ele>
        <time>2024-12-16T19:15:30Z</time>
      </trkpt>
      <trkpt lat="46.76874" lon="-1.9627">
        <ele>4</ele>
        <time>2024-12-16T19:15:42Z</time>
      </trkpt>
      <trkpt lat="46.76909" lon="-1.96274">
        <ele>4</ele>
        <time>2024-12-16T19:15:48Z</time>
      </trkpt>
      <trkpt lat="46.76932" lon="-1.96278">
        <ele>3</ele>
        <time>2024-12-16T19:15:52Z</time>
      </trkpt>
      <trkpt lat="46.7696" lon="-1.96281">
        <ele>3</ele>
        <time>2024-12-16T19:15:57Z</time>
      </trkpt>
      <trkpt lat="46.77127" lon="-1.96305">
        <ele>6</ele>
        <time>2024-12-16T19:16:27Z</time>
      </trkpt>
      <trkpt lat="46.7714" lon="-1.96309">
        <ele>6</ele>
        <time>2024-12-16T19:16:30Z</time>
      </trkpt>
      <trkpt lat="46.77151" lon="-1.96316">
        <ele>6</ele>
        <time>2024-12-16T19:16:32Z</time>
      </trkpt>
      <trkpt lat="46.77153" lon="-1.96313">
        <ele>6</ele>
        <time>2024-12-16T19:16:32Z</time>
      </trkpt>
      <trkpt lat="46.77156" lon="-1.96308">
        <ele>6</ele>
        <time>2024-12-16T19:16:33Z</time>
      </trkpt>
      <trkpt lat="46.7716" lon="-1.96307">
        <ele>6</ele>
        <time>2024-12-16T19:16:34Z</time>
      </trkpt>
      <trkpt lat="46.77166" lon="-1.96309">
        <ele>6</ele>
        <time>2024-12-16T19:16:35Z</time>
      </trkpt>
      <trkpt lat="46.77169" lon="-1.96313">
        <ele>6</ele>
        <time>2024-12-16T19:16:36Z</time>
      </trkpt>
      <trkpt lat="46.77171" lon="-1.96322">
        <ele>7</ele>
        <time>2024-12-16T19:16:37Z</time>
      </trkpt>
      <trkpt lat="46.77195" lon="-1.96331">
        <ele>6</ele>
        <time>2024-12-16T19:16:41Z</time>
      </trkpt>
      <trkpt lat="46.77223" lon="-1.96351">
        <ele>5</ele>
        <time>2024-12-16T19:16:47Z</time>
      </trkpt>
      <trkpt lat="46.77271" lon="-1.96397">
        <ele>5</ele>
        <time>2024-12-16T19:16:57Z</time>
      </trkpt>
      <trkpt lat="46.77269" lon="-1.96412">
        <ele>5</ele>
        <time>2024-12-16T19:16:59Z</time>
      </trkpt>
      <trkpt lat="46.77281" lon="-1.96423">
        <ele>5</ele>
        <time>2024-12-16T19:17:01Z</time>
      </trkpt>
      <trkpt lat="46.77286" lon="-1.96423">
        <ele>5</ele>
        <time>2024-12-16T19:17:02Z</time>
      </trkpt>
      <trkpt lat="46.77291" lon="-1.96417">
        <ele>5</ele>
        <time>2024-12-16T19:17:03Z</time>
      </trkpt>
      <trkpt lat="46.77365" lon="-1.96489">
        <ele>4</ele>
        <time>2024-12-16T19:17:19Z</time>
      </trkpt>
      <trkpt lat="46.77468" lon="-1.96589">
        <ele>6</ele>
        <time>2024-12-16T19:17:41Z</time>
      </trkpt>
      <trkpt lat="46.77572" lon="-1.9669">
        <ele>5</ele>
        <time>2024-12-16T19:18:03Z</time>
      </trkpt>
      <trkpt lat="46.7766" lon="-1.96774">
        <ele>3</ele>
        <time>2024-12-16T19:18:22Z</time>
      </trkpt>
      <trkpt lat="46.77713" lon="-1.96822">
        <ele>3</ele>
        <time>2024-12-16T19:18:33Z</time>
      </trkpt>
      <trkpt lat="46.77748" lon="-1.9685">
        <ele>4</ele>
        <time>2024-12-16T19:18:40Z</time>
      </trkpt>
      <trkpt lat="46.77766" lon="-1.96861">
        <ele>4</ele>
        <time>2024-12-16T19:18:44Z</time>
      </trkpt>
      <trkpt lat="46.7781" lon="-1.96879">
        <ele>5</ele>
        <time>2024-12-16T19:18:52Z</time>
      </trkpt>
      <trkpt lat="46.77824" lon="-1.96885">
        <ele>5</ele>
        <time>2024-12-16T19:18:55Z</time>
      </trkpt>
      <trkpt lat="46.77912" lon="-1.9692">
        <ele>3</ele>
        <time>2024-12-16T19:19:11Z</time>
      </trkpt>
      <trkpt lat="46.77934" lon="-1.96931">
        <ele>3</ele>
        <time>2024-12-16T19:19:15Z</time>
      </trkpt>
      <trkpt lat="46.77987" lon="-1.96959">
        <ele>4</ele>
        <time>2024-12-16T19:19:25Z</time>
      </trkpt>
      <trkpt lat="46.78074" lon="-1.97008">
        <ele>5</ele>
        <time>2024-12-16T19:19:42Z</time>
      </trkpt>
      <trkpt lat="46.78081" lon="-1.97012">
        <ele>5</ele>
        <time>2024-12-16T19:19:43Z</time>
      </trkpt>
      <trkpt lat="46.78149" lon="-1.97048">
        <ele>4</ele>
        <time>2024-12-16T19:19:56Z</time>
      </trkpt>
      <trkpt lat="46.78249" lon="-1.97103">
        <ele>3</ele>
        <time>2024-12-16T19:20:15Z</time>
      </trkpt>
      <trkpt lat="46.78291" lon="-1.97127">
        <ele>5</ele>
        <time>2024-12-16T19:20:23Z</time>
      </trkpt>
      <trkpt lat="46.78421" lon="-1.97199">
        <ele>5</ele>
        <time>2024-12-16T19:20:48Z</time>
      </trkpt>
      <trkpt lat="46.78424" lon="-1.972">
        <ele>5</ele>
        <time>2024-12-16T19:20:48Z</time>
      </trkpt>
      <trkpt lat="46.78521" lon="-1.97243">
        <ele>5</ele>
        <time>2024-12-16T19:21:06Z</time>
      </trkpt>
      <trkpt lat="46.78641" lon="-1.97288">
        <ele>3</ele>
        <time>2024-12-16T19:21:28Z</time>
      </trkpt>
      <trkpt lat="46.78709" lon="-1.97314">
        <ele>3</ele>
        <time>2024-12-16T19:21:41Z</time>
      </trkpt>
      <trkpt lat="46.78761" lon="-1.97335">
        <ele>3</ele>
        <time>2024-12-16T19:21:50Z</time>
      </trkpt>
      <trkpt lat="46.78921" lon="-1.97395">
        <ele>2</ele>
        <time>2024-12-16T19:22:20Z</time>
      </trkpt>
      <trkpt lat="46.78954" lon="-1.97409">
        <ele>2</ele>
        <time>2024-12-16T19:22:26Z</time>
      </trkpt>
      <trkpt lat="46.78974" lon="-1.97421">
        <ele>2</ele>
        <time>2024-12-16T19:22:30Z</time>
      </trkpt>
      <trkpt lat="46.78993" lon="-1.97435">
        <ele>2</ele>
        <time>2024-12-16T19:22:33Z</time>
      </trkpt>
      <trkpt lat="46.79024" lon="-1.97468">
        <ele>1</ele>
        <time>2024-12-16T19:22:40Z</time>
      </trkpt>
      <trkpt lat="46.79038" lon="-1.97487">
        <ele>1</ele>
        <time>2024-12-16T19:22:44Z</time>
      </trkpt>
      <trkpt lat="46.79063" lon="-1.97531">
        <ele>1</ele>
        <time>2024-12-16T19:22:51Z</time>
      </trkpt>
      <trkpt lat="46.79071" lon="-1.97547">
        <ele>1</ele>
        <time>2024-12-16T19:22:53Z</time>
      </trkpt>
      <trkpt lat="46.79077" lon="-1.9756">
        <ele>1</ele>
        <time>2024-12-16T19:22:55Z</time>
      </trkpt>
      <trkpt lat="46.79248" lon="-1.97885">
        <ele>1</ele>
        <time>2024-12-16T19:23:45Z</time>
      </trkpt>
      <trkpt lat="46.79254" lon="-1.97892">
        <ele>1</ele>
        <time>2024-12-16T19:23:46Z</time>
      </trkpt>
      <trkpt lat="46.79269" lon="-1.9791">
        <ele>1</ele>
        <time>2024-12-16T19:23:50Z</time>
      </trkpt>
      <trkpt lat="46.79292" lon="-1.97925">
        <ele>1</ele>
        <time>2024-12-16T19:23:54Z</time>
      </trkpt>
      <trkpt lat="46.79302" lon="-1.97926">
        <ele>1</ele>
        <time>2024-12-16T19:23:56Z</time>
      </trkpt>
      <trkpt lat="46.79341" lon="-1.97926">
        <ele>1</ele>
        <time>2024-12-16T19:24:03Z</time>
      </trkpt>
      <trkpt lat="46.79506" lon="-1.97906">
        <ele>1.9</ele>
        <time>2024-12-16T19:24:32Z</time>
      </trkpt>
      <trkpt lat="46.79571" lon="-1.97895">
        <ele>2</ele>
        <time>2024-12-16T19:24:44Z</time>
      </trkpt>
      <trkpt lat="46.79598" lon="-1.97888">
        <ele>2</ele>
        <time>2024-12-16T19:24:49Z</time>
      </trkpt>
      <trkpt lat="46.79733" lon="-1.97834">
        <ele>1</ele>
        <time>2024-12-16T19:25:14Z</time>
      </trkpt>
      <trkpt lat="46.79744" lon="-1.9783">
        <ele>1</ele>
        <time>2024-12-16T19:25:16Z</time>
      </trkpt>
      <trkpt lat="46.79783" lon="-1.97822">
        <ele>1</ele>
        <time>2024-12-16T19:25:23Z</time>
      </trkpt>
      <trkpt lat="46.79817" lon="-1.97825">
        <ele>2</ele>
        <time>2024-12-16T19:25:29Z</time>
      </trkpt>
      <trkpt lat="46.79836" lon="-1.97832">
        <ele>2</ele>
        <time>2024-12-16T19:25:32Z</time>
      </trkpt>
      <trkpt lat="46.79857" lon="-1.97842">
        <ele>2</ele>
        <time>2024-12-16T19:25:36Z</time>
      </trkpt>
      <trkpt lat="46.79897" lon="-1.97866">
        <ele>2</ele>
        <time>2024-12-16T19:25:44Z</time>
      </trkpt>
      <trkpt lat="46.79934" lon="-1.97898">
        <ele>2</ele>
        <time>2024-12-16T19:25:52Z</time>
      </trkpt>
      <trkpt lat="46.79953" lon="-1.97917">
        <ele>2</ele>
        <time>2024-12-16T19:25:56Z</time>
      </trkpt>
      <trkpt lat="46.80009" lon="-1.97984">
        <ele>-1</ele>
        <time>2024-12-16T19:26:09Z</time>
      </trkpt>
      <trkpt lat="46.80029" lon="-1.98001">
        <ele>-1</ele>
        <time>2024-12-16T19:26:13Z</time>
      </trkpt>
      <trkpt lat="46.80042" lon="-1.98009">
        <ele>2.3</ele>
        <time>2024-12-16T19:26:15Z</time>
      </trkpt>
      <trkpt lat="46.8008" lon="-1.98027">
        <ele>2</ele>
        <time>2024-12-16T19:26:22Z</time>
      </trkpt>
      <trkpt lat="46.80131" lon="-1.98049">
        <ele>1</ele>
        <time>2024-12-16T19:26:32Z</time>
      </trkpt>
      <trkpt lat="46.80147" lon="-1.98055">
        <ele>1</ele>
        <time>2024-12-16T19:26:35Z</time>
      </trkpt>
      <trkpt lat="46.80224" lon="-1.98089">
        <ele>2</ele>
        <time>2024-12-16T19:26:49Z</time>
      </trkpt>
      <trkpt lat="46.8025" lon="-1.98102">
        <ele>2</ele>
        <time>2024-12-16T19:26:54Z</time>
      </trkpt>
      <trkpt lat="46.80266" lon="-1.98112">
        <ele>2</ele>
        <time>2024-12-16T19:26:57Z</time>
      </trkpt>
      <trkpt lat="46.80278" lon="-1.98124">
        <ele>2</ele>
        <time>2024-12-16T19:27:00Z</time>
      </trkpt>
      <trkpt lat="46.80308" lon="-1.98158">
        <ele>1</ele>
        <time>2024-12-16T19:27:06Z</time>
      </trkpt>
      <trkpt lat="46.80368" lon="-1.98226">
        <ele>2</ele>
        <time>2024-12-16T19:27:20Z</time>
      </trkpt>
      <trkpt lat="46.80438" lon="-1.98308">
        <ele>2.8</ele>
        <time>2024-12-16T19:27:36Z</time>
      </trkpt>
      <trkpt lat="46.80441" lon="-1.98314">
        <ele>3.1</ele>
        <time>2024-12-16T19:27:37Z</time>
      </trkpt>
      <trkpt lat="46.80438" lon="-1.98308">
        <ele>2.8</ele>
        <time>2024-12-16T19:27:38Z</time>
      </trkpt>
      <trkpt lat="46.80451" lon="-1.98318">
        <ele>3.7</ele>
        <time>2024-12-16T19:27:40Z</time>
      </trkpt>
      <trkpt lat="46.80464" lon="-1.98323">
        <ele>4.2</ele>
        <time>2024-12-16T19:27:43Z</time>
      </trkpt>
      <trkpt lat="46.80468" lon="-1.98321">
        <ele>4.3</ele>
        <time>2024-12-16T19:27:43Z</time>
      </trkpt>
      <trkpt lat="46.80476" lon="-1.98322">
        <ele>4.2</ele>
        <time>2024-12-16T19:27:45Z</time>
      </trkpt>
      <trkpt lat="46.80481" lon="-1.98316">
        <ele>1</ele>
        <time>2024-12-16T19:27:46Z</time>
      </trkpt>
      <trkpt lat="46.80476" lon="-1.98322">
        <ele>4.2</ele>
        <time>2024-12-16T19:27:47Z</time>
      </trkpt>
      <trkpt lat="46.80484" lon="-1.98328">
        <ele>1</ele>
        <time>2024-12-16T19:27:49Z</time>
      </trkpt>
      <trkpt lat="46.80486" lon="-1.98333">
        <ele>1</ele>
        <time>2024-12-16T19:27:49Z</time>
      </trkpt>
      <trkpt lat="46.80488" lon="-1.9834">
        <ele>1</ele>
        <time>2024-12-16T19:27:50Z</time>
      </trkpt>
      <trkpt lat="46.80488" lon="-1.98353">
        <ele>3.3</ele>
        <time>2024-12-16T19:27:52Z</time>
      </trkpt>
      <trkpt lat="46.8049" lon="-1.98359">
        <ele>3.3</ele>
        <time>2024-12-16T19:27:53Z</time>
      </trkpt>
      <trkpt lat="46.80494" lon="-1.98367">
        <ele>3.1</ele>
        <time>2024-12-16T19:27:54Z</time>
      </trkpt>
      <trkpt lat="46.80512" lon="-1.9839">
        <ele>2.5</ele>
        <time>2024-12-16T19:27:58Z</time>
      </trkpt>
      <trkpt lat="46.80823" lon="-1.98722">
        <ele>1.6</ele>
        <time>2024-12-16T19:29:07Z</time>
      </trkpt>
      <trkpt lat="46.80837" lon="-1.98735">
        <ele>2</ele>
        <time>2024-12-16T19:29:10Z</time>
      </trkpt>
      <trkpt lat="46.81008" lon="-1.98873">
        <ele>1</ele>
        <time>2024-12-16T19:29:44Z</time>
      </trkpt>
      <trkpt lat="46.81057" lon="-1.98909">
        <ele>1</ele>
        <time>2024-12-16T19:29:54Z</time>
      </trkpt>
      <trkpt lat="46.81087" lon="-1.98918">
        <ele>1</ele>
        <time>2024-12-16T19:30:00Z</time>
      </trkpt>
      <trkpt lat="46.81106" lon="-1.98916">
        <ele>1</ele>
        <time>2024-12-16T19:30:03Z</time>
      </trkpt>
      <trkpt lat="46.81119" lon="-1.98909">
        <ele>1</ele>
        <time>2024-12-16T19:30:06Z</time>
      </trkpt>
      <trkpt lat="46.81124" lon="-1.98903">
        <ele>1</ele>
        <time>2024-12-16T19:30:07Z</time>
      </trkpt>
      <trkpt lat="46.81162" lon="-1.98849">
        <ele>1</ele>
        <time>2024-12-16T19:30:16Z</time>
      </trkpt>
      <trkpt lat="46.81173" lon="-1.98835">
        <ele>1</ele>
        <time>2024-12-16T19:30:19Z</time>
      </trkpt>
      <trkpt lat="46.8119" lon="-1.98821">
        <ele>1</ele>
        <time>2024-12-16T19:30:22Z</time>
      </trkpt>
      <trkpt lat="46.81206" lon="-1.98819">
        <ele>1.6</ele>
        <time>2024-12-16T19:30:25Z</time>
      </trkpt>
      <trkpt lat="46.81218" lon="-1.9882">
        <ele>1.2</ele>
        <time>2024-12-16T19:30:27Z</time>
      </trkpt>
      <trkpt lat="46.81244" lon="-1.98834">
        <ele>1.8</ele>
        <time>2024-12-16T19:30:32Z</time>
      </trkpt>
      <trkpt lat="46.81342" lon="-1.98933">
        <ele>2</ele>
        <time>2024-12-16T19:30:53Z</time>
      </trkpt>
      <trkpt lat="46.81386" lon="-1.98976">
        <ele>2</ele>
        <time>2024-12-16T19:31:03Z</time>
      </trkpt>
      <trkpt lat="46.81388" lon="-1.98979">
        <ele>2</ele>
        <time>2024-12-16T19:31:03Z</time>
      </trkpt>
      <trkpt lat="46.81458" lon="-1.99047">
        <ele>2</ele>
        <time>2024-12-16T19:31:18Z</time>
      </trkpt>
      <trkpt lat="46.81489" lon="-1.99079">
        <ele>3</ele>
        <time>2024-12-16T19:31:25Z</time>
      </trkpt>
      <trkpt lat="46.81508" lon="-1.99094">
        <ele>3</ele>
        <time>2024-12-16T19:31:29Z</time>
      </trkpt>
      <trkpt lat="46.81519" lon="-1.991">
        <ele>3</ele>
        <time>2024-12-16T19:31:31Z</time>
      </trkpt>
      <trkpt lat="46.81524" lon="-1.99093">
        <ele>3</ele>
        <time>2024-12-16T19:31:32Z</time>
      </trkpt>
      <trkpt lat="46.81527" lon="-1.99091">
        <ele>3</ele>
        <time>2024-12-16T19:31:33Z</time>
      </trkpt>
      <trkpt lat="46.81533" lon="-1.99093">
        <ele>2</ele>
        <time>2024-12-16T19:31:34Z</time>
      </trkpt>
      <trkpt lat="46.81536" lon="-1.99096">
        <ele>2</ele>
        <time>2024-12-16T19:31:34Z</time>
      </trkpt>
      <trkpt lat="46.81537" lon="-1.99099">
        <ele>2</ele>
        <time>2024-12-16T19:31:35Z</time>
      </trkpt>
      <trkpt lat="46.81538" lon="-1.99109">
        <ele>2</ele>
        <time>2024-12-16T19:31:36Z</time>
      </trkpt>
      <trkpt lat="46.81535" lon="-1.99117">
        <ele>2</ele>
        <time>2024-12-16T19:31:37Z</time>
      </trkpt>
      <trkpt lat="46.8154" lon="-1.99124">
        <ele>2</ele>
        <time>2024-12-16T19:31:38Z</time>
      </trkpt>
      <trkpt lat="46.81549" lon="-1.99137">
        <ele>2</ele>
        <time>2024-12-16T19:31:41Z</time>
      </trkpt>
      <trkpt lat="46.81573" lon="-1.99163">
        <ele>1</ele>
        <time>2024-12-16T19:31:46Z</time>
      </trkpt>
      <trkpt lat="46.81602" lon="-1.9919">
        <ele>1</ele>
        <time>2024-12-16T19:31:52Z</time>
      </trkpt>
      <trkpt lat="46.8165" lon="-1.9922">
        <ele>2</ele>
        <time>2024-12-16T19:32:01Z</time>
      </trkpt>
      <trkpt lat="46.81702" lon="-1.99237">
        <ele>2</ele>
        <time>2024-12-16T19:32:11Z</time>
      </trkpt>
      <trkpt lat="46.81744" lon="-1.99247">
        <ele>1</ele>
        <time>2024-12-16T19:32:18Z</time>
      </trkpt>
      <trkpt lat="46.81747" lon="-1.99248">
        <ele>1</ele>
        <time>2024-12-16T19:32:19Z</time>
      </trkpt>
      <trkpt lat="46.81834" lon="-1.99269">
        <ele>2</ele>
        <time>2024-12-16T19:32:35Z</time>
      </trkpt>
      <trkpt lat="46.81867" lon="-1.99279">
        <ele>2</ele>
        <time>2024-12-16T19:32:41Z</time>
      </trkpt>
      <trkpt lat="46.81884" lon="-1.9929">
        <ele>2</ele>
        <time>2024-12-16T19:32:44Z</time>
      </trkpt>
      <trkpt lat="46.81894" lon="-1.993">
        <ele>2</ele>
        <time>2024-12-16T19:32:46Z</time>
      </trkpt>
      <trkpt lat="46.81895" lon="-1.9929">
        <ele>2</ele>
        <time>2024-12-16T19:32:47Z</time>
      </trkpt>
      <trkpt lat="46.81899" lon="-1.99283">
        <ele>2</ele>
        <time>2024-12-16T19:32:48Z</time>
      </trkpt>
      <trkpt lat="46.819" lon="-1.99282">
        <ele>2</ele>
        <time>2024-12-16T19:32:49Z</time>
      </trkpt>
      <trkpt lat="46.81904" lon="-1.99281">
        <ele>2</ele>
        <time>2024-12-16T19:32:49Z</time>
      </trkpt>
      <trkpt lat="46.8191" lon="-1.99284">
        <ele>2</ele>
        <time>2024-12-16T19:32:51Z</time>
      </trkpt>
      <trkpt lat="46.81912" lon="-1.99288">
        <ele>2</ele>
        <time>2024-12-16T19:32:51Z</time>
      </trkpt>
      <trkpt lat="46.81915" lon="-1.99275">
        <ele>2</ele>
        <time>2024-12-16T19:32:53Z</time>
      </trkpt>
      <trkpt lat="46.81912" lon="-1.99288">
        <ele>2</ele>
        <time>2024-12-16T19:32:54Z</time>
      </trkpt>
      <trkpt lat="46.81913" lon="-1.99291">
        <ele>2</ele>
        <time>2024-12-16T19:32:55Z</time>
      </trkpt>
      <trkpt lat="46.81924" lon="-1.99302">
        <ele>2</ele>
        <time>2024-12-16T19:32:57Z</time>
      </trkpt>
      <trkpt lat="46.81927" lon="-1.99305">
        <ele>2</ele>
        <time>2024-12-16T19:32:58Z</time>
      </trkpt>
      <trkpt lat="46.81957" lon="-1.9932">
        <ele>2</ele>
        <time>2024-12-16T19:33:04Z</time>
      </trkpt>
      <trkpt lat="46.82" lon="-1.99339">
        <ele>2</ele>
        <time>2024-12-16T19:33:12Z</time>
      </trkpt>
      <trkpt lat="46.82025" lon="-1.99348">
        <ele>2</ele>
        <time>2024-12-16T19:33:16Z</time>
      </trkpt>
      <trkpt lat="46.82032" lon="-1.9935">
        <ele>1</ele>
        <time>2024-12-16T19:33:17Z</time>
      </trkpt>
      <trkpt lat="46.82093" lon="-1.99371">
        <ele>1</ele>
        <time>2024-12-16T19:33:29Z</time>
      </trkpt>
      <trkpt lat="46.8212" lon="-1.99381">
        <ele>1</ele>
        <time>2024-12-16T19:33:34Z</time>
      </trkpt>
      <trkpt lat="46.82128" lon="-1.99386">
        <ele>1</ele>
        <time>2024-12-16T19:33:35Z</time>
      </trkpt>
      <trkpt lat="46.82144" lon="-1.99398">
        <ele>1</ele>
        <time>2024-12-16T19:33:38Z</time>
      </trkpt>
      <trkpt lat="46.82181" lon="-1.99421">
        <ele>1</ele>
        <time>2024-12-16T19:33:45Z</time>
      </trkpt>
      <trkpt lat="46.82221" lon="-1.9945">
        <ele>2</ele>
        <time>2024-12-16T19:33:53Z</time>
      </trkpt>
      <trkpt lat="46.8225" lon="-1.99473">
        <ele>2</ele>
        <time>2024-12-16T19:33:59Z</time>
      </trkpt>
      <trkpt lat="46.82261" lon="-1.9948">
        <ele>2</ele>
        <time>2024-12-16T19:34:01Z</time>
      </trkpt>
      <trkpt lat="46.82264" lon="-1.99482">
        <ele>2</ele>
        <time>2024-12-16T19:34:02Z</time>
      </trkpt>
      <trkpt lat="46.82269" lon="-1.99486">
        <ele>2</ele>
        <time>2024-12-16T19:34:03Z</time>
      </trkpt>
      <trkpt lat="46.82303" lon="-1.99509">
        <ele>1</ele>
        <time>2024-12-16T19:34:10Z</time>
      </trkpt>
      <trkpt lat="46.82338" lon="-1.99531">
        <ele>1</ele>
        <time>2024-12-16T19:34:16Z</time>
      </trkpt>
      <trkpt lat="46.82367" lon="-1.99547">
        <ele>1</ele>
        <time>2024-12-16T19:34:22Z</time>
      </trkpt>
      <trkpt lat="46.82426" lon="-1.9956">
        <ele>2</ele>
        <time>2024-12-16T19:34:33Z</time>
      </trkpt>
      <trkpt lat="46.82433" lon="-1.99556">
        <ele>1</ele>
        <time>2024-12-16T19:34:34Z</time>
      </trkpt>
      <trkpt lat="46.82434" lon="-1.99555">
        <ele>1</ele>
        <time>2024-12-16T19:34:34Z</time>
      </trkpt>
      <trkpt lat="46.82439" lon="-1.99556">
        <ele>1</ele>
        <time>2024-12-16T19:34:35Z</time>
      </trkpt>
      <trkpt lat="46.82446" lon="-1.99562">
        <ele>1</ele>
        <time>2024-12-16T19:34:36Z</time>
      </trkpt>
      <trkpt lat="46.82449" lon="-1.99573">
        <ele>1</ele>
        <time>2024-12-16T19:34:38Z</time>
      </trkpt>
      <trkpt lat="46.82449" lon="-1.99579">
        <ele>2</ele>
        <time>2024-12-16T19:34:39Z</time>
      </trkpt>
      <trkpt lat="46.82445" lon="-1.99591">
        <ele>2</ele>
        <time>2024-12-16T19:34:40Z</time>
      </trkpt>
      <trkpt lat="46.82443" lon="-1.99592">
        <ele>2</ele>
        <time>2024-12-16T19:34:41Z</time>
      </trkpt>
      <trkpt lat="46.82438" lon="-1.99596">
        <ele>2</ele>
        <time>2024-12-16T19:34:42Z</time>
      </trkpt>
      <trkpt lat="46.82429" lon="-1.99646">
        <ele>1</ele>
        <time>2024-12-16T19:34:48Z</time>
      </trkpt>
      <trkpt lat="46.82435" lon="-1.99705">
        <ele>2</ele>
        <time>2024-12-16T19:34:55Z</time>
      </trkpt>
      <trkpt lat="46.82442" lon="-1.99765">
        <ele>2</ele>
        <time>2024-12-16T19:35:03Z</time>
      </trkpt>
      <trkpt lat="46.82444" lon="-1.99803">
        <ele>2</ele>
        <time>2024-12-16T19:35:07Z</time>
      </trkpt>
      <trkpt lat="46.82423" lon="-2.00054">
        <ele>1</ele>
        <time>2024-12-16T19:35:38Z</time>
      </trkpt>
      <trkpt lat="46.82414" lon="-2.00194">
        <ele>1</ele>
        <time>2024-12-16T19:35:55Z</time>
      </trkpt>
      <trkpt lat="46.8241" lon="-2.00236">
        <ele>2</ele>
        <time>2024-12-16T19:36:00Z</time>
      </trkpt>
      <trkpt lat="46.824" lon="-2.00367">
        <ele>2</ele>
        <time>2024-12-16T19:36:16Z</time>
      </trkpt>
      <trkpt lat="46.82393" lon="-2.00449">
        <ele>2</ele>
        <time>2024-12-16T19:36:26Z</time>
      </trkpt>
      <trkpt lat="46.82357" lon="-2.00914">
        <ele>1.9</ele>
        <time>2024-12-16T19:37:23Z</time>
      </trkpt>
      <trkpt lat="46.82326" lon="-2.013">
        <ele>1</ele>
        <time>2024-12-16T19:38:11Z</time>
      </trkpt>
      <trkpt lat="46.82321" lon="-2.01385">
        <ele>1.9</ele>
        <time>2024-12-16T19:38:21Z</time>
      </trkpt>
      <trkpt lat="46.82314" lon="-2.01441">
        <ele>1</ele>
        <time>2024-12-16T19:38:28Z</time>
      </trkpt>
      <trkpt lat="46.82279" lon="-2.01659">
        <ele>2</ele>
        <time>2024-12-16T19:38:55Z</time>
      </trkpt>
      <trkpt lat="46.82279" lon="-2.01704">
        <ele>2</ele>
        <time>2024-12-16T19:39:01Z</time>
      </trkpt>
      <trkpt lat="46.8228" lon="-2.01734">
        <ele>2</ele>
        <time>2024-12-16T19:39:04Z</time>
      </trkpt>
      <trkpt lat="46.82287" lon="-2.01799">
        <ele>1</ele>
        <time>2024-12-16T19:39:12Z</time>
      </trkpt>
      <trkpt lat="46.82291" lon="-2.01815">
        <ele>1</ele>
        <time>2024-12-16T19:39:14Z</time>
      </trkpt>
      <trkpt lat="46.82299" lon="-2.0183">
        <ele>1</ele>
        <time>2024-12-16T19:39:17Z</time>
      </trkpt>
      <trkpt lat="46.82438" lon="-2.01995">
        <ele>1</ele>
        <time>2024-12-16T19:39:49Z</time>
      </trkpt>
      <trkpt lat="46.82458" lon="-2.0203">
        <ele>2</ele>
        <time>2024-12-16T19:39:54Z</time>
      </trkpt>
      <trkpt lat="46.82471" lon="-2.02068">
        <ele>1</ele>
        <time>2024-12-16T19:39:59Z</time>
      </trkpt>
      <trkpt lat="46.82489" lon="-2.02133">
        <ele>1</ele>
        <time>2024-12-16T19:40:08Z</time>
      </trkpt>
      <trkpt lat="46.82504" lon="-2.02197">
        <ele>2</ele>
        <time>2024-12-16T19:40:16Z</time>
      </trkpt>
      <trkpt lat="46.82512" lon="-2.02232">
        <ele>1</ele>
        <time>2024-12-16T19:40:21Z</time>
      </trkpt>
      <trkpt lat="46.82518" lon="-2.0227">
        <ele>1</ele>
        <time>2024-12-16T19:40:25Z</time>
      </trkpt>
      <trkpt lat="46.82533" lon="-2.02391">
        <ele>2</ele>
        <time>2024-12-16T19:40:40Z</time>
      </trkpt>
      <trkpt lat="46.82543" lon="-2.02466">
        <ele>2</ele>
        <time>2024-12-16T19:40:50Z</time>
      </trkpt>
      <trkpt lat="46.82543" lon="-2.02497">
        <ele>2</ele>
        <time>2024-12-16T19:40:53Z</time>
      </trkpt>
      <trkpt lat="46.8254" lon="-2.02529">
        <ele>1</ele>
        <time>2024-12-16T19:40:57Z</time>
      </trkpt>
      <trkpt lat="46.82537" lon="-2.02556">
        <ele>1</ele>
        <time>2024-12-16T19:41:01Z</time>
      </trkpt>
      <trkpt lat="46.82516" lon="-2.02668">
        <ele>2</ele>
        <time>2024-12-16T19:41:15Z</time>
      </trkpt>
      <trkpt lat="46.82512" lon="-2.02693">
        <ele>1</ele>
        <time>2024-12-16T19:41:18Z</time>
      </trkpt>
      <trkpt lat="46.82503" lon="-2.02755">
        <ele>1</ele>
        <time>2024-12-16T19:41:26Z</time>
      </trkpt>
      <trkpt lat="46.82503" lon="-2.02798">
        <ele>1</ele>
        <time>2024-12-16T19:41:31Z</time>
      </trkpt>
      <trkpt lat="46.8254" lon="-2.03117">
        <ele>1</ele>
        <time>2024-12-16T19:42:10Z</time>
      </trkpt>
      <trkpt lat="46.82548" lon="-2.03167">
        <ele>1</ele>
        <time>2024-12-16T19:42:17Z</time>
      </trkpt>
      <trkpt lat="46.82557" lon="-2.03209">
        <ele>1</ele>
        <time>2024-12-16T19:42:22Z</time>
      </trkpt>
      <trkpt lat="46.82567" lon="-2.03236">
        <ele>1.8</ele>
        <time>2024-12-16T19:42:26Z</time>
      </trkpt>
      <trkpt lat="46.82649" lon="-2.03425">
        <ele>1</ele>
        <time>2024-12-16T19:42:53Z</time>
      </trkpt>
      <trkpt lat="46.82677" lon="-2.03493">
        <ele>1</ele>
        <time>2024-12-16T19:43:03Z</time>
      </trkpt>
      <trkpt lat="46.82698" lon="-2.03545">
        <ele>2</ele>
        <time>2024-12-16T19:43:10Z</time>
      </trkpt>
      <trkpt lat="46.82776" lon="-2.03743">
        <ele>2</ele>
        <time>2024-12-16T19:43:38Z</time>
      </trkpt>
      <trkpt lat="46.82803" lon="-2.03818">
        <ele>2</ele>
        <time>2024-12-16T19:43:48Z</time>
      </trkpt>
      <trkpt lat="46.82814" lon="-2.03866">
        <ele>1.9</ele>
        <time>2024-12-16T19:43:54Z</time>
      </trkpt>
      <trkpt lat="46.82821" lon="-2.03912">
        <ele>1.9</ele>
        <time>2024-12-16T19:44:00Z</time>
      </trkpt>
      <trkpt lat="46.82827" lon="-2.03955">
        <ele>-1</ele>
        <time>2024-12-16T19:44:05Z</time>
      </trkpt>
      <trkpt lat="46.82831" lon="-2.03983">
        <ele>-2</ele>
        <time>2024-12-16T19:44:09Z</time>
      </trkpt>
      <trkpt lat="46.82833" lon="-2.04016">
        <ele>-2</ele>
        <time>2024-12-16T19:44:13Z</time>
      </trkpt>
      <trkpt lat="46.82831" lon="-2.04151">
        <ele>-1</ele>
        <time>2024-12-16T19:44:29Z</time>
      </trkpt>
      <trkpt lat="46.82833" lon="-2.04185">
        <ele>-1</ele>
        <time>2024-12-16T19:44:33Z</time>
      </trkpt>
      <trkpt lat="46.82866" lon="-2.04408">
        <ele>1.9</ele>
        <time>2024-12-16T19:45:01Z</time>
      </trkpt>
      <trkpt lat="46.82868" lon="-2.04422">
        <ele>1.8</ele>
        <time>2024-12-16T19:45:03Z</time>
      </trkpt>
      <trkpt lat="46.82877" lon="-2.04478">
        <ele>2</ele>
        <time>2024-12-16T19:45:10Z</time>
      </trkpt>
      <trkpt lat="46.82887" lon="-2.04514">
        <ele>2</ele>
        <time>2024-12-16T19:45:15Z</time>
      </trkpt>
      <trkpt lat="46.82899" lon="-2.04554">
        <ele>2</ele>
        <time>2024-12-16T19:45:20Z</time>
      </trkpt>
      <trkpt lat="46.82931" lon="-2.04663">
        <ele>2</ele>
        <time>2024-12-16T19:45:34Z</time>
      </trkpt>
      <trkpt lat="46.8297" lon="-2.04813">
        <ele>1</ele>
        <time>2024-12-16T19:45:54Z</time>
      </trkpt>
      <trkpt lat="46.83043" lon="-2.05101">
        <ele>1.5</ele>
        <time>2024-12-16T19:46:31Z</time>
      </trkpt>
      <trkpt lat="46.83051" lon="-2.0513">
        <ele>1.7</ele>
        <time>2024-12-16T19:46:35Z</time>
      </trkpt>
      <trkpt lat="46.83071" lon="-2.05179">
        <ele>1.8</ele>
        <time>2024-12-16T19:46:42Z</time>
      </trkpt>
      <trkpt lat="46.83121" lon="-2.05278">
        <ele>2</ele>
        <time>2024-12-16T19:46:57Z</time>
      </trkpt>
      <trkpt lat="46.83131" lon="-2.05307">
        <ele>2</ele>
        <time>2024-12-16T19:47:01Z</time>
      </trkpt>
      <trkpt lat="46.83138" lon="-2.05342">
        <ele>2</ele>
        <time>2024-12-16T19:47:05Z</time>
      </trkpt>
      <trkpt lat="46.83138" lon="-2.05343">
        <ele>2</ele>
        <time>2024-12-16T19:47:06Z</time>
      </trkpt>
      <trkpt lat="46.83144" lon="-2.05465">
        <ele>1</ele>
        <time>2024-12-16T19:47:20Z</time>
      </trkpt>
      <trkpt lat="46.83158" lon="-2.05837">
        <ele>1.4</ele>
        <time>2024-12-16T19:48:06Z</time>
      </trkpt>
      <trkpt lat="46.83151" lon="-2.06003">
        <ele>1</ele>
        <time>2024-12-16T19:48:26Z</time>
      </trkpt>
      <trkpt lat="46.83147" lon="-2.06079">
        <ele>2</ele>
        <time>2024-12-16T19:48:35Z</time>
      </trkpt>
      <trkpt lat="46.83151" lon="-2.06113">
        <ele>3</ele>
        <time>2024-12-16T19:48:40Z</time>
      </trkpt>
      <trkpt lat="46.83157" lon="-2.06123">
        <ele>2.7</ele>
        <time>2024-12-16T19:48:41Z</time>
      </trkpt>
      <trkpt lat="46.8318" lon="-2.06126">
        <ele>2.5</ele>
        <time>2024-12-16T19:48:45Z</time>
      </trkpt>
      <trkpt lat="46.83197" lon="-2.06133">
        <ele>2.7</ele>
        <time>2024-12-16T19:48:48Z</time>
      </trkpt>
      <trkpt lat="46.83243" lon="-2.06153">
        <ele>-1</ele>
        <time>2024-12-16T19:48:57Z</time>
      </trkpt>
      <trkpt lat="46.8326" lon="-2.06161">
        <ele>-1</ele>
        <time>2024-12-16T19:49:00Z</time>
      </trkpt>
      <trkpt lat="46.83265" lon="-2.06164">
        <ele>-1</ele>
        <time>2024-12-16T19:49:01Z</time>
      </trkpt>
      <trkpt lat="46.83266" lon="-2.06164">
        <ele>-1</ele>
        <time>2024-12-16T19:49:01Z</time>
      </trkpt>
      <trkpt lat="46.83278" lon="-2.0617">
        <ele>-1</ele>
        <time>2024-12-16T19:49:04Z</time>
      </trkpt>
      <trkpt lat="46.8329" lon="-2.06175">
        <ele>-1</ele>
        <time>2024-12-16T19:49:06Z</time>
      </trkpt>
      <trkpt lat="46.83472" lon="-2.06258">
        <ele>1</ele>
        <time>2024-12-16T19:49:40Z</time>
      </trkpt>
      <trkpt lat="46.83506" lon="-2.0627">
        <ele>1</ele>
        <time>2024-12-16T19:49:46Z</time>
      </trkpt>
      <trkpt lat="46.83536" lon="-2.06275">
        <ele>1.9</ele>
        <time>2024-12-16T19:49:51Z</time>
      </trkpt>
      <trkpt lat="46.83621" lon="-2.06274">
        <ele>2</ele>
        <time>2024-12-16T19:50:06Z</time>
      </trkpt>
      <trkpt lat="46.83666" lon="-2.06272">
        <ele>2</ele>
        <time>2024-12-16T19:50:14Z</time>
      </trkpt>
      <trkpt lat="46.83692" lon="-2.06268">
        <ele>1.4</ele>
        <time>2024-12-16T19:50:19Z</time>
      </trkpt>
      <trkpt lat="46.83733" lon="-2.06253">
        <ele>1</ele>
        <time>2024-12-16T19:50:27Z</time>
      </trkpt>
      <trkpt lat="46.83784" lon="-2.06225">
        <ele>2</ele>
        <time>2024-12-16T19:50:36Z</time>
      </trkpt>
      <trkpt lat="46.84131" lon="-2.06042">
        <ele>-1</ele>
        <time>2024-12-16T19:51:42Z</time>
      </trkpt>
      <trkpt lat="46.84146" lon="-2.06034">
        <ele>-1</ele>
        <time>2024-12-16T19:51:45Z</time>
      </trkpt>
      <trkpt lat="46.84163" lon="-2.06028">
        <ele>-1</ele>
        <time>2024-12-16T19:51:48Z</time>
      </trkpt>
      <trkpt lat="46.84183" lon="-2.06025">
        <ele>-1</ele>
        <time>2024-12-16T19:51:51Z</time>
      </trkpt>
      <trkpt lat="46.84203" lon="-2.06025">
        <ele>-1</ele>
        <time>2024-12-16T19:51:55Z</time>
      </trkpt>
      <trkpt lat="46.84253" lon="-2.06029">
        <ele>2.9</ele>
        <time>2024-12-16T19:52:04Z</time>
      </trkpt>
      <trkpt lat="46.84259" lon="-2.0603">
        <ele>2.6</ele>
        <time>2024-12-16T19:52:05Z</time>
      </trkpt>
      <trkpt lat="46.84795" lon="-2.06088">
        <ele>-1</ele>
        <time>2024-12-16T19:53:41Z</time>
      </trkpt>
      <trkpt lat="46.84841" lon="-2.06096">
        <ele>-1</ele>
        <time>2024-12-16T19:53:49Z</time>
      </trkpt>
      <trkpt lat="46.8486" lon="-2.061">
        <ele>-1</ele>
        <time>2024-12-16T19:53:52Z</time>
      </trkpt>
      <trkpt lat="46.85052" lon="-2.06147">
        <ele>1.7</ele>
        <time>2024-12-16T19:54:27Z</time>
      </trkpt>
      <trkpt lat="46.85078" lon="-2.06151">
        <ele>1</ele>
        <time>2024-12-16T19:54:32Z</time>
      </trkpt>
      <trkpt lat="46.85106" lon="-2.06149">
        <ele>1</ele>
        <time>2024-12-16T19:54:37Z</time>
      </trkpt>
      <trkpt lat="46.85134" lon="-2.0614">
        <ele>1</ele>
        <time>2024-12-16T19:54:42Z</time>
      </trkpt>
      <trkpt lat="46.85153" lon="-2.0613">
        <ele>2</ele>
        <time>2024-12-16T19:54:45Z</time>
      </trkpt>
      <trkpt lat="46.85165" lon="-2.06121">
        <ele>2</ele>
        <time>2024-12-16T19:54:48Z</time>
      </trkpt>
      <trkpt lat="46.85194" lon="-2.06092">
        <ele>2</ele>
        <time>2024-12-16T19:54:54Z</time>
      </trkpt>
      <trkpt lat="46.85245" lon="-2.06023">
        <ele>-1</ele>
        <time>2024-12-16T19:55:06Z</time>
      </trkpt>
      <trkpt lat="46.85266" lon="-2.05999">
        <ele>-1</ele>
        <time>2024-12-16T19:55:11Z</time>
      </trkpt>
      <trkpt lat="46.85292" lon="-2.05977">
        <ele>-1</ele>
        <time>2024-12-16T19:55:16Z</time>
      </trkpt>
      <trkpt lat="46.85312" lon="-2.05965">
        <ele>-1</ele>
        <time>2024-12-16T19:55:20Z</time>
      </trkpt>
      <trkpt lat="46.85339" lon="-2.05955">
        <ele>1.4</ele>
        <time>2024-12-16T19:55:25Z</time>
      </trkpt>
      <trkpt lat="46.85368" lon="-2.05946">
        <ele>1.9</ele>
        <time>2024-12-16T19:55:30Z</time>
      </trkpt>
      <trkpt lat="46.85404" lon="-2.05939">
        <ele>2</ele>
        <time>2024-12-16T19:55:37Z</time>
      </trkpt>
      <trkpt lat="46.85437" lon="-2.05941">
        <ele>1.9</ele>
        <time>2024-12-16T19:55:43Z</time>
      </trkpt>
      <trkpt lat="46.85477" lon="-2.05953">
        <ele>2</ele>
        <time>2024-12-16T19:55:50Z</time>
      </trkpt>
      <trkpt lat="46.85499" lon="-2.05963">
        <ele>2</ele>
        <time>2024-12-16T19:55:54Z</time>
      </trkpt>
      <trkpt lat="46.85481" lon="-2.0604">
        <ele>1.7</ele>
        <time>2024-12-16T19:56:04Z</time>
      </trkpt>
      <trkpt lat="46.8542" lon="-2.06196">
        <ele>2</ele>
        <time>2024-12-16T19:56:26Z</time>
      </trkpt>
      <trkpt lat="46.85411" lon="-2.06237">
        <ele>-1</ele>
        <time>2024-12-16T19:56:31Z</time>
      </trkpt>
      <trkpt lat="46.85404" lon="-2.06282">
        <ele>1.9</ele>
        <time>2024-12-16T19:56:37Z</time>
      </trkpt>
      <trkpt lat="46.85393" lon="-2.06334">
        <ele>2</ele>
        <time>2024-12-16T19:56:43Z</time>
      </trkpt>
      <trkpt lat="46.85389" lon="-2.06366">
        <ele>2</ele>
        <time>2024-12-16T19:56:47Z</time>
      </trkpt>
      <trkpt lat="46.85392" lon="-2.06388">
        <ele>2</ele>
        <time>2024-12-16T19:56:50Z</time>
      </trkpt>
      <trkpt lat="46.854" lon="-2.06408">
        <ele>2</ele>
        <time>2024-12-16T19:56:53Z</time>
      </trkpt>
      <trkpt lat="46.85451" lon="-2.06486">
        <ele>1.5</ele>
        <time>2024-12-16T19:57:06Z</time>
      </trkpt>
      <trkpt lat="46.85461" lon="-2.06498">
        <ele>-1</ele>
        <time>2024-12-16T19:57:08Z</time>
      </trkpt>
      <trkpt lat="46.85492" lon="-2.06527">
        <ele>-1</ele>
        <time>2024-12-16T19:57:15Z</time>
      </trkpt>
      <trkpt lat="46.855" lon="-2.06542">
        <ele>2</ele>
        <time>2024-12-16T19:57:17Z</time>
      </trkpt>
      <trkpt lat="46.85502" lon="-2.06556">
        <ele>1.9</ele>
        <time>2024-12-16T19:57:19Z</time>
      </trkpt>
      <trkpt lat="46.855" lon="-2.06612">
        <ele>2</ele>
        <time>2024-12-16T19:57:26Z</time>
      </trkpt>
      <trkpt lat="46.85503" lon="-2.06626">
        <ele>2</ele>
        <time>2024-12-16T19:57:28Z</time>
      </trkpt>
      <trkpt lat="46.85508" lon="-2.0664">
        <ele>-1</ele>
        <time>2024-12-16T19:57:29Z</time>
      </trkpt>
      <trkpt lat="46.85525" lon="-2.06672">
        <ele>-1</ele>
        <time>2024-12-16T19:57:34Z</time>
      </trkpt>
      <trkpt lat="46.8553" lon="-2.06688">
        <ele>-1</ele>
        <time>2024-12-16T19:57:36Z</time>
      </trkpt>
      <trkpt lat="46.85533" lon="-2.06709">
        <ele>-1</ele>
        <time>2024-12-16T19:57:39Z</time>
      </trkpt>
      <trkpt lat="46.85538" lon="-2.06831">
        <ele>-1</ele>
        <time>2024-12-16T19:57:54Z</time>
      </trkpt>
      <trkpt lat="46.85544" lon="-2.06863">
        <ele>-1</ele>
        <time>2024-12-16T19:57:58Z</time>
      </trkpt>
      <trkpt lat="46.85566" lon="-2.06907">
        <ele>2</ele>
        <time>2024-12-16T19:58:05Z</time>
      </trkpt>
      <trkpt lat="46.85593" lon="-2.06996">
        <ele>1</ele>
        <time>2024-12-16T19:58:16Z</time>
      </trkpt>
      <trkpt lat="46.856" lon="-2.07029">
        <ele>1</ele>
        <time>2024-12-16T19:58:21Z</time>
      </trkpt>
      <trkpt lat="46.85614" lon="-2.07127">
        <ele>2</ele>
        <time>2024-12-16T19:58:33Z</time>
      </trkpt>
      <trkpt lat="46.85625" lon="-2.07186">
        <ele>1</ele>
        <time>2024-12-16T19:58:40Z</time>
      </trkpt>
      <trkpt lat="46.85632" lon="-2.07207">
        <ele>1</ele>
        <time>2024-12-16T19:58:43Z</time>
      </trkpt>
      <trkpt lat="46.85636" lon="-2.07214">
        <ele>1</ele>
        <time>2024-12-16T19:58:44Z</time>
      </trkpt>
      <trkpt lat="46.85646" lon="-2.07225">
        <ele>2</ele>
        <time>2024-12-16T19:58:47Z</time>
      </trkpt>
      <trkpt lat="46.8568" lon="-2.07234">
        <ele>2</ele>
        <time>2024-12-16T19:58:53Z</time>
      </trkpt>
      <trkpt lat="46.85689" lon="-2.0724">
        <ele>2</ele>
        <time>2024-12-16T19:58:54Z</time>
      </trkpt>
      <trkpt lat="46.85698" lon="-2.07248">
        <ele>2</ele>
        <time>2024-12-16T19:58:56Z</time>
      </trkpt>
      <trkpt lat="46.85711" lon="-2.0727">
        <ele>2</ele>
        <time>2024-12-16T19:59:00Z</time>
      </trkpt>
      <trkpt lat="46.85725" lon="-2.07303">
        <ele>2</ele>
        <time>2024-12-16T19:59:05Z</time>
      </trkpt>
      <trkpt lat="46.85767" lon="-2.07358">
        <ele>2</ele>
        <time>2024-12-16T19:59:15Z</time>
      </trkpt>
      <trkpt lat="46.85782" lon="-2.07382">
        <ele>2</ele>
        <time>2024-12-16T19:59:19Z</time>
      </trkpt>
      <trkpt lat="46.8587" lon="-2.07541">
        <ele>1</ele>
        <time>2024-12-16T19:59:43Z</time>
      </trkpt>
      <trkpt lat="46.85897" lon="-2.07594">
        <ele>1</ele>
        <time>2024-12-16T19:59:51Z</time>
      </trkpt>
      <trkpt lat="46.85934" lon="-2.07688">
        <ele>1</ele>
        <time>2024-12-16T20:00:05Z</time>
      </trkpt>
      <trkpt lat="46.85977" lon="-2.07783">
        <ele>1</ele>
        <time>2024-12-16T20:00:19Z</time>
      </trkpt>
      <trkpt lat="46.86034" lon="-2.07914">
        <ele>2</ele>
        <time>2024-12-16T20:00:37Z</time>
      </trkpt>
      <trkpt lat="46.86043" lon="-2.07929">
        <ele>2</ele>
        <time>2024-12-16T20:00:40Z</time>
      </trkpt>
      <trkpt lat="46.86057" lon="-2.07946">
        <ele>1</ele>
        <time>2024-12-16T20:00:43Z</time>
      </trkpt>
      <trkpt lat="46.86082" lon="-2.07963">
        <ele>1</ele>
        <time>2024-12-16T20:00:48Z</time>
      </trkpt>
      <trkpt lat="46.86083" lon="-2.07961">
        <ele>1</ele>
        <time>2024-12-16T20:00:48Z</time>
      </trkpt>
      <trkpt lat="46.86093" lon="-2.07943">
        <ele>1</ele>
        <time>2024-12-16T20:00:51Z</time>
      </trkpt>
      <trkpt lat="46.86104" lon="-2.07931">
        <ele>1</ele>
        <time>2024-12-16T20:00:54Z</time>
      </trkpt>
      <trkpt lat="46.86124" lon="-2.07918">
        <ele>1</ele>
        <time>2024-12-16T20:00:57Z</time>
      </trkpt>
      <trkpt lat="46.86149" lon="-2.07908">
        <ele>1</ele>
        <time>2024-12-16T20:01:02Z</time>
      </trkpt>
      <trkpt lat="46.86169" lon="-2.07892">
        <ele>1</ele>
        <time>2024-12-16T20:01:06Z</time>
      </trkpt>
      <trkpt lat="46.86178" lon="-2.07883">
        <ele>1</ele>
        <time>2024-12-16T20:01:08Z</time>
      </trkpt>
      <trkpt lat="46.86254" lon="-2.07774">
        <ele>1</ele>
        <time>2024-12-16T20:01:27Z</time>
      </trkpt>
      <trkpt lat="46.86256" lon="-2.07778">
        <ele>1</ele>
        <time>2024-12-16T20:01:28Z</time>
      </trkpt>
      <trkpt lat="46.8627" lon="-2.07807">
        <ele>1</ele>
        <time>2024-12-16T20:01:32Z</time>
      </trkpt>
      <trkpt lat="46.86286" lon="-2.07826">
        <ele>1</ele>
        <time>2024-12-16T20:01:36Z</time>
      </trkpt>
      <trkpt lat="46.86304" lon="-2.0784">
        <ele>2</ele>
        <time>2024-12-16T20:01:39Z</time>
      </trkpt>
      <trkpt lat="46.86334" lon="-2.07856">
        <ele>2</ele>
        <time>2024-12-16T20:01:45Z</time>
      </trkpt>
      <trkpt lat="46.8635" lon="-2.07872">
        <ele>1.6</ele>
        <time>2024-12-16T20:01:48Z</time>
      </trkpt>
      <trkpt lat="46.86357" lon="-2.07883">
        <ele>1</ele>
        <time>2024-12-16T20:01:50Z</time>
      </trkpt>
      <trkpt lat="46.86369" lon="-2.07907">
        <ele>1</ele>
        <time>2024-12-16T20:01:54Z</time>
      </trkpt>
      <trkpt lat="46.86423" lon="-2.08033">
        <ele>2</ele>
        <time>2024-12-16T20:02:12Z</time>
      </trkpt>
      <trkpt lat="46.86462" lon="-2.0809">
        <ele>2</ele>
        <time>2024-12-16T20:02:22Z</time>
      </trkpt>
      <trkpt lat="46.86494" lon="-2.08146">
        <ele>2</ele>
        <time>2024-12-16T20:02:31Z</time>
      </trkpt>
      <trkpt lat="46.86496" lon="-2.08153">
        <ele>2</ele>
        <time>2024-12-16T20:02:31Z</time>
      </trkpt>
      <trkpt lat="46.86898" lon="-2.09199">
        <ele>2.7</ele>
        <time>2024-12-16T20:04:57Z</time>
      </trkpt>
      <trkpt lat="46.86902" lon="-2.0921">
        <ele>2.5</ele>
        <time>2024-12-16T20:04:59Z</time>
      </trkpt>
      <trkpt lat="46.86906" lon="-2.09219">
        <ele>2.4</ele>
        <time>2024-12-16T20:05:00Z</time>
      </trkpt>
      <trkpt lat="46.8691" lon="-2.09231">
        <ele>2.1</ele>
        <time>2024-12-16T20:05:02Z</time>
      </trkpt>
      <trkpt lat="46.86923" lon="-2.09258">
        <ele>1.9</ele>
        <time>2024-12-16T20:05:06Z</time>
      </trkpt>
      <trkpt lat="46.86938" lon="-2.09293">
        <ele>1</ele>
        <time>2024-12-16T20:05:11Z</time>
      </trkpt>
      <trkpt lat="46.87135" lon="-2.09742">
        <ele>-1</ele>
        <time>2024-12-16T20:06:16Z</time>
      </trkpt>
      <trkpt lat="46.87152" lon="-2.09772">
        <ele>2</ele>
        <time>2024-12-16T20:06:21Z</time>
      </trkpt>
      <trkpt lat="46.87172" lon="-2.09799">
        <ele>2</ele>
        <time>2024-12-16T20:06:25Z</time>
      </trkpt>
      <trkpt lat="46.87267" lon="-2.09896">
        <ele>1</ele>
        <time>2024-12-16T20:06:46Z</time>
      </trkpt>
      <trkpt lat="46.87274" lon="-2.09907">
        <ele>2.3</ele>
        <time>2024-12-16T20:06:48Z</time>
      </trkpt>
      <trkpt lat="46.87275" lon="-2.0991">
        <ele>2.5</ele>
        <time>2024-12-16T20:06:48Z</time>
      </trkpt>
      <trkpt lat="46.87276" lon="-2.09919">
        <ele>2.9</ele>
        <time>2024-12-16T20:06:49Z</time>
      </trkpt>
      <trkpt lat="46.87275" lon="-2.09923">
        <ele>2.9</ele>
        <time>2024-12-16T20:06:50Z</time>
      </trkpt>
      <trkpt lat="46.87269" lon="-2.0993">
        <ele>2.8</ele>
        <time>2024-12-16T20:06:51Z</time>
      </trkpt>
      <trkpt lat="46.87197" lon="-2.09978">
        <ele>2.8</ele>
        <time>2024-12-16T20:07:05Z</time>
      </trkpt>
      <trkpt lat="46.87183" lon="-2.0999">
        <ele>2.2</ele>
        <time>2024-12-16T20:07:08Z</time>
      </trkpt>
      <trkpt lat="46.87174" lon="-2.10001">
        <ele>2</ele>
        <time>2024-12-16T20:07:10Z</time>
      </trkpt>
      <trkpt lat="46.87147" lon="-2.10045">
        <ele>2.4</ele>
        <time>2024-12-16T20:07:18Z</time>
      </trkpt>
      <trkpt lat="46.87128" lon="-2.10068">
        <ele>2.7</ele>
        <time>2024-12-16T20:07:22Z</time>
      </trkpt>
      <trkpt lat="46.87122" lon="-2.1008">
        <ele>2.7</ele>
        <time>2024-12-16T20:07:24Z</time>
      </trkpt>
      <trkpt lat="46.87122" lon="-2.10084">
        <ele>2.6</ele>
        <time>2024-12-16T20:07:24Z</time>
      </trkpt>
      <trkpt lat="46.87124" lon="-2.10099">
        <ele>2.8</ele>
        <time>2024-12-16T20:07:26Z</time>
      </trkpt>
      <trkpt lat="46.87143" lon="-2.10134">
        <ele>2.1</ele>
        <time>2024-12-16T20:07:31Z</time>
      </trkpt>
      <trkpt lat="46.87152" lon="-2.10166">
        <ele>2.5</ele>
        <time>2024-12-16T20:07:36Z</time>
      </trkpt>
      <trkpt lat="46.87168" lon="-2.10259">
        <ele>2</ele>
        <time>2024-12-16T20:07:47Z</time>
      </trkpt>
      <trkpt lat="46.87167" lon="-2.10307">
        <ele>2</ele>
        <time>2024-12-16T20:07:53Z</time>
      </trkpt>
      <trkpt lat="46.87169" lon="-2.10317">
        <ele>2</ele>
        <time>2024-12-16T20:07:54Z</time>
      </trkpt>
      <trkpt lat="46.87175" lon="-2.10325">
        <ele>2.2</ele>
        <time>2024-12-16T20:07:56Z</time>
      </trkpt>
      <trkpt lat="46.87184" lon="-2.10325">
        <ele>2.4</ele>
        <time>2024-12-16T20:07:58Z</time>
      </trkpt>
      <trkpt lat="46.87252" lon="-2.1034">
        <ele>2</ele>
        <time>2024-12-16T20:08:10Z</time>
      </trkpt>
      <trkpt lat="46.87348" lon="-2.10357">
        <ele>1</ele>
        <time>2024-12-16T20:08:27Z</time>
      </trkpt>
      <trkpt lat="46.87346" lon="-2.10364">
        <ele>1</ele>
        <time>2024-12-16T20:08:28Z</time>
      </trkpt>
      <trkpt lat="46.87359" lon="-2.10371">
        <ele>1</ele>
        <time>2024-12-16T20:08:30Z</time>
      </trkpt>
      <trkpt lat="46.87383" lon="-2.10385">
        <ele>2</ele>
        <time>2024-12-16T20:08:35Z</time>
      </trkpt>
      <trkpt lat="46.8741" lon="-2.10397">
        <ele>-1</ele>
        <time>2024-12-16T20:08:40Z</time>
      </trkpt>
      <trkpt lat="46.87433" lon="-2.1042">
        <ele>-1</ele>
        <time>2024-12-16T20:08:45Z</time>
      </trkpt>
      <trkpt lat="46.87443" lon="-2.10426">
        <ele>2</ele>
        <time>2024-12-16T20:08:47Z</time>
      </trkpt>
      <trkpt lat="46.87452" lon="-2.1043">
        <ele>2</ele>
        <time>2024-12-16T20:08:49Z</time>
      </trkpt>
      <trkpt lat="46.87476" lon="-2.10434">
        <ele>1</ele>
        <time>2024-12-16T20:08:53Z</time>
      </trkpt>
      <trkpt lat="46.87508" lon="-2.10452">
        <ele>1</ele>
        <time>2024-12-16T20:08:59Z</time>
      </trkpt>
      <trkpt lat="46.8752" lon="-2.10462">
        <ele>1</ele>
        <time>2024-12-16T20:09:01Z</time>
      </trkpt>
      <trkpt lat="46.87532" lon="-2.10466">
        <ele>1</ele>
        <time>2024-12-16T20:09:04Z</time>
      </trkpt>
      <trkpt lat="46.87567" lon="-2.10472">
        <ele>2</ele>
        <time>2024-12-16T20:09:10Z</time>
      </trkpt>
      <trkpt lat="46.87568" lon="-2.10466">
        <ele>2</ele>
        <time>2024-12-16T20:09:11Z</time>
      </trkpt>
      <trkpt lat="46.87615" lon="-2.1047">
        <ele>2</ele>
        <time>2024-12-16T20:09:19Z</time>
      </trkpt>
      <trkpt lat="46.87634" lon="-2.10474">
        <ele>1</ele>
        <time>2024-12-16T20:09:22Z</time>
      </trkpt>
      <trkpt lat="46.87658" lon="-2.10473">
        <ele>1</ele>
        <time>2024-12-16T20:09:27Z</time>
      </trkpt>
      <trkpt lat="46.87666" lon="-2.10482">
        <ele>1</ele>
        <time>2024-12-16T20:09:28Z</time>
      </trkpt>
      <trkpt lat="46.87682" lon="-2.10476">
        <ele>1</ele>
        <time>2024-12-16T20:09:31Z</time>
      </trkpt>
      <trkpt lat="46.87705" lon="-2.1046">
        <ele>2</ele>
        <time>2024-12-16T20:09:36Z</time>
      </trkpt>
      <trkpt lat="46.87716" lon="-2.10455">
        <ele>2</ele>
        <time>2024-12-16T20:09:38Z</time>
      </trkpt>
      <trkpt lat="46.87759" lon="-2.10454">
        <ele>2.2</ele>
        <time>2024-12-16T20:09:46Z</time>
      </trkpt>
      <trkpt lat="46.87802" lon="-2.10447">
        <ele>2.8</ele>
        <time>2024-12-16T20:09:53Z</time>
      </trkpt>
      <trkpt lat="46.87808" lon="-2.10448">
        <ele>1</ele>
        <time>2024-12-16T20:09:54Z</time>
      </trkpt>
      <trkpt lat="46.8782" lon="-2.10455">
        <ele>1</ele>
        <time>2024-12-16T20:09:57Z</time>
      </trkpt>
      <trkpt lat="46.87828" lon="-2.10464">
        <ele>1</ele>
        <time>2024-12-16T20:09:58Z</time>
      </trkpt>
      <trkpt lat="46.87839" lon="-2.10476">
        <ele>1</ele>
        <time>2024-12-16T20:10:01Z</time>
      </trkpt>
      <trkpt lat="46.8784" lon="-2.10474">
        <ele>1</ele>
        <time>2024-12-16T20:10:01Z</time>
      </trkpt>
      <trkpt lat="46.87839" lon="-2.10476">
        <ele>1</ele>
        <time>2024-12-16T20:10:02Z</time>
      </trkpt>
      <trkpt lat="46.88024" lon="-2.10706">
        <ele>-1</ele>
        <time>2024-12-16T20:10:45Z</time>
      </trkpt>
      <trkpt lat="46.88034" lon="-2.10715">
        <ele>2</ele>
        <time>2024-12-16T20:10:47Z</time>
      </trkpt>
      <trkpt lat="46.88041" lon="-2.10723">
        <ele>2</ele>
        <time>2024-12-16T20:10:48Z</time>
      </trkpt>
      <trkpt lat="46.88051" lon="-2.10704">
        <ele>2</ele>
        <time>2024-12-16T20:10:51Z</time>
      </trkpt>
      <trkpt lat="46.88065" lon="-2.1067">
        <ele>1</ele>
        <time>2024-12-16T20:10:56Z</time>
      </trkpt>
      <trkpt lat="46.88088" lon="-2.10597">
        <ele>1</ele>
        <time>2024-12-16T20:11:06Z</time>
      </trkpt>
      <trkpt lat="46.88107" lon="-2.10521">
        <ele>1</ele>
        <time>2024-12-16T20:11:16Z</time>
      </trkpt>
      <trkpt lat="46.88115" lon="-2.10476">
        <ele>1</ele>
        <time>2024-12-16T20:11:21Z</time>
      </trkpt>
      <trkpt lat="46.88133" lon="-2.10393">
        <ele>1</ele>
        <time>2024-12-16T20:11:32Z</time>
      </trkpt>
      <trkpt lat="46.8818" lon="-2.10196">
        <ele>1</ele>
        <time>2024-12-16T20:11:57Z</time>
      </trkpt>
      <trkpt lat="46.88184" lon="-2.1018">
        <ele>1</ele>
        <time>2024-12-16T20:11:59Z</time>
      </trkpt>
      <trkpt lat="46.88188" lon="-2.10162">
        <ele>1</ele>
        <time>2024-12-16T20:12:02Z</time>
      </trkpt>
      <trkpt lat="46.88195" lon="-2.10139">
        <ele>1</ele>
        <time>2024-12-16T20:12:05Z</time>
      </trkpt>
      <trkpt lat="46.88199" lon="-2.10128">
        <ele>1</ele>
        <time>2024-12-16T20:12:06Z</time>
      </trkpt>
      <trkpt lat="46.88219" lon="-2.10064">
        <ele>1</ele>
        <time>2024-12-16T20:12:15Z</time>
      </trkpt>
      <trkpt lat="46.88236" lon="-2.09872">
        <ele>1</ele>
        <time>2024-12-16T20:12:38Z</time>
      </trkpt>
      <trkpt lat="46.88265" lon="-2.09696">
        <ele>1</ele>
        <time>2024-12-16T20:13:00Z</time>
      </trkpt>
      <trkpt lat="46.88304" lon="-2.09454">
        <ele>2</ele>
        <time>2024-12-16T20:13:31Z</time>
      </trkpt>
      <trkpt lat="46.88305" lon="-2.09444">
        <ele>2</ele>
        <time>2024-12-16T20:13:32Z</time>
      </trkpt>
      <trkpt lat="46.88312" lon="-2.09375">
        <ele>1</ele>
        <time>2024-12-16T20:13:40Z</time>
      </trkpt>
      <trkpt lat="46.88319" lon="-2.09294">
        <ele>1</ele>
        <time>2024-12-16T20:13:50Z</time>
      </trkpt>
      <trkpt lat="46.88323" lon="-2.09252">
        <ele>1</ele>
        <time>2024-12-16T20:13:55Z</time>
      </trkpt>
      <trkpt lat="46.88336" lon="-2.09185">
        <ele>2</ele>
        <time>2024-12-16T20:14:04Z</time>
      </trkpt>
      <trkpt lat="46.88352" lon="-2.09123">
        <ele>2.1</ele>
        <time>2024-12-16T20:14:12Z</time>
      </trkpt>
      <trkpt lat="46.8836" lon="-2.09076">
        <ele>2</ele>
        <time>2024-12-16T20:14:18Z</time>
      </trkpt>
      <trkpt lat="46.88368" lon="-2.09022">
        <ele>1</ele>
        <time>2024-12-16T20:14:25Z</time>
      </trkpt>
      <trkpt lat="46.88368" lon="-2.09">
        <ele>1</ele>
        <time>2024-12-16T20:14:27Z</time>
      </trkpt>
      <trkpt lat="46.88367" lon="-2.08997">
        <ele>1</ele>
        <time>2024-12-16T20:14:28Z</time>
      </trkpt>
      <trkpt lat="46.88364" lon="-2.08988">
        <ele>1</ele>
        <time>2024-12-16T20:14:29Z</time>
      </trkpt>
      <trkpt lat="46.88332" lon="-2.08922">
        <ele>2</ele>
        <time>2024-12-16T20:14:39Z</time>
      </trkpt>
      <trkpt lat="46.88324" lon="-2.08896">
        <ele>2</ele>
        <time>2024-12-16T20:14:42Z</time>
      </trkpt>
      <trkpt lat="46.88319" lon="-2.0886">
        <ele>2</ele>
        <time>2024-12-16T20:14:47Z</time>
      </trkpt>
      <trkpt lat="46.88316" lon="-2.08742">
        <ele>2</ele>
        <time>2024-12-16T20:15:01Z</time>
      </trkpt>
      <trkpt lat="46.88311" lon="-2.08702">
        <ele>2</ele>
        <time>2024-12-16T20:15:06Z</time>
      </trkpt>
      <trkpt lat="46.88303" lon="-2.08668">
        <ele>2</ele>
        <time>2024-12-16T20:15:10Z</time>
      </trkpt>
      <trkpt lat="46.88295" lon="-2.08642">
        <ele>2</ele>
        <time>2024-12-16T20:15:14Z</time>
      </trkpt>
      <trkpt lat="46.88264" lon="-2.08561">
        <ele>2</ele>
        <time>2024-12-16T20:15:25Z</time>
      </trkpt>
      <trkpt lat="46.88232" lon="-2.08448">
        <ele>-1</ele>
        <time>2024-12-16T20:15:40Z</time>
      </trkpt>
      <trkpt lat="46.88171" lon="-2.08285">
        <ele>1</ele>
        <time>2024-12-16T20:16:03Z</time>
      </trkpt>
      <trkpt lat="46.88162" lon="-2.08194">
        <ele>1</ele>
        <time>2024-12-16T20:16:14Z</time>
      </trkpt>
      <trkpt lat="46.88135" lon="-2.08129">
        <ele>1</ele>
        <time>2024-12-16T20:16:23Z</time>
      </trkpt>
      <trkpt lat="46.88107" lon="-2.08094">
        <ele>1</ele>
        <time>2024-12-16T20:16:30Z</time>
      </trkpt>
      <trkpt lat="46.88096" lon="-2.08079">
        <ele>1</ele>
        <time>2024-12-16T20:16:32Z</time>
      </trkpt>
      <trkpt lat="46.88058" lon="-2.07957">
        <ele>2</ele>
        <time>2024-12-16T20:16:49Z</time>
      </trkpt>
      <trkpt lat="46.8798" lon="-2.07738">
        <ele>2.7</ele>
        <time>2024-12-16T20:17:19Z</time>
      </trkpt>
      <trkpt lat="46.8797" lon="-2.07711">
        <ele>1</ele>
        <time>2024-12-16T20:17:22Z</time>
      </trkpt>
      <trkpt lat="46.8794" lon="-2.07647">
        <ele>1</ele>
        <time>2024-12-16T20:17:32Z</time>
      </trkpt>
      <trkpt lat="46.87914" lon="-2.07598">
        <ele>1</ele>
        <time>2024-12-16T20:17:39Z</time>
      </trkpt>
      <trkpt lat="46.87899" lon="-2.07552">
        <ele>1</ele>
        <time>2024-12-16T20:17:46Z</time>
      </trkpt>
      <trkpt lat="46.87884" lon="-2.0748">
        <ele>1</ele>
        <time>2024-12-16T20:17:55Z</time>
      </trkpt>
      <trkpt lat="46.87884" lon="-2.07451">
        <ele>2.8</ele>
        <time>2024-12-16T20:17:58Z</time>
      </trkpt>
      <trkpt lat="46.87885" lon="-2.07431">
        <ele>2.9</ele>
        <time>2024-12-16T20:18:01Z</time>
      </trkpt>
      <trkpt lat="46.87886" lon="-2.07424">
        <ele>2.9</ele>
        <time>2024-12-16T20:18:02Z</time>
      </trkpt>
      <trkpt lat="46.87888" lon="-2.07404">
        <ele>3</ele>
        <time>2024-12-16T20:18:04Z</time>
      </trkpt>
      <trkpt lat="46.87892" lon="-2.07353">
        <ele>2.9</ele>
        <time>2024-12-16T20:18:10Z</time>
      </trkpt>
      <trkpt lat="46.87892" lon="-2.07305">
        <ele>-1</ele>
        <time>2024-12-16T20:18:16Z</time>
      </trkpt>
      <trkpt lat="46.87889" lon="-2.07279">
        <ele>-1</ele>
        <time>2024-12-16T20:18:19Z</time>
      </trkpt>
      <trkpt lat="46.8789" lon="-2.07248">
        <ele>-1</ele>
        <time>2024-12-16T20:18:23Z</time>
      </trkpt>
      <trkpt lat="46.87891" lon="-2.07231">
        <ele>-1</ele>
        <time>2024-12-16T20:18:25Z</time>
      </trkpt>
      <trkpt lat="46.87904" lon="-2.07181">
        <ele>2</ele>
        <time>2024-12-16T20:18:32Z</time>
      </trkpt>
      <trkpt lat="46.87952" lon="-2.07039">
        <ele>1</ele>
        <time>2024-12-16T20:18:51Z</time>
      </trkpt>
      <trkpt lat="46.87964" lon="-2.06995">
        <ele>2.1</ele>
        <time>2024-12-16T20:18:57Z</time>
      </trkpt>
      <trkpt lat="46.87966" lon="-2.06972">
        <ele>2.8</ele>
        <time>2024-12-16T20:18:59Z</time>
      </trkpt>
      <trkpt lat="46.87965" lon="-2.06937">
        <ele>1</ele>
        <time>2024-12-16T20:19:04Z</time>
      </trkpt>
      <trkpt lat="46.87957" lon="-2.069">
        <ele>1</ele>
        <time>2024-12-16T20:19:08Z</time>
      </trkpt>
      <trkpt lat="46.87954" lon="-2.06886">
        <ele>1</ele>
        <time>2024-12-16T20:19:10Z</time>
      </trkpt>
      <trkpt lat="46.87911" lon="-2.06694">
        <ele>1</ele>
        <time>2024-12-16T20:19:35Z</time>
      </trkpt>
      <trkpt lat="46.87905" lon="-2.0666">
        <ele>1</ele>
        <time>2024-12-16T20:19:39Z</time>
      </trkpt>
      <trkpt lat="46.87903" lon="-2.06631">
        <ele>1</ele>
        <time>2024-12-16T20:19:43Z</time>
      </trkpt>
      <trkpt lat="46.879" lon="-2.06392">
        <ele>1</ele>
        <time>2024-12-16T20:20:12Z</time>
      </trkpt>
      <trkpt lat="46.87897" lon="-2.06359">
        <ele>1</ele>
        <time>2024-12-16T20:20:16Z</time>
      </trkpt>
      <trkpt lat="46.87892" lon="-2.06328">
        <ele>1</ele>
        <time>2024-12-16T20:20:20Z</time>
      </trkpt>
      <trkpt lat="46.87852" lon="-2.06135">
        <ele>2</ele>
        <time>2024-12-16T20:20:44Z</time>
      </trkpt>
      <trkpt lat="46.87841" lon="-2.06073">
        <ele>2</ele>
        <time>2024-12-16T20:20:52Z</time>
      </trkpt>
      <trkpt lat="46.87811" lon="-2.05881">
        <ele>1</ele>
        <time>2024-12-16T20:21:16Z</time>
      </trkpt>
      <trkpt lat="46.87809" lon="-2.05855">
        <ele>1</ele>
        <time>2024-12-16T20:21:19Z</time>
      </trkpt>
      <trkpt lat="46.87824" lon="-2.05855">
        <ele>1</ele>
        <time>2024-12-16T20:21:22Z</time>
      </trkpt>
      <trkpt lat="46.8783" lon="-2.05856">
        <ele>1</ele>
        <time>2024-12-16T20:21:23Z</time>
      </trkpt>
      <trkpt lat="46.8783" lon="-2.05851">
        <ele>1</ele>
        <time>2024-12-16T20:21:23Z</time>
      </trkpt>
      <trkpt lat="46.8782" lon="-2.05831">
        <ele>1</ele>
        <time>2024-12-16T20:21:26Z</time>
      </trkpt>
      <trkpt lat="46.87777" lon="-2.05779">
        <ele>1</ele>
        <time>2024-12-16T20:21:36Z</time>
      </trkpt>
      <trkpt lat="46.87512" lon="-2.05473">
        <ele>2</ele>
        <time>2024-12-16T20:22:36Z</time>
      </trkpt>
      <trkpt lat="46.87503" lon="-2.05461">
        <ele>2</ele>
        <time>2024-12-16T20:22:39Z</time>
      </trkpt>
      <trkpt lat="46.87487" lon="-2.0544">
        <ele>2</ele>
        <time>2024-12-16T20:22:42Z</time>
      </trkpt>
      <trkpt lat="46.8748" lon="-2.05423">
        <ele>2</ele>
        <time>2024-12-16T20:22:45Z</time>
      </trkpt>
      <trkpt lat="46.87471" lon="-2.05393">
        <ele>2</ele>
        <time>2024-12-16T20:22:49Z</time>
      </trkpt>
      <trkpt lat="46.87464" lon="-2.05362">
        <ele>2</ele>
        <time>2024-12-16T20:22:53Z</time>
      </trkpt>
      <trkpt lat="46.87463" lon="-2.05345">
        <ele>2</ele>
        <time>2024-12-16T20:22:55Z</time>
      </trkpt>
      <trkpt lat="46.87464" lon="-2.05296">
        <ele>2</ele>
        <time>2024-12-16T20:23:01Z</time>
      </trkpt>
      <trkpt lat="46.8747" lon="-2.05194">
        <ele>2</ele>
        <time>2024-12-16T20:23:13Z</time>
      </trkpt>
      <trkpt lat="46.87473" lon="-2.05137">
        <ele>2</ele>
        <time>2024-12-16T20:23:20Z</time>
      </trkpt>
      <trkpt lat="46.87476" lon="-2.05092">
        <ele>1</ele>
        <time>2024-12-16T20:23:26Z</time>
      </trkpt>
      <trkpt lat="46.87478" lon="-2.05075">
        <ele>1</ele>
        <time>2024-12-16T20:23:28Z</time>
      </trkpt>
      <trkpt lat="46.87482" lon="-2.05059">
        <ele>1</ele>
        <time>2024-12-16T20:23:30Z</time>
      </trkpt>
      <trkpt lat="46.87488" lon="-2.05045">
        <ele>1</ele>
        <time>2024-12-16T20:23:32Z</time>
      </trkpt>
      <trkpt lat="46.87495" lon="-2.05033">
        <ele>2</ele>
        <time>2024-12-16T20:23:34Z</time>
      </trkpt>
      <trkpt lat="46.87528" lon="-2.04986">
        <ele>2</ele>
        <time>2024-12-16T20:23:42Z</time>
      </trkpt>
      <trkpt lat="46.87541" lon="-2.04956">
        <ele>2</ele>
        <time>2024-12-16T20:23:46Z</time>
      </trkpt>
      <trkpt lat="46.87552" lon="-2.04907">
        <ele>1</ele>
        <time>2024-12-16T20:23:53Z</time>
      </trkpt>
      <trkpt lat="46.87565" lon="-2.04837">
        <ele>1</ele>
        <time>2024-12-16T20:24:01Z</time>
      </trkpt>
      <trkpt lat="46.87567" lon="-2.04824">
        <ele>1</ele>
        <time>2024-12-16T20:24:03Z</time>
      </trkpt>
      <trkpt lat="46.87567" lon="-2.04794">
        <ele>1</ele>
        <time>2024-12-16T20:24:07Z</time>
      </trkpt>
      <trkpt lat="46.87561" lon="-2.04765">
        <ele>1</ele>
        <time>2024-12-16T20:24:10Z</time>
      </trkpt>
      <trkpt lat="46.87514" lon="-2.04677">
        <ele>1</ele>
        <time>2024-12-16T20:24:24Z</time>
      </trkpt>
      <trkpt lat="46.87503" lon="-2.04647">
        <ele>1</ele>
        <time>2024-12-16T20:24:28Z</time>
      </trkpt>
      <trkpt lat="46.87481" lon="-2.04574">
        <ele>2</ele>
        <time>2024-12-16T20:24:38Z</time>
      </trkpt>
      <trkpt lat="46.87465" lon="-2.04522">
        <ele>1</ele>
        <time>2024-12-16T20:24:45Z</time>
      </trkpt>
      <trkpt lat="46.87459" lon="-2.0449">
        <ele>1</ele>
        <time>2024-12-16T20:24:49Z</time>
      </trkpt>
      <trkpt lat="46.87444" lon="-2.04322">
        <ele>2</ele>
        <time>2024-12-16T20:25:09Z</time>
      </trkpt>
      <trkpt lat="46.87436" lon="-2.04264">
        <ele>1</ele>
        <time>2024-12-16T20:25:17Z</time>
      </trkpt>
      <trkpt lat="46.87428" lon="-2.0423">
        <ele>1</ele>
        <time>2024-12-16T20:25:21Z</time>
      </trkpt>
      <trkpt lat="46.87419" lon="-2.04199">
        <ele>2</ele>
        <time>2024-12-16T20:25:25Z</time>
      </trkpt>
      <trkpt lat="46.87413" lon="-2.04184">
        <ele>2</ele>
        <time>2024-12-16T20:25:27Z</time>
      </trkpt>
      <trkpt lat="46.87391" lon="-2.04141">
        <ele>2</ele>
        <time>2024-12-16T20:25:34Z</time>
      </trkpt>
      <trkpt lat="46.8738" lon="-2.04112">
        <ele>2</ele>
        <time>2024-12-16T20:25:38Z</time>
      </trkpt>
      <trkpt lat="46.87371" lon="-2.04081">
        <ele>2</ele>
        <time>2024-12-16T20:25:42Z</time>
      </trkpt>
      <trkpt lat="46.87364" lon="-2.04048">
        <ele>2</ele>
        <time>2024-12-16T20:25:46Z</time>
      </trkpt>
      <trkpt lat="46.87359" lon="-2.03998">
        <ele>-1</ele>
        <time>2024-12-16T20:25:52Z</time>
      </trkpt>
      <trkpt lat="46.87355" lon="-2.03892">
        <ele>-1</ele>
        <time>2024-12-16T20:26:05Z</time>
      </trkpt>
      <trkpt lat="46.87351" lon="-2.03859">
        <ele>1.4</ele>
        <time>2024-12-16T20:26:09Z</time>
      </trkpt>
      <trkpt lat="46.87342" lon="-2.03827">
        <ele>2</ele>
        <time>2024-12-16T20:26:13Z</time>
      </trkpt>
      <trkpt lat="46.87263" lon="-2.03629">
        <ele>1</ele>
        <time>2024-12-16T20:26:41Z</time>
      </trkpt>
      <trkpt lat="46.87258" lon="-2.03611">
        <ele>2</ele>
        <time>2024-12-16T20:26:44Z</time>
      </trkpt>
      <trkpt lat="46.87253" lon="-2.03574">
        <ele>1.7</ele>
        <time>2024-12-16T20:26:48Z</time>
      </trkpt>
      <trkpt lat="46.87251" lon="-2.03504">
        <ele>2</ele>
        <time>2024-12-16T20:26:57Z</time>
      </trkpt>
      <trkpt lat="46.87252" lon="-2.03481">
        <ele>2</ele>
        <time>2024-12-16T20:27:00Z</time>
      </trkpt>
      <trkpt lat="46.87255" lon="-2.03462">
        <ele>1.7</ele>
        <time>2024-12-16T20:27:02Z</time>
      </trkpt>
      <trkpt lat="46.87264" lon="-2.03438">
        <ele>1.6</ele>
        <time>2024-12-16T20:27:05Z</time>
      </trkpt>
      <trkpt lat="46.87277" lon="-2.03415">
        <ele>1.9</ele>
        <time>2024-12-16T20:27:09Z</time>
      </trkpt>
      <trkpt lat="46.87322" lon="-2.0335">
        <ele>2</ele>
        <time>2024-12-16T20:27:20Z</time>
      </trkpt>
      <trkpt lat="46.87352" lon="-2.03296">
        <ele>2</ele>
        <time>2024-12-16T20:27:29Z</time>
      </trkpt>
      <trkpt lat="46.8736" lon="-2.03278">
        <ele>2</ele>
        <time>2024-12-16T20:27:31Z</time>
      </trkpt>
      <trkpt lat="46.87373" lon="-2.03243">
        <ele>2</ele>
        <time>2024-12-16T20:27:36Z</time>
      </trkpt>
      <trkpt lat="46.87439" lon="-2.03014">
        <ele>1</ele>
        <time>2024-12-16T20:28:06Z</time>
      </trkpt>
      <trkpt lat="46.87451" lon="-2.02965">
        <ele>1</ele>
        <time>2024-12-16T20:28:13Z</time>
      </trkpt>
      <trkpt lat="46.87471" lon="-2.02834">
        <ele>2</ele>
        <time>2024-12-16T20:28:29Z</time>
      </trkpt>
      <trkpt lat="46.87474" lon="-2.02819">
        <ele>2.5</ele>
        <time>2024-12-16T20:28:31Z</time>
      </trkpt>
      <trkpt lat="46.87475" lon="-2.02808">
        <ele>2.8</ele>
        <time>2024-12-16T20:28:32Z</time>
      </trkpt>
      <trkpt lat="46.8748" lon="-2.02776">
        <ele>2</ele>
        <time>2024-12-16T20:28:36Z</time>
      </trkpt>
      <trkpt lat="46.87483" lon="-2.02758">
        <ele>2</ele>
        <time>2024-12-16T20:28:38Z</time>
      </trkpt>
      <trkpt lat="46.87489" lon="-2.02741">
        <ele>2.2</ele>
        <time>2024-12-16T20:28:41Z</time>
      </trkpt>
      <trkpt lat="46.87508" lon="-2.02705">
        <ele>2</ele>
        <time>2024-12-16T20:28:46Z</time>
      </trkpt>
      <trkpt lat="46.87528" lon="-2.02671">
        <ele>1.8</ele>
        <time>2024-12-16T20:28:52Z</time>
      </trkpt>
      <trkpt lat="46.87563" lon="-2.02616">
        <ele>1</ele>
        <time>2024-12-16T20:29:01Z</time>
      </trkpt>
      <trkpt lat="46.87581" lon="-2.0258">
        <ele>1.9</ele>
        <time>2024-12-16T20:29:06Z</time>
      </trkpt>
      <trkpt lat="46.87588" lon="-2.02559">
        <ele>2</ele>
        <time>2024-12-16T20:29:09Z</time>
      </trkpt>
      <trkpt lat="46.87593" lon="-2.02537">
        <ele>1</ele>
        <time>2024-12-16T20:29:12Z</time>
      </trkpt>
      <trkpt lat="46.87598" lon="-2.02497">
        <ele>1</ele>
        <time>2024-12-16T20:29:17Z</time>
      </trkpt>
      <trkpt lat="46.87631" lon="-2.02242">
        <ele>1</ele>
        <time>2024-12-16T20:29:48Z</time>
      </trkpt>
      <trkpt lat="46.87647" lon="-2.02174">
        <ele>2.1</ele>
        <time>2024-12-16T20:29:57Z</time>
      </trkpt>
      <trkpt lat="46.87677" lon="-2.02071">
        <ele>2</ele>
        <time>2024-12-16T20:30:11Z</time>
      </trkpt>
      <trkpt lat="46.87682" lon="-2.02056">
        <ele>1</ele>
        <time>2024-12-16T20:30:13Z</time>
      </trkpt>
      <trkpt lat="46.87691" lon="-2.02028">
        <ele>1</ele>
        <time>2024-12-16T20:30:17Z</time>
      </trkpt>
      <trkpt lat="46.87692" lon="-2.02015">
        <ele>1</ele>
        <time>2024-12-16T20:30:18Z</time>
      </trkpt>
      <trkpt lat="46.87694" lon="-2.01995">
        <ele>2</ele>
        <time>2024-12-16T20:30:21Z</time>
      </trkpt>
      <trkpt lat="46.87708" lon="-2.01857">
        <ele>2</ele>
        <time>2024-12-16T20:30:38Z</time>
      </trkpt>
      <trkpt lat="46.87707" lon="-2.01828">
        <ele>2</ele>
        <time>2024-12-16T20:30:41Z</time>
      </trkpt>
      <trkpt lat="46.87696" lon="-2.01729">
        <ele>2</ele>
        <time>2024-12-16T20:30:53Z</time>
      </trkpt>
      <trkpt lat="46.87694" lon="-2.0171">
        <ele>2</ele>
        <time>2024-12-16T20:30:56Z</time>
      </trkpt>
      <trkpt lat="46.87693" lon="-2.01686">
        <ele>2</ele>
        <time>2024-12-16T20:30:59Z</time>
      </trkpt>
      <trkpt lat="46.87693" lon="-2.01676">
        <ele>2</ele>
        <time>2024-12-16T20:31:00Z</time>
      </trkpt>
      <trkpt lat="46.87694" lon="-2.01582">
        <ele>2</ele>
        <time>2024-12-16T20:31:11Z</time>
      </trkpt>
      <trkpt lat="46.87692" lon="-2.01538">
        <ele>2</ele>
        <time>2024-12-16T20:31:17Z</time>
      </trkpt>
      <trkpt lat="46.87686" lon="-2.01486">
        <ele>2</ele>
        <time>2024-12-16T20:31:23Z</time>
      </trkpt>
      <trkpt lat="46.8765" lon="-2.01303">
        <ele>2</ele>
        <time>2024-12-16T20:31:46Z</time>
      </trkpt>
      <trkpt lat="46.87647" lon="-2.0127">
        <ele>2</ele>
        <time>2024-12-16T20:31:50Z</time>
      </trkpt>
      <trkpt lat="46.87647" lon="-2.01252">
        <ele>3</ele>
        <time>2024-12-16T20:31:52Z</time>
      </trkpt>
      <trkpt lat="46.87649" lon="-2.01218">
        <ele>3</ele>
        <time>2024-12-16T20:31:57Z</time>
      </trkpt>
      <trkpt lat="46.87652" lon="-2.01181">
        <ele>3</ele>
        <time>2024-12-16T20:32:01Z</time>
      </trkpt>
      <trkpt lat="46.87658" lon="-2.01108">
        <ele>2</ele>
        <time>2024-12-16T20:32:10Z</time>
      </trkpt>
      <trkpt lat="46.87659" lon="-2.01101">
        <ele>2</ele>
        <time>2024-12-16T20:32:11Z</time>
      </trkpt>
      <trkpt lat="46.8766" lon="-2.01091">
        <ele>2</ele>
        <time>2024-12-16T20:32:12Z</time>
      </trkpt>
      <trkpt lat="46.87661" lon="-2.01079">
        <ele>2</ele>
        <time>2024-12-16T20:32:14Z</time>
      </trkpt>
      <trkpt lat="46.87662" lon="-2.01058">
        <ele>2</ele>
        <time>2024-12-16T20:32:16Z</time>
      </trkpt>
      <trkpt lat="46.87665" lon="-2.01019">
        <ele>2</ele>
        <time>2024-12-16T20:32:21Z</time>
      </trkpt>
      <trkpt lat="46.87669" lon="-2.00968">
        <ele>2</ele>
        <time>2024-12-16T20:32:27Z</time>
      </trkpt>
      <trkpt lat="46.87671" lon="-2.00949">
        <ele>3</ele>
        <time>2024-12-16T20:32:30Z</time>
      </trkpt>
      <trkpt lat="46.87669" lon="-2.00939">
        <ele>3</ele>
        <time>2024-12-16T20:32:31Z</time>
      </trkpt>
      <trkpt lat="46.87671" lon="-2.00935">
        <ele>3</ele>
        <time>2024-12-16T20:32:31Z</time>
      </trkpt>
      <trkpt lat="46.87672" lon="-2.00931">
        <ele>3</ele>
        <time>2024-12-16T20:32:32Z</time>
      </trkpt>
      <trkpt lat="46.87675" lon="-2.0093">
        <ele>3</ele>
        <time>2024-12-16T20:32:33Z</time>
      </trkpt>
      <trkpt lat="46.87672" lon="-2.00931">
        <ele>3</ele>
        <time>2024-12-16T20:32:33Z</time>
      </trkpt>
      <trkpt lat="46.8767" lon="-2.00925">
        <ele>3</ele>
        <time>2024-12-16T20:32:34Z</time>
      </trkpt>
      <trkpt lat="46.87666" lon="-2.00923">
        <ele>3</ele>
        <time>2024-12-16T20:32:35Z</time>
      </trkpt>
      <trkpt lat="46.87664" lon="-2.00924">
        <ele>3</ele>
        <time>2024-12-16T20:32:35Z</time>
      </trkpt>
      <trkpt lat="46.87661" lon="-2.00927">
        <ele>3</ele>
        <time>2024-12-16T20:32:36Z</time>
      </trkpt>
      <trkpt lat="46.8766" lon="-2.00932">
        <ele>3</ele>
        <time>2024-12-16T20:32:36Z</time>
      </trkpt>
      <trkpt lat="46.87649" lon="-2.00935">
        <ele>3</ele>
        <time>2024-12-16T20:32:38Z</time>
      </trkpt>
      <trkpt lat="46.87629" lon="-2.00944">
        <ele>3</ele>
        <time>2024-12-16T20:32:42Z</time>
      </trkpt>
      <trkpt lat="46.87636" lon="-2.00894">
        <ele>3</ele>
        <time>2024-12-16T20:32:48Z</time>
      </trkpt>
      <trkpt lat="46.87635" lon="-2.00889">
        <ele>3</ele>
        <time>2024-12-16T20:32:49Z</time>
      </trkpt>
      <trkpt lat="46.87597" lon="-2.00856">
        <ele>2</ele>
        <time>2024-12-16T20:32:57Z</time>
      </trkpt>
      <trkpt lat="46.87593" lon="-2.00851">
        <ele>2</ele>
        <time>2024-12-16T20:32:58Z</time>
      </trkpt>
      <trkpt lat="46.87591" lon="-2.00842">
        <ele>2</ele>
        <time>2024-12-16T20:32:59Z</time>
      </trkpt>
      <trkpt lat="46.87591" lon="-2.00784">
        <ele>2</ele>
        <time>2024-12-16T20:33:06Z</time>
      </trkpt>
      <trkpt lat="46.87589" lon="-2.00759">
        <ele>3</ele>
        <time>2024-12-16T20:33:09Z</time>
      </trkpt>
      <trkpt lat="46.87583" lon="-2.00748">
        <ele>3</ele>
        <time>2024-12-16T20:33:11Z</time>
      </trkpt>
      <trkpt lat="46.87577" lon="-2.00746">
        <ele>3</ele>
        <time>2024-12-16T20:33:12Z</time>
      </trkpt>
      <trkpt lat="46.87568" lon="-2.00747">
        <ele>3</ele>
        <time>2024-12-16T20:33:13Z</time>
      </trkpt>
      <trkpt lat="46.87556" lon="-2.0075">
        <ele>3</ele>
        <time>2024-12-16T20:33:16Z</time>
      </trkpt>
      <trkpt lat="46.87547" lon="-2.00747">
        <ele>3</ele>
        <time>2024-12-16T20:33:17Z</time>
      </trkpt>
      <trkpt lat="46.87544" lon="-2.00745">
        <ele>3</ele>
        <time>2024-12-16T20:33:18Z</time>
      </trkpt>
      <trkpt lat="46.87532" lon="-2.00738">
        <ele>2</ele>
        <time>2024-12-16T20:33:20Z</time>
      </trkpt>
      <trkpt lat="46.8753" lon="-2.00736">
        <ele>2</ele>
        <time>2024-12-16T20:33:20Z</time>
      </trkpt>
      <trkpt lat="46.87516" lon="-2.00729">
        <ele>2</ele>
        <time>2024-12-16T20:33:23Z</time>
      </trkpt>
      <trkpt lat="46.87506" lon="-2.00724">
        <ele>2</ele>
        <time>2024-12-16T20:33:25Z</time>
      </trkpt>
      <trkpt lat="46.875" lon="-2.00722">
        <ele>2</ele>
        <time>2024-12-16T20:33:26Z</time>
      </trkpt>
      <trkpt lat="46.87451" lon="-2.00718">
        <ele>1</ele>
        <time>2024-12-16T20:33:35Z</time>
      </trkpt>
      <trkpt lat="46.87438" lon="-2.00718">
        <ele>1</ele>
        <time>2024-12-16T20:33:37Z</time>
      </trkpt>
      <trkpt lat="46.87435" lon="-2.00714">
        <ele>1</ele>
        <time>2024-12-16T20:33:38Z</time>
      </trkpt>
      <trkpt lat="46.87456" lon="-2.00636">
        <ele>1</ele>
        <time>2024-12-16T20:33:48Z</time>
      </trkpt>
      <trkpt lat="46.87465" lon="-2.00606">
        <ele>1</ele>
        <time>2024-12-16T20:33:52Z</time>
      </trkpt>
      <trkpt lat="46.87477" lon="-2.00561">
        <ele>1</ele>
        <time>2024-12-16T20:33:58Z</time>
      </trkpt>
      <trkpt lat="46.87488" lon="-2.00528">
        <ele>2.4</ele>
        <time>2024-12-16T20:34:02Z</time>
      </trkpt>
      <trkpt lat="46.87511" lon="-2.00454">
        <ele>-1</ele>
        <time>2024-12-16T20:34:12Z</time>
      </trkpt>
      <trkpt lat="46.87513" lon="-2.00449">
        <ele>-1</ele>
        <time>2024-12-16T20:34:13Z</time>
      </trkpt>
      <trkpt lat="46.87549" lon="-2.0035">
        <ele>-1</ele>
        <time>2024-12-16T20:34:27Z</time>
      </trkpt>
      <trkpt lat="46.8756" lon="-2.00329">
        <ele>-1</ele>
        <time>2024-12-16T20:34:30Z</time>
      </trkpt>
      <trkpt lat="46.87567" lon="-2.00319">
        <ele>2</ele>
        <time>2024-12-16T20:34:32Z</time>
      </trkpt>
      <trkpt lat="46.876" lon="-2.00272">
        <ele>2.1</ele>
        <time>2024-12-16T20:34:40Z</time>
      </trkpt>
      <trkpt lat="46.87617" lon="-2.00245">
        <ele>1</ele>
        <time>2024-12-16T20:34:44Z</time>
      </trkpt>
      <trkpt lat="46.87648" lon="-2.00188">
        <ele>2</ele>
        <time>2024-12-16T20:34:53Z</time>
      </trkpt>
      <trkpt lat="46.87712" lon="-2.0008">
        <ele>5</ele>
        <time>2024-12-16T20:35:10Z</time>
      </trkpt>
      <trkpt lat="46.87736" lon="-2.00037">
        <ele>6</ele>
        <time>2024-12-16T20:35:17Z</time>
      </trkpt>
      <trkpt lat="46.87811" lon="-1.99925">
        <ele>8</ele>
        <time>2024-12-16T20:35:36Z</time>
      </trkpt>
      <trkpt lat="46.87819" lon="-1.99908">
        <ele>8</ele>
        <time>2024-12-16T20:35:39Z</time>
      </trkpt>
      <trkpt lat="46.87824" lon="-1.99889">
        <ele>8</ele>
        <time>2024-12-16T20:35:41Z</time>
      </trkpt>
      <trkpt lat="46.87826" lon="-1.99873">
        <ele>8</ele>
        <time>2024-12-16T20:35:43Z</time>
      </trkpt>
      <trkpt lat="46.87821" lon="-1.99845">
        <ele>8</ele>
        <time>2024-12-16T20:35:47Z</time>
      </trkpt>
      <trkpt lat="46.87809" lon="-1.99817">
        <ele>7</ele>
        <time>2024-12-16T20:35:51Z</time>
      </trkpt>
      <trkpt lat="46.87722" lon="-1.99678">
        <ele>5</ele>
        <time>2024-12-16T20:36:14Z</time>
      </trkpt>
      <trkpt lat="46.87693" lon="-1.99631">
        <ele>4</ele>
        <time>2024-12-16T20:36:21Z</time>
      </trkpt>
      <trkpt lat="46.87663" lon="-1.99592">
        <ele>3</ele>
        <time>2024-12-16T20:36:29Z</time>
      </trkpt>
      <trkpt lat="46.87616" lon="-1.9954">
        <ele>2</ele>
        <time>2024-12-16T20:36:39Z</time>
      </trkpt>
      <trkpt lat="46.87614" lon="-1.99538">
        <ele>2</ele>
        <time>2024-12-16T20:36:39Z</time>
      </trkpt>
      <trkpt lat="46.87602" lon="-1.99524">
        <ele>1</ele>
        <time>2024-12-16T20:36:42Z</time>
      </trkpt>
      <trkpt lat="46.87557" lon="-1.99474">
        <ele>1</ele>
        <time>2024-12-16T20:36:52Z</time>
      </trkpt>
      <trkpt lat="46.87512" lon="-1.9942">
        <ele>2</ele>
        <time>2024-12-16T20:37:03Z</time>
      </trkpt>
      <trkpt lat="46.875" lon="-1.99401">
        <ele>2</ele>
        <time>2024-12-16T20:37:06Z</time>
      </trkpt>
      <trkpt lat="46.87492" lon="-1.99388">
        <ele>2</ele>
        <time>2024-12-16T20:37:08Z</time>
      </trkpt>
      <trkpt lat="46.87406" lon="-1.99219">
        <ele>6</ele>
        <time>2024-12-16T20:37:33Z</time>
      </trkpt>
      <trkpt lat="46.87391" lon="-1.99196">
        <ele>5</ele>
        <time>2024-12-16T20:37:37Z</time>
      </trkpt>
      <trkpt lat="46.87377" lon="-1.9918">
        <ele>5</ele>
        <time>2024-12-16T20:37:41Z</time>
      </trkpt>
      <trkpt lat="46.8734" lon="-1.9915">
        <ele>5</ele>
        <time>2024-12-16T20:37:48Z</time>
      </trkpt>
      <trkpt lat="46.87318" lon="-1.99132">
        <ele>5</ele>
        <time>2024-12-16T20:37:53Z</time>
      </trkpt>
      <trkpt lat="46.873" lon="-1.99117">
        <ele>5</ele>
        <time>2024-12-16T20:37:56Z</time>
      </trkpt>
      <trkpt lat="46.87272" lon="-1.99083">
        <ele>4</ele>
        <time>2024-12-16T20:38:03Z</time>
      </trkpt>
      <trkpt lat="46.87026" lon="-1.98727">
        <ele>3</ele>
        <time>2024-12-16T20:39:04Z</time>
      </trkpt>
      <trkpt lat="46.87011" lon="-1.98701">
        <ele>3</ele>
        <time>2024-12-16T20:39:08Z</time>
      </trkpt>
      <trkpt lat="46.86984" lon="-1.98645">
        <ele>4</ele>
        <time>2024-12-16T20:39:17Z</time>
      </trkpt>
      <trkpt lat="46.86927" lon="-1.98514">
        <ele>2</ele>
        <time>2024-12-16T20:39:36Z</time>
      </trkpt>
      <trkpt lat="46.86905" lon="-1.98477">
        <ele>2</ele>
        <time>2024-12-16T20:39:42Z</time>
      </trkpt>
      <trkpt lat="46.86877" lon="-1.98436">
        <ele>1</ele>
        <time>2024-12-16T20:39:49Z</time>
      </trkpt>
      <trkpt lat="46.8687" lon="-1.98421">
        <ele>1</ele>
        <time>2024-12-16T20:39:51Z</time>
      </trkpt>
      <trkpt lat="46.86864" lon="-1.98397">
        <ele>1</ele>
        <time>2024-12-16T20:39:54Z</time>
      </trkpt>
      <trkpt lat="46.86851" lon="-1.98309">
        <ele>1</ele>
        <time>2024-12-16T20:40:05Z</time>
      </trkpt>
      <trkpt lat="46.8684" lon="-1.98253">
        <ele>1</ele>
        <time>2024-12-16T20:40:12Z</time>
      </trkpt>
      <trkpt lat="46.86828" lon="-1.98217">
        <ele>1</ele>
        <time>2024-12-16T20:40:17Z</time>
      </trkpt>
      <trkpt lat="46.86757" lon="-1.98036">
        <ele>1</ele>
        <time>2024-12-16T20:40:42Z</time>
      </trkpt>
      <trkpt lat="46.86665" lon="-1.97785">
        <ele>2</ele>
        <time>2024-12-16T20:41:17Z</time>
      </trkpt>
      <trkpt lat="46.86656" lon="-1.97754">
        <ele>2</ele>
        <time>2024-12-16T20:41:21Z</time>
      </trkpt>
      <trkpt lat="46.8665" lon="-1.97721">
        <ele>2</ele>
        <time>2024-12-16T20:41:25Z</time>
      </trkpt>
      <trkpt lat="46.86647" lon="-1.97688">
        <ele>3</ele>
        <time>2024-12-16T20:41:29Z</time>
      </trkpt>
      <trkpt lat="46.86647" lon="-1.97669">
        <ele>3</ele>
        <time>2024-12-16T20:41:32Z</time>
      </trkpt>
      <trkpt lat="46.86648" lon="-1.97659">
        <ele>3</ele>
        <time>2024-12-16T20:41:33Z</time>
      </trkpt>
      <trkpt lat="46.86661" lon="-1.97376">
        <ele>3</ele>
        <time>2024-12-16T20:42:07Z</time>
      </trkpt>
      <trkpt lat="46.86664" lon="-1.97279">
        <ele>4</ele>
        <time>2024-12-16T20:42:19Z</time>
      </trkpt>
      <trkpt lat="46.86661" lon="-1.97225">
        <ele>5</ele>
        <time>2024-12-16T20:42:26Z</time>
      </trkpt>
      <trkpt lat="46.86662" lon="-1.97225">
        <ele>5</ele>
        <time>2024-12-16T20:42:26Z</time>
      </trkpt>
      <trkpt lat="46.86638" lon="-1.97097">
        <ele>3</ele>
        <time>2024-12-16T20:42:42Z</time>
      </trkpt>
      <trkpt lat="46.86635" lon="-1.9707">
        <ele>3</ele>
        <time>2024-12-16T20:42:45Z</time>
      </trkpt>
      <trkpt lat="46.86634" lon="-1.96927">
        <ele>2</ele>
        <time>2024-12-16T20:43:03Z</time>
      </trkpt>
      <trkpt lat="46.86631" lon="-1.96892">
        <ele>2</ele>
        <time>2024-12-16T20:43:07Z</time>
      </trkpt>
      <trkpt lat="46.86629" lon="-1.96884">
        <ele>2</ele>
        <time>2024-12-16T20:43:08Z</time>
      </trkpt>
      <trkpt lat="46.86624" lon="-1.96861">
        <ele>2</ele>
        <time>2024-12-16T20:43:11Z</time>
      </trkpt>
      <trkpt lat="46.86617" lon="-1.96843">
        <ele>2</ele>
        <time>2024-12-16T20:43:13Z</time>
      </trkpt>
      <trkpt lat="46.86606" lon="-1.96823">
        <ele>2</ele>
        <time>2024-12-16T20:43:17Z</time>
      </trkpt>
      <trkpt lat="46.86585" lon="-1.96793">
        <ele>2</ele>
        <time>2024-12-16T20:43:22Z</time>
      </trkpt>
      <trkpt lat="46.86431" lon="-1.96593">
        <ele>1.8</ele>
        <time>2024-12-16T20:43:58Z</time>
      </trkpt>
      <trkpt lat="46.86124" lon="-1.96194">
        <ele>1</ele>
        <time>2024-12-16T20:45:12Z</time>
      </trkpt>
      <trkpt lat="46.86119" lon="-1.96186">
        <ele>1</ele>
        <time>2024-12-16T20:45:13Z</time>
      </trkpt>
      <trkpt lat="46.86106" lon="-1.9617">
        <ele>1</ele>
        <time>2024-12-16T20:45:16Z</time>
      </trkpt>
      <trkpt lat="46.86105" lon="-1.96169">
        <ele>1</ele>
        <time>2024-12-16T20:45:16Z</time>
      </trkpt>
      <trkpt lat="46.86093" lon="-1.96153">
        <ele>2</ele>
        <time>2024-12-16T20:45:19Z</time>
      </trkpt>
      <trkpt lat="46.86042" lon="-1.96086">
        <ele>3</ele>
        <time>2024-12-16T20:45:31Z</time>
      </trkpt>
      <trkpt lat="46.8604" lon="-1.9609">
        <ele>3</ele>
        <time>2024-12-16T20:45:32Z</time>
      </trkpt>
      <trkpt lat="46.85999" lon="-1.96036">
        <ele>4</ele>
        <time>2024-12-16T20:45:42Z</time>
      </trkpt>
      <trkpt lat="46.86" lon="-1.96034">
        <ele>4</ele>
        <time>2024-12-16T20:45:42Z</time>
      </trkpt>
      <trkpt lat="46.85995" lon="-1.9603">
        <ele>4</ele>
        <time>2024-12-16T20:45:43Z</time>
      </trkpt>
      <trkpt lat="46.85996" lon="-1.9603">
        <ele>4</ele>
        <time>2024-12-16T20:45:43Z</time>
      </trkpt>
      <trkpt lat="46.85995" lon="-1.9603">
        <ele>4</ele>
        <time>2024-12-16T20:45:43Z</time>
      </trkpt>
      <trkpt lat="46.85973" lon="-1.96017">
        <ele>3</ele>
        <time>2024-12-16T20:45:48Z</time>
      </trkpt>
      <trkpt lat="46.85966" lon="-1.96008">
        <ele>3</ele>
        <time>2024-12-16T20:45:49Z</time>
      </trkpt>
      <trkpt lat="46.85961" lon="-1.95997">
        <ele>4</ele>
        <time>2024-12-16T20:45:51Z</time>
      </trkpt>
      <trkpt lat="46.85959" lon="-1.95999">
        <ele>4</ele>
        <time>2024-12-16T20:45:51Z</time>
      </trkpt>
      <trkpt lat="46.85955" lon="-1.95978">
        <ele>3</ele>
        <time>2024-12-16T20:45:54Z</time>
      </trkpt>
      <trkpt lat="46.85956" lon="-1.95978">
        <ele>3</ele>
        <time>2024-12-16T20:45:54Z</time>
      </trkpt>
      <trkpt lat="46.85954" lon="-1.95957">
        <ele>3</ele>
        <time>2024-12-16T20:45:57Z</time>
      </trkpt>
      <trkpt lat="46.85953" lon="-1.95951">
        <ele>3</ele>
        <time>2024-12-16T20:45:57Z</time>
      </trkpt>
      <trkpt lat="46.85951" lon="-1.9593">
        <ele>3</ele>
        <time>2024-12-16T20:46:00Z</time>
      </trkpt>
      <trkpt lat="46.85945" lon="-1.95898">
        <ele>4</ele>
        <time>2024-12-16T20:46:04Z</time>
      </trkpt>
      <trkpt lat="46.85938" lon="-1.95885">
        <ele>4</ele>
        <time>2024-12-16T20:46:06Z</time>
      </trkpt>
      <trkpt lat="46.85937" lon="-1.95883">
        <ele>4</ele>
        <time>2024-12-16T20:46:06Z</time>
      </trkpt>
      <trkpt lat="46.85942" lon="-1.95874">
        <ele>4</ele>
        <time>2024-12-16T20:46:08Z</time>
      </trkpt>
      <trkpt lat="46.85948" lon="-1.95868">
        <ele>4</ele>
        <time>2024-12-16T20:46:09Z</time>
      </trkpt>
      <trkpt lat="46.85954" lon="-1.95862">
        <ele>4</ele>
        <time>2024-12-16T20:46:10Z</time>
      </trkpt>
      <trkpt lat="46.85961" lon="-1.95855">
        <ele>4</ele>
        <time>2024-12-16T20:46:12Z</time>
      </trkpt>
      <trkpt lat="46.85968" lon="-1.9584">
        <ele>4</ele>
        <time>2024-12-16T20:46:14Z</time>
      </trkpt>
      <trkpt lat="46.85978" lon="-1.95816">
        <ele>4</ele>
        <time>2024-12-16T20:46:17Z</time>
      </trkpt>
      <trkpt lat="46.85981" lon="-1.95806">
        <ele>4</ele>
        <time>2024-12-16T20:46:19Z</time>
      </trkpt>
      <trkpt lat="46.85982" lon="-1.95806">
        <ele>4</ele>
        <time>2024-12-16T20:46:19Z</time>
      </trkpt>
      <trkpt lat="46.85991" lon="-1.95788">
        <ele>4</ele>
        <time>2024-12-16T20:46:22Z</time>
      </trkpt>
      <trkpt lat="46.85994" lon="-1.95782">
        <ele>4</ele>
        <time>2024-12-16T20:46:23Z</time>
      </trkpt>
      <trkpt lat="46.85996" lon="-1.95778">
        <ele>4</ele>
        <time>2024-12-16T20:46:23Z</time>
      </trkpt>
      <trkpt lat="46.86001" lon="-1.95767">
        <ele>4</ele>
        <time>2024-12-16T20:46:25Z</time>
      </trkpt>
      <trkpt lat="46.86015" lon="-1.95748">
        <ele>4</ele>
        <time>2024-12-16T20:46:28Z</time>
      </trkpt>
      <trkpt lat="46.86019" lon="-1.95742">
        <ele>4</ele>
        <time>2024-12-16T20:46:29Z</time>
      </trkpt>
      <trkpt lat="46.86035" lon="-1.95723">
        <ele>4</ele>
        <time>2024-12-16T20:46:33Z</time>
      </trkpt>
      <trkpt lat="46.86041" lon="-1.95715">
        <ele>4</ele>
        <time>2024-12-16T20:46:34Z</time>
      </trkpt>
      <trkpt lat="46.86044" lon="-1.9571">
        <ele>4</ele>
        <time>2024-12-16T20:46:35Z</time>
      </trkpt>
      <trkpt lat="46.86052" lon="-1.95698">
        <ele>4</ele>
        <time>2024-12-16T20:46:37Z</time>
      </trkpt>
      <trkpt lat="46.86055" lon="-1.9569">
        <ele>4</ele>
        <time>2024-12-16T20:46:38Z</time>
      </trkpt>
      <trkpt lat="46.86056" lon="-1.95687">
        <ele>4</ele>
        <time>2024-12-16T20:46:39Z</time>
      </trkpt>
      <trkpt lat="46.8606" lon="-1.95656">
        <ele>4</ele>
        <time>2024-12-16T20:46:42Z</time>
      </trkpt>
      <trkpt lat="46.8606" lon="-1.95638">
        <ele>4</ele>
        <time>2024-12-16T20:46:45Z</time>
      </trkpt>
      <trkpt lat="46.86054" lon="-1.95589">
        <ele>5</ele>
        <time>2024-12-16T20:46:51Z</time>
      </trkpt>
      <trkpt lat="46.86048" lon="-1.95531">
        <ele>4</ele>
        <time>2024-12-16T20:46:58Z</time>
      </trkpt>
      <trkpt lat="46.86044" lon="-1.95445">
        <ele>4</ele>
        <time>2024-12-16T20:47:08Z</time>
      </trkpt>
      <trkpt lat="46.86043" lon="-1.95428">
        <ele>4</ele>
        <time>2024-12-16T20:47:10Z</time>
      </trkpt>
      <trkpt lat="46.86042" lon="-1.9537">
        <ele>4</ele>
        <time>2024-12-16T20:47:18Z</time>
      </trkpt>
      <trkpt lat="46.86041" lon="-1.9531">
        <ele>5</ele>
        <time>2024-12-16T20:47:25Z</time>
      </trkpt>
      <trkpt lat="46.8604" lon="-1.95294">
        <ele>5</ele>
        <time>2024-12-16T20:47:27Z</time>
      </trkpt>
      <trkpt lat="46.8604" lon="-1.9523">
        <ele>5</ele>
        <time>2024-12-16T20:47:35Z</time>
      </trkpt>
      <trkpt lat="46.86042" lon="-1.95206">
        <ele>5</ele>
        <time>2024-12-16T20:47:37Z</time>
      </trkpt>
      <trkpt lat="46.86044" lon="-1.95189">
        <ele>5</ele>
        <time>2024-12-16T20:47:40Z</time>
      </trkpt>
      <trkpt lat="46.86044" lon="-1.95177">
        <ele>4</ele>
        <time>2024-12-16T20:47:41Z</time>
      </trkpt>
      <trkpt lat="46.86047" lon="-1.95168">
        <ele>4</ele>
        <time>2024-12-16T20:47:42Z</time>
      </trkpt>
      <trkpt lat="46.86047" lon="-1.95167">
        <ele>4</ele>
        <time>2024-12-16T20:47:42Z</time>
      </trkpt>
      <trkpt lat="46.86046" lon="-1.95164">
        <ele>4</ele>
        <time>2024-12-16T20:47:43Z</time>
      </trkpt>
      <trkpt lat="46.86046" lon="-1.95158">
        <ele>4</ele>
        <time>2024-12-16T20:47:44Z</time>
      </trkpt>
      <trkpt lat="46.86048" lon="-1.95152">
        <ele>4</ele>
        <time>2024-12-16T20:47:44Z</time>
      </trkpt>
      <trkpt lat="46.86053" lon="-1.95149">
        <ele>4</ele>
        <time>2024-12-16T20:47:45Z</time>
      </trkpt>
      <trkpt lat="46.86052" lon="-1.95149">
        <ele>4</ele>
        <time>2024-12-16T20:47:45Z</time>
      </trkpt>
      <trkpt lat="46.86053" lon="-1.95149">
        <ele>4</ele>
        <time>2024-12-16T20:47:46Z</time>
      </trkpt>
      <trkpt lat="46.86057" lon="-1.95151">
        <ele>4</ele>
        <time>2024-12-16T20:47:46Z</time>
      </trkpt>
      <trkpt lat="46.8606" lon="-1.95155">
        <ele>4</ele>
        <time>2024-12-16T20:47:47Z</time>
      </trkpt>
      <trkpt lat="46.86076" lon="-1.95161">
        <ele>3</ele>
        <time>2024-12-16T20:47:50Z</time>
      </trkpt>
      <trkpt lat="46.86083" lon="-1.95164">
        <ele>3</ele>
        <time>2024-12-16T20:47:51Z</time>
      </trkpt>
      <trkpt lat="46.86094" lon="-1.95163">
        <ele>3</ele>
        <time>2024-12-16T20:47:53Z</time>
      </trkpt>
      <trkpt lat="46.86121" lon="-1.95167">
        <ele>2</ele>
        <time>2024-12-16T20:47:58Z</time>
      </trkpt>
      <trkpt lat="46.8616" lon="-1.95172">
        <ele>1</ele>
        <time>2024-12-16T20:48:05Z</time>
      </trkpt>
      <trkpt lat="46.86237" lon="-1.95162">
        <ele>1</ele>
        <time>2024-12-16T20:48:19Z</time>
      </trkpt>
      <trkpt lat="46.86243" lon="-1.95161">
        <ele>1</ele>
        <time>2024-12-16T20:48:20Z</time>
      </trkpt>
      <trkpt lat="46.86255" lon="-1.9516">
        <ele>1</ele>
        <time>2024-12-16T20:48:22Z</time>
      </trkpt>
      <trkpt lat="46.86356" lon="-1.95146">
        <ele>3</ele>
        <time>2024-12-16T20:48:40Z</time>
      </trkpt>
      <trkpt lat="46.86361" lon="-1.95144">
        <ele>3</ele>
        <time>2024-12-16T20:48:41Z</time>
      </trkpt>
      <trkpt lat="46.86381" lon="-1.95138">
        <ele>3</ele>
        <time>2024-12-16T20:48:45Z</time>
      </trkpt>
      <trkpt lat="46.86427" lon="-1.95115">
        <ele>2</ele>
        <time>2024-12-16T20:48:53Z</time>
      </trkpt>
      <trkpt lat="46.86438" lon="-1.9511">
        <ele>2</ele>
        <time>2024-12-16T20:48:55Z</time>
      </trkpt>
      <trkpt lat="46.86452" lon="-1.95103">
        <ele>3</ele>
        <time>2024-12-16T20:48:58Z</time>
      </trkpt>
      <trkpt lat="46.86488" lon="-1.95085">
        <ele>3</ele>
        <time>2024-12-16T20:49:05Z</time>
      </trkpt>
      <trkpt lat="46.86498" lon="-1.95073">
        <ele>3</ele>
        <time>2024-12-16T20:49:07Z</time>
      </trkpt>
      <trkpt lat="46.86512" lon="-1.95062">
        <ele>3</ele>
        <time>2024-12-16T20:49:10Z</time>
      </trkpt>
      <trkpt lat="46.8652" lon="-1.95058">
        <ele>3</ele>
        <time>2024-12-16T20:49:11Z</time>
      </trkpt>
      <trkpt lat="46.86524" lon="-1.9505">
        <ele>3</ele>
        <time>2024-12-16T20:49:13Z</time>
      </trkpt>
      <trkpt lat="46.86527" lon="-1.95047">
        <ele>3</ele>
        <time>2024-12-16T20:49:13Z</time>
      </trkpt>
      <trkpt lat="46.86529" lon="-1.9504">
        <ele>3</ele>
        <time>2024-12-16T20:49:14Z</time>
      </trkpt>
      <trkpt lat="46.86536" lon="-1.95018">
        <ele>3</ele>
        <time>2024-12-16T20:49:17Z</time>
      </trkpt>
      <trkpt lat="46.86542" lon="-1.95007">
        <ele>3</ele>
        <time>2024-12-16T20:49:19Z</time>
      </trkpt>
      <trkpt lat="46.86564" lon="-1.94969">
        <ele>3</ele>
        <time>2024-12-16T20:49:25Z</time>
      </trkpt>
      <trkpt lat="46.86591" lon="-1.94864">
        <ele>4</ele>
        <time>2024-12-16T20:49:39Z</time>
      </trkpt>
      <trkpt lat="46.86599" lon="-1.94833">
        <ele>4</ele>
        <time>2024-12-16T20:49:43Z</time>
      </trkpt>
      <trkpt lat="46.86615" lon="-1.94743">
        <ele>5</ele>
        <time>2024-12-16T20:49:54Z</time>
      </trkpt>
      <trkpt lat="46.86618" lon="-1.94727">
        <ele>5</ele>
        <time>2024-12-16T20:49:56Z</time>
      </trkpt>
      <trkpt lat="46.86685" lon="-1.94372">
        <ele>7</ele>
        <time>2024-12-16T20:50:41Z</time>
      </trkpt>
      <trkpt lat="46.86719" lon="-1.94189">
        <ele>7</ele>
        <time>2024-12-16T20:51:04Z</time>
      </trkpt>
      <trkpt lat="46.8674" lon="-1.94083">
        <ele>7</ele>
        <time>2024-12-16T20:51:17Z</time>
      </trkpt>
      <trkpt lat="46.8674" lon="-1.94081">
        <ele>7</ele>
        <time>2024-12-16T20:51:17Z</time>
      </trkpt>
      <trkpt lat="46.86744" lon="-1.9406">
        <ele>7</ele>
        <time>2024-12-16T20:51:20Z</time>
      </trkpt>
      <trkpt lat="46.8678" lon="-1.93872">
        <ele>9</ele>
        <time>2024-12-16T20:51:44Z</time>
      </trkpt>
      <trkpt lat="46.86791" lon="-1.93812">
        <ele>9</ele>
        <time>2024-12-16T20:51:51Z</time>
      </trkpt>
      <trkpt lat="46.86808" lon="-1.93736">
        <ele>9</ele>
        <time>2024-12-16T20:52:01Z</time>
      </trkpt>
      <trkpt lat="46.8682" lon="-1.93696">
        <ele>10</ele>
        <time>2024-12-16T20:52:06Z</time>
      </trkpt>
      <trkpt lat="46.86829" lon="-1.93668">
        <ele>10</ele>
        <time>2024-12-16T20:52:10Z</time>
      </trkpt>
      <trkpt lat="46.86848" lon="-1.93618">
        <ele>10</ele>
        <time>2024-12-16T20:52:17Z</time>
      </trkpt>
      <trkpt lat="46.86853" lon="-1.93604">
        <ele>11</ele>
        <time>2024-12-16T20:52:19Z</time>
      </trkpt>
      <trkpt lat="46.8686" lon="-1.93588">
        <ele>11</ele>
        <time>2024-12-16T20:52:21Z</time>
      </trkpt>
      <trkpt lat="46.86868" lon="-1.93568">
        <ele>11</ele>
        <time>2024-12-16T20:52:24Z</time>
      </trkpt>
      <trkpt lat="46.8689" lon="-1.93514">
        <ele>10</ele>
        <time>2024-12-16T20:52:32Z</time>
      </trkpt>
      <trkpt lat="46.86892" lon="-1.93504">
        <ele>10</ele>
        <time>2024-12-16T20:52:33Z</time>
      </trkpt>
      <trkpt lat="46.86902" lon="-1.93475">
        <ele>10</ele>
        <time>2024-12-16T20:52:37Z</time>
      </trkpt>
      <trkpt lat="46.86903" lon="-1.93472">
        <ele>10</ele>
        <time>2024-12-16T20:52:38Z</time>
      </trkpt>
      <trkpt lat="46.86908" lon="-1.93468">
        <ele>10</ele>
        <time>2024-12-16T20:52:39Z</time>
      </trkpt>
      <trkpt lat="46.86901" lon="-1.93452">
        <ele>10</ele>
        <time>2024-12-16T20:52:41Z</time>
      </trkpt>
      <trkpt lat="46.86918" lon="-1.93443">
        <ele>10</ele>
        <time>2024-12-16T20:52:44Z</time>
      </trkpt>
      <trkpt lat="46.86922" lon="-1.93441">
        <ele>10</ele>
        <time>2024-12-16T20:52:45Z</time>
      </trkpt>
      <trkpt lat="46.86932" lon="-1.93414">
        <ele>10</ele>
        <time>2024-12-16T20:52:49Z</time>
      </trkpt>
      <trkpt lat="46.86939" lon="-1.93388">
        <ele>10</ele>
        <time>2024-12-16T20:52:52Z</time>
      </trkpt>
      <trkpt lat="46.86943" lon="-1.93369">
        <ele>10</ele>
        <time>2024-12-16T20:52:54Z</time>
      </trkpt>
      <trkpt lat="46.86946" lon="-1.93338">
        <ele>10</ele>
        <time>2024-12-16T20:52:58Z</time>
      </trkpt>
      <trkpt lat="46.86949" lon="-1.93273">
        <ele>10</ele>
        <time>2024-12-16T20:53:06Z</time>
      </trkpt>
      <trkpt lat="46.8696" lon="-1.93194">
        <ele>11</ele>
        <time>2024-12-16T20:53:16Z</time>
      </trkpt>
      <trkpt lat="46.86967" lon="-1.93161">
        <ele>12</ele>
        <time>2024-12-16T20:53:20Z</time>
      </trkpt>
      <trkpt lat="46.86992" lon="-1.9307">
        <ele>11</ele>
        <time>2024-12-16T20:53:32Z</time>
      </trkpt>
      <trkpt lat="46.87008" lon="-1.93011">
        <ele>12</ele>
        <time>2024-12-16T20:53:40Z</time>
      </trkpt>
      <trkpt lat="46.87018" lon="-1.92974">
        <ele>13</ele>
        <time>2024-12-16T20:53:45Z</time>
      </trkpt>
      <trkpt lat="46.87043" lon="-1.92878">
        <ele>13</ele>
        <time>2024-12-16T20:53:57Z</time>
      </trkpt>
      <trkpt lat="46.87059" lon="-1.92806">
        <ele>12</ele>
        <time>2024-12-16T20:54:06Z</time>
      </trkpt>
      <trkpt lat="46.8707" lon="-1.92738">
        <ele>12</ele>
        <time>2024-12-16T20:54:15Z</time>
      </trkpt>
      <trkpt lat="46.87074" lon="-1.92699">
        <ele>11</ele>
        <time>2024-12-16T20:54:20Z</time>
      </trkpt>
      <trkpt lat="46.87075" lon="-1.92661">
        <ele>11</ele>
        <time>2024-12-16T20:54:24Z</time>
      </trkpt>
      <trkpt lat="46.87072" lon="-1.92544">
        <ele>11</ele>
        <time>2024-12-16T20:54:38Z</time>
      </trkpt>
      <trkpt lat="46.87072" lon="-1.92521">
        <ele>10</ele>
        <time>2024-12-16T20:54:41Z</time>
      </trkpt>
      <trkpt lat="46.87073" lon="-1.92499">
        <ele>10</ele>
        <time>2024-12-16T20:54:44Z</time>
      </trkpt>
      <trkpt lat="46.87095" lon="-1.92346">
        <ele>8</ele>
        <time>2024-12-16T20:55:03Z</time>
      </trkpt>
      <trkpt lat="46.87101" lon="-1.92299">
        <ele>8</ele>
        <time>2024-12-16T20:55:09Z</time>
      </trkpt>
      <trkpt lat="46.87102" lon="-1.92289">
        <ele>8</ele>
        <time>2024-12-16T20:55:10Z</time>
      </trkpt>
      <trkpt lat="46.87105" lon="-1.92264">
        <ele>8</ele>
        <time>2024-12-16T20:55:13Z</time>
      </trkpt>
      <trkpt lat="46.87119" lon="-1.92178">
        <ele>10</ele>
        <time>2024-12-16T20:55:24Z</time>
      </trkpt>
      <trkpt lat="46.87133" lon="-1.92111">
        <ele>10</ele>
        <time>2024-12-16T20:55:32Z</time>
      </trkpt>
      <trkpt lat="46.87205" lon="-1.9187">
        <ele>13</ele>
        <time>2024-12-16T20:56:04Z</time>
      </trkpt>
      <trkpt lat="46.87217" lon="-1.91826">
        <ele>14</ele>
        <time>2024-12-16T20:56:10Z</time>
      </trkpt>
      <trkpt lat="46.87231" lon="-1.91781">
        <ele>13</ele>
        <time>2024-12-16T20:56:16Z</time>
      </trkpt>
      <trkpt lat="46.87242" lon="-1.91755">
        <ele>13</ele>
        <time>2024-12-16T20:56:20Z</time>
      </trkpt>
      <trkpt lat="46.87337" lon="-1.9157">
        <ele>11</ele>
        <time>2024-12-16T20:56:48Z</time>
      </trkpt>
      <trkpt lat="46.87361" lon="-1.91522">
        <ele>13</ele>
        <time>2024-12-16T20:56:55Z</time>
      </trkpt>
      <trkpt lat="46.87368" lon="-1.91498">
        <ele>14</ele>
        <time>2024-12-16T20:56:58Z</time>
      </trkpt>
      <trkpt lat="46.87375" lon="-1.91469">
        <ele>13</ele>
        <time>2024-12-16T20:57:02Z</time>
      </trkpt>
      <trkpt lat="46.87377" lon="-1.91442">
        <ele>13</ele>
        <time>2024-12-16T20:57:05Z</time>
      </trkpt>
      <trkpt lat="46.87376" lon="-1.91417">
        <ele>13</ele>
        <time>2024-12-16T20:57:09Z</time>
      </trkpt>
      <trkpt lat="46.87375" lon="-1.91402">
        <ele>13</ele>
        <time>2024-12-16T20:57:10Z</time>
      </trkpt>
      <trkpt lat="46.87372" lon="-1.91372">
        <ele>12</ele>
        <time>2024-12-16T20:57:14Z</time>
      </trkpt>
      <trkpt lat="46.87371" lon="-1.91334">
        <ele>12</ele>
        <time>2024-12-16T20:57:19Z</time>
      </trkpt>
      <trkpt lat="46.87375" lon="-1.91306">
        <ele>13</ele>
        <time>2024-12-16T20:57:22Z</time>
      </trkpt>
      <trkpt lat="46.87393" lon="-1.91236">
        <ele>15</ele>
        <time>2024-12-16T20:57:31Z</time>
      </trkpt>
      <trkpt lat="46.87468" lon="-1.91033">
        <ele>15</ele>
        <time>2024-12-16T20:57:59Z</time>
      </trkpt>
      <trkpt lat="46.8751" lon="-1.90912">
        <ele>15</ele>
        <time>2024-12-16T20:58:16Z</time>
      </trkpt>
      <trkpt lat="46.87528" lon="-1.90866">
        <ele>15</ele>
        <time>2024-12-16T20:58:22Z</time>
      </trkpt>
      <trkpt lat="46.87551" lon="-1.9082">
        <ele>15</ele>
        <time>2024-12-16T20:58:29Z</time>
      </trkpt>
      <trkpt lat="46.87654" lon="-1.90612">
        <ele>15</ele>
        <time>2024-12-16T20:59:00Z</time>
      </trkpt>
      <trkpt lat="46.87709" lon="-1.9048">
        <ele>15</ele>
        <time>2024-12-16T20:59:19Z</time>
      </trkpt>
      <trkpt lat="46.8774" lon="-1.90416">
        <ele>14</ele>
        <time>2024-12-16T20:59:29Z</time>
      </trkpt>
      <trkpt lat="46.87774" lon="-1.90353">
        <ele>15</ele>
        <time>2024-12-16T20:59:39Z</time>
      </trkpt>
      <trkpt lat="46.87828" lon="-1.90254">
        <ele>15</ele>
        <time>2024-12-16T20:59:54Z</time>
      </trkpt>
      <trkpt lat="46.87902" lon="-1.90107">
        <ele>17</ele>
        <time>2024-12-16T21:00:16Z</time>
      </trkpt>
      <trkpt lat="46.87948" lon="-1.89979">
        <ele>14</ele>
        <time>2024-12-16T21:00:34Z</time>
      </trkpt>
      <trkpt lat="46.87971" lon="-1.89927">
        <ele>14</ele>
        <time>2024-12-16T21:00:41Z</time>
      </trkpt>
      <trkpt lat="46.88054" lon="-1.89767">
        <ele>15</ele>
        <time>2024-12-16T21:01:06Z</time>
      </trkpt>
      <trkpt lat="46.88058" lon="-1.89757">
        <ele>15</ele>
        <time>2024-12-16T21:01:07Z</time>
      </trkpt>
      <trkpt lat="46.88062" lon="-1.89749">
        <ele>15</ele>
        <time>2024-12-16T21:01:08Z</time>
      </trkpt>
      <trkpt lat="46.88075" lon="-1.89723">
        <ele>15</ele>
        <time>2024-12-16T21:01:12Z</time>
      </trkpt>
      <trkpt lat="46.88113" lon="-1.89659">
        <ele>15</ele>
        <time>2024-12-16T21:01:23Z</time>
      </trkpt>
      <trkpt lat="46.8818" lon="-1.89568">
        <ele>15</ele>
        <time>2024-12-16T21:01:39Z</time>
      </trkpt>
      <trkpt lat="46.88337" lon="-1.89352">
        <ele>14</ele>
        <time>2024-12-16T21:02:17Z</time>
      </trkpt>
      <trkpt lat="46.88614" lon="-1.8897">
        <ele>17</ele>
        <time>2024-12-16T21:03:25Z</time>
      </trkpt>
      <trkpt lat="46.88627" lon="-1.88955">
        <ele>18</ele>
        <time>2024-12-16T21:03:28Z</time>
      </trkpt>
      <trkpt lat="46.88634" lon="-1.88953">
        <ele>18</ele>
        <time>2024-12-16T21:03:29Z</time>
      </trkpt>
      <trkpt lat="46.88643" lon="-1.88928">
        <ele>19</ele>
        <time>2024-12-16T21:03:33Z</time>
      </trkpt>
      <trkpt lat="46.88662" lon="-1.88875">
        <ele>20</ele>
        <time>2024-12-16T21:03:40Z</time>
      </trkpt>
      <trkpt lat="46.88681" lon="-1.88819">
        <ele>21</ele>
        <time>2024-12-16T21:03:47Z</time>
      </trkpt>
      <trkpt lat="46.8872" lon="-1.88711">
        <ele>18</ele>
        <time>2024-12-16T21:04:02Z</time>
      </trkpt>
      <trkpt lat="46.88725" lon="-1.88686">
        <ele>17</ele>
        <time>2024-12-16T21:04:05Z</time>
      </trkpt>
      <trkpt lat="46.88726" lon="-1.88678">
        <ele>17</ele>
        <time>2024-12-16T21:04:06Z</time>
      </trkpt>
      <trkpt lat="46.88734" lon="-1.88667">
        <ele>17</ele>
        <time>2024-12-16T21:04:08Z</time>
      </trkpt>
      <trkpt lat="46.88744" lon="-1.88643">
        <ele>16</ele>
        <time>2024-12-16T21:04:12Z</time>
      </trkpt>
      <trkpt lat="46.88841" lon="-1.88363">
        <ele>13</ele>
        <time>2024-12-16T21:04:50Z</time>
      </trkpt>
      <trkpt lat="46.88902" lon="-1.88194">
        <ele>12</ele>
        <time>2024-12-16T21:05:13Z</time>
      </trkpt>
      <trkpt lat="46.88909" lon="-1.88174">
        <ele>11</ele>
        <time>2024-12-16T21:05:16Z</time>
      </trkpt>
      <trkpt lat="46.88995" lon="-1.87927">
        <ele>14</ele>
        <time>2024-12-16T21:05:50Z</time>
      </trkpt>
      <trkpt lat="46.89006" lon="-1.87889">
        <ele>14</ele>
        <time>2024-12-16T21:05:55Z</time>
      </trkpt>
      <trkpt lat="46.89016" lon="-1.8785">
        <ele>14</ele>
        <time>2024-12-16T21:06:00Z</time>
      </trkpt>
      <trkpt lat="46.89024" lon="-1.87796">
        <ele>14</ele>
        <time>2024-12-16T21:06:06Z</time>
      </trkpt>
      <trkpt lat="46.89026" lon="-1.87761">
        <ele>14</ele>
        <time>2024-12-16T21:06:11Z</time>
      </trkpt>
      <trkpt lat="46.89027" lon="-1.8774">
        <ele>14</ele>
        <time>2024-12-16T21:06:13Z</time>
      </trkpt>
      <trkpt lat="46.89053" lon="-1.86957">
        <ele>17</ele>
        <time>2024-12-16T21:07:49Z</time>
      </trkpt>
      <trkpt lat="46.89059" lon="-1.869">
        <ele>16</ele>
        <time>2024-12-16T21:07:56Z</time>
      </trkpt>
      <trkpt lat="46.89065" lon="-1.86853">
        <ele>16</ele>
        <time>2024-12-16T21:08:01Z</time>
      </trkpt>
      <trkpt lat="46.89077" lon="-1.86801">
        <ele>16</ele>
        <time>2024-12-16T21:08:08Z</time>
      </trkpt>
      <trkpt lat="46.89134" lon="-1.86629">
        <ele>20</ele>
        <time>2024-12-16T21:08:31Z</time>
      </trkpt>
      <trkpt lat="46.89249" lon="-1.86281">
        <ele>22</ele>
        <time>2024-12-16T21:09:18Z</time>
      </trkpt>
      <trkpt lat="46.89267" lon="-1.8622">
        <ele>24</ele>
        <time>2024-12-16T21:09:26Z</time>
      </trkpt>
      <trkpt lat="46.89279" lon="-1.86163">
        <ele>25</ele>
        <time>2024-12-16T21:09:34Z</time>
      </trkpt>
      <trkpt lat="46.89283" lon="-1.86133">
        <ele>24</ele>
        <time>2024-12-16T21:09:37Z</time>
      </trkpt>
      <trkpt lat="46.89288" lon="-1.86095">
        <ele>24</ele>
        <time>2024-12-16T21:09:42Z</time>
      </trkpt>
      <trkpt lat="46.89291" lon="-1.86048">
        <ele>23</ele>
        <time>2024-12-16T21:09:48Z</time>
      </trkpt>
      <trkpt lat="46.89293" lon="-1.86013">
        <ele>23</ele>
        <time>2024-12-16T21:09:52Z</time>
      </trkpt>
      <trkpt lat="46.89295" lon="-1.85995">
        <ele>23</ele>
        <time>2024-12-16T21:09:54Z</time>
      </trkpt>
      <trkpt lat="46.89302" lon="-1.85882">
        <ele>24</ele>
        <time>2024-12-16T21:10:08Z</time>
      </trkpt>
      <trkpt lat="46.89322" lon="-1.85582">
        <ele>25</ele>
        <time>2024-12-16T21:10:45Z</time>
      </trkpt>
      <trkpt lat="46.89327" lon="-1.85544">
        <ele>25</ele>
        <time>2024-12-16T21:10:49Z</time>
      </trkpt>
      <trkpt lat="46.89331" lon="-1.8552">
        <ele>26</ele>
        <time>2024-12-16T21:10:52Z</time>
      </trkpt>
      <trkpt lat="46.89362" lon="-1.85408">
        <ele>26</ele>
        <time>2024-12-16T21:11:07Z</time>
      </trkpt>
      <trkpt lat="46.89379" lon="-1.85344">
        <ele>25</ele>
        <time>2024-12-16T21:11:16Z</time>
      </trkpt>
      <trkpt lat="46.89394" lon="-1.85291">
        <ele>25</ele>
        <time>2024-12-16T21:11:22Z</time>
      </trkpt>
      <trkpt lat="46.8942" lon="-1.85193">
        <ele>26</ele>
        <time>2024-12-16T21:11:35Z</time>
      </trkpt>
      <trkpt lat="46.8943" lon="-1.85152">
        <ele>26</ele>
        <time>2024-12-16T21:11:41Z</time>
      </trkpt>
      <trkpt lat="46.89442" lon="-1.85101">
        <ele>27</ele>
        <time>2024-12-16T21:11:47Z</time>
      </trkpt>
      <trkpt lat="46.89448" lon="-1.85056">
        <ele>27</ele>
        <time>2024-12-16T21:11:53Z</time>
      </trkpt>
      <trkpt lat="46.89451" lon="-1.84975">
        <ele>28</ele>
        <time>2024-12-16T21:12:03Z</time>
      </trkpt>
      <trkpt lat="46.89447" lon="-1.84895">
        <ele>29</ele>
        <time>2024-12-16T21:12:12Z</time>
      </trkpt>
      <trkpt lat="46.89446" lon="-1.84875">
        <ele>29</ele>
        <time>2024-12-16T21:12:15Z</time>
      </trkpt>
      <trkpt lat="46.89442" lon="-1.8486">
        <ele>28</ele>
        <time>2024-12-16T21:12:17Z</time>
      </trkpt>
      <trkpt lat="46.89427" lon="-1.84837">
        <ele>28</ele>
        <time>2024-12-16T21:12:21Z</time>
      </trkpt>
      <trkpt lat="46.89412" lon="-1.84816">
        <ele>28</ele>
        <time>2024-12-16T21:12:24Z</time>
      </trkpt>
      <trkpt lat="46.89265" lon="-1.84626">
        <ele>26</ele>
        <time>2024-12-16T21:12:59Z</time>
      </trkpt>
      <trkpt lat="46.89252" lon="-1.84605">
        <ele>26</ele>
        <time>2024-12-16T21:13:03Z</time>
      </trkpt>
      <trkpt lat="46.89249" lon="-1.84609">
        <ele>26</ele>
        <time>2024-12-16T21:13:03Z</time>
      </trkpt>
      <trkpt lat="46.89245" lon="-1.84615">
        <ele>26</ele>
        <time>2024-12-16T21:13:04Z</time>
      </trkpt>
      <trkpt lat="46.89237" lon="-1.84618">
        <ele>26</ele>
        <time>2024-12-16T21:13:06Z</time>
      </trkpt>
      <trkpt lat="46.89232" lon="-1.84616">
        <ele>25</ele>
        <time>2024-12-16T21:13:07Z</time>
      </trkpt>
      <trkpt lat="46.89227" lon="-1.84612">
        <ele>25</ele>
        <time>2024-12-16T21:13:08Z</time>
      </trkpt>
      <trkpt lat="46.89224" lon="-1.84611">
        <ele>25</ele>
        <time>2024-12-16T21:13:08Z</time>
      </trkpt>
      <trkpt lat="46.89227" lon="-1.84612">
        <ele>25</ele>
        <time>2024-12-16T21:13:09Z</time>
      </trkpt>
      <trkpt lat="46.89223" lon="-1.84601">
        <ele>25</ele>
        <time>2024-12-16T21:13:10Z</time>
      </trkpt>
      <trkpt lat="46.89224" lon="-1.84586">
        <ele>25</ele>
        <time>2024-12-16T21:13:12Z</time>
      </trkpt>
      <trkpt lat="46.89225" lon="-1.84582">
        <ele>25</ele>
        <time>2024-12-16T21:13:13Z</time>
      </trkpt>
      <trkpt lat="46.89205" lon="-1.84562">
        <ele>24</ele>
        <time>2024-12-16T21:13:17Z</time>
      </trkpt>
      <trkpt lat="46.89173" lon="-1.8453">
        <ele>23</ele>
        <time>2024-12-16T21:13:24Z</time>
      </trkpt>
      <trkpt lat="46.89115" lon="-1.84472">
        <ele>22</ele>
        <time>2024-12-16T21:13:36Z</time>
      </trkpt>
      <trkpt lat="46.89099" lon="-1.84455">
        <ele>21</ele>
        <time>2024-12-16T21:13:40Z</time>
      </trkpt>
      <trkpt lat="46.8908" lon="-1.84434">
        <ele>21</ele>
        <time>2024-12-16T21:13:44Z</time>
      </trkpt>
      <trkpt lat="46.89064" lon="-1.84412">
        <ele>20</ele>
        <time>2024-12-16T21:13:48Z</time>
      </trkpt>
      <trkpt lat="46.89051" lon="-1.84388">
        <ele>19</ele>
        <time>2024-12-16T21:13:52Z</time>
      </trkpt>
      <trkpt lat="46.8905" lon="-1.84387">
        <ele>19</ele>
        <time>2024-12-16T21:13:52Z</time>
      </trkpt>
      <trkpt lat="46.89051" lon="-1.84388">
        <ele>19</ele>
        <time>2024-12-16T21:13:52Z</time>
      </trkpt>
      <trkpt lat="46.89072" lon="-1.8437">
        <ele>19</ele>
        <time>2024-12-16T21:13:57Z</time>
      </trkpt>
      <trkpt lat="46.89075" lon="-1.84368">
        <ele>19</ele>
        <time>2024-12-16T21:13:57Z</time>
      </trkpt>
      <trkpt lat="46.89107" lon="-1.84346">
        <ele>20</ele>
        <time>2024-12-16T21:14:03Z</time>
      </trkpt>
      <trkpt lat="46.89121" lon="-1.84337">
        <ele>20</ele>
        <time>2024-12-16T21:14:06Z</time>
      </trkpt>
      <trkpt lat="46.89181" lon="-1.84296">
        <ele>21</ele>
        <time>2024-12-16T21:14:18Z</time>
      </trkpt>
      <trkpt lat="46.89183" lon="-1.84295">
        <ele>21</ele>
        <time>2024-12-16T21:14:18Z</time>
      </trkpt>
      <trkpt lat="46.89282" lon="-1.84224">
        <ele>20</ele>
        <time>2024-12-16T21:14:38Z</time>
      </trkpt>
      <trkpt lat="46.89283" lon="-1.84173">
        <ele>20</ele>
        <time>2024-12-16T21:14:44Z</time>
      </trkpt>
      <trkpt lat="46.89288" lon="-1.84121">
        <ele>21</ele>
        <time>2024-12-16T21:14:51Z</time>
      </trkpt>
      <trkpt lat="46.8929" lon="-1.84102">
        <ele>22</ele>
        <time>2024-12-16T21:14:53Z</time>
      </trkpt>
      <trkpt lat="46.89299" lon="-1.83999">
        <ele>26</ele>
        <time>2024-12-16T21:15:05Z</time>
      </trkpt>
      <trkpt lat="46.89298" lon="-1.83932">
        <ele>25</ele>
        <time>2024-12-16T21:15:14Z</time>
      </trkpt>
      <trkpt lat="46.89298" lon="-1.83924">
        <ele>25</ele>
        <time>2024-12-16T21:15:15Z</time>
      </trkpt>
      <trkpt lat="46.89296" lon="-1.83868">
        <ele>25</ele>
        <time>2024-12-16T21:15:21Z</time>
      </trkpt>
      <trkpt lat="46.89295" lon="-1.83807">
        <ele>25</ele>
        <time>2024-12-16T21:15:29Z</time>
      </trkpt>
      <trkpt lat="46.89289" lon="-1.83715">
        <ele>26</ele>
        <time>2024-12-16T21:15:40Z</time>
      </trkpt>
      <trkpt lat="46.89285" lon="-1.83627">
        <ele>29</ele>
        <time>2024-12-16T21:15:51Z</time>
      </trkpt>
      <trkpt lat="46.89281" lon="-1.83595">
        <ele>30</ele>
        <time>2024-12-16T21:15:55Z</time>
      </trkpt>
      <trkpt lat="46.89269" lon="-1.83559">
        <ele>31</ele>
        <time>2024-12-16T21:16:00Z</time>
      </trkpt>
      <trkpt lat="46.89247" lon="-1.83522">
        <ele>32</ele>
        <time>2024-12-16T21:16:06Z</time>
      </trkpt>
      <trkpt lat="46.89229" lon="-1.83503">
        <ele>33</ele>
        <time>2024-12-16T21:16:10Z</time>
      </trkpt>
      <trkpt lat="46.8919" lon="-1.83449">
        <ele>33</ele>
        <time>2024-12-16T21:16:19Z</time>
      </trkpt>
      <trkpt lat="46.8917" lon="-1.83407">
        <ele>33</ele>
        <time>2024-12-16T21:16:25Z</time>
      </trkpt>
      <trkpt lat="46.89158" lon="-1.83374">
        <ele>33</ele>
        <time>2024-12-16T21:16:30Z</time>
      </trkpt>
      <trkpt lat="46.89156" lon="-1.83368">
        <ele>33</ele>
        <time>2024-12-16T21:16:31Z</time>
      </trkpt>
      <trkpt lat="46.8916" lon="-1.83326">
        <ele>33</ele>
        <time>2024-12-16T21:16:36Z</time>
      </trkpt>
      <trkpt lat="46.89169" lon="-1.83296">
        <ele>34</ele>
        <time>2024-12-16T21:16:40Z</time>
      </trkpt>
      <trkpt lat="46.89202" lon="-1.83182">
        <ele>34</ele>
        <time>2024-12-16T21:16:55Z</time>
      </trkpt>
      <trkpt lat="46.89205" lon="-1.83164">
        <ele>34</ele>
        <time>2024-12-16T21:16:57Z</time>
      </trkpt>
      <trkpt lat="46.89206" lon="-1.83161">
        <ele>34</ele>
        <time>2024-12-16T21:16:58Z</time>
      </trkpt>
      <trkpt lat="46.8919" lon="-1.83159">
        <ele>33</ele>
        <time>2024-12-16T21:17:00Z</time>
      </trkpt>
      <trkpt lat="46.89148" lon="-1.83154">
        <ele>33</ele>
        <time>2024-12-16T21:17:08Z</time>
      </trkpt>
      <trkpt lat="46.89136" lon="-1.83154">
        <ele>32</ele>
        <time>2024-12-16T21:17:10Z</time>
      </trkpt>
      <trkpt lat="46.89131" lon="-1.83153">
        <ele>32</ele>
        <time>2024-12-16T21:17:11Z</time>
      </trkpt>
      <trkpt lat="46.89128" lon="-1.83153">
        <ele>32</ele>
        <time>2024-12-16T21:17:11Z</time>
      </trkpt>
      <trkpt lat="46.89122" lon="-1.83154">
        <ele>32</ele>
        <time>2024-12-16T21:17:13Z</time>
      </trkpt>
      <trkpt lat="46.89121" lon="-1.83154">
        <ele>32</ele>
        <time>2024-12-16T21:17:13Z</time>
      </trkpt>
      <trkpt lat="46.8912" lon="-1.83108">
        <ele>31</ele>
        <time>2024-12-16T21:17:18Z</time>
      </trkpt>
      <trkpt lat="46.8912" lon="-1.83103">
        <ele>31</ele>
        <time>2024-12-16T21:17:19Z</time>
      </trkpt>
      <trkpt lat="46.89111" lon="-1.83097">
        <ele>31</ele>
        <time>2024-12-16T21:17:21Z</time>
      </trkpt>
      <trkpt lat="46.89106" lon="-1.83092">
        <ele>31</ele>
        <time>2024-12-16T21:17:22Z</time>
      </trkpt>
      <trkpt lat="46.891" lon="-1.83088">
        <ele>31</ele>
        <time>2024-12-16T21:17:23Z</time>
      </trkpt>
      <trkpt lat="46.89097" lon="-1.83084">
        <ele>31</ele>
        <time>2024-12-16T21:17:24Z</time>
      </trkpt>
      <trkpt lat="46.89088" lon="-1.83076">
        <ele>31</ele>
        <time>2024-12-16T21:17:26Z</time>
      </trkpt>
      <trkpt lat="46.89087" lon="-1.83075">
        <ele>31</ele>
        <time>2024-12-16T21:17:26Z</time>
      </trkpt>
      <trkpt lat="46.89059" lon="-1.83048">
        <ele>29</ele>
        <time>2024-12-16T21:17:32Z</time>
      </trkpt>
      <trkpt lat="46.89043" lon="-1.8303">
        <ele>28</ele>
        <time>2024-12-16T21:17:35Z</time>
      </trkpt>
      <trkpt lat="46.89036" lon="-1.8302">
        <ele>27</ele>
        <time>2024-12-16T21:17:37Z</time>
      </trkpt>
      <trkpt lat="46.89022" lon="-1.83002">
        <ele>26</ele>
        <time>2024-12-16T21:17:40Z</time>
      </trkpt>
      <trkpt lat="46.88993" lon="-1.82971">
        <ele>25</ele>
        <time>2024-12-16T21:17:47Z</time>
      </trkpt>
      <trkpt lat="46.88976" lon="-1.8296">
        <ele>24</ele>
        <time>2024-12-16T21:17:50Z</time>
      </trkpt>
      <trkpt lat="46.88969" lon="-1.82952">
        <ele>24</ele>
        <time>2024-12-16T21:17:52Z</time>
      </trkpt>
      <trkpt lat="46.88961" lon="-1.82928">
        <ele>24</ele>
        <time>2024-12-16T21:17:55Z</time>
      </trkpt>
      <trkpt lat="46.88953" lon="-1.8289">
        <ele>23</ele>
        <time>2024-12-16T21:18:00Z</time>
      </trkpt>
      <trkpt lat="46.88939" lon="-1.82824">
        <ele>23</ele>
        <time>2024-12-16T21:18:08Z</time>
      </trkpt>
      <trkpt lat="46.88934" lon="-1.82785">
        <ele>24</ele>
        <time>2024-12-16T21:18:13Z</time>
      </trkpt>
      <trkpt lat="46.88934" lon="-1.82773">
        <ele>25</ele>
        <time>2024-12-16T21:18:14Z</time>
      </trkpt>
      <trkpt lat="46.8893" lon="-1.82758">
        <ele>25</ele>
        <time>2024-12-16T21:18:16Z</time>
      </trkpt>
      <trkpt lat="46.8892" lon="-1.82689">
        <ele>26</ele>
        <time>2024-12-16T21:18:25Z</time>
      </trkpt>
      <trkpt lat="46.88911" lon="-1.82661">
        <ele>26</ele>
        <time>2024-12-16T21:18:29Z</time>
      </trkpt>
      <trkpt lat="46.88899" lon="-1.82626">
        <ele>26</ele>
        <time>2024-12-16T21:18:33Z</time>
      </trkpt>
      <trkpt lat="46.88878" lon="-1.82567">
        <ele>25</ele>
        <time>2024-12-16T21:18:42Z</time>
      </trkpt>
      <trkpt lat="46.88876" lon="-1.8256">
        <ele>24</ele>
        <time>2024-12-16T21:18:42Z</time>
      </trkpt>
      <trkpt lat="46.88852" lon="-1.82494">
        <ele>23</ele>
        <time>2024-12-16T21:18:52Z</time>
      </trkpt>
      <trkpt lat="46.88843" lon="-1.82475">
        <ele>23</ele>
        <time>2024-12-16T21:18:54Z</time>
      </trkpt>
      <trkpt lat="46.88823" lon="-1.82447">
        <ele>23</ele>
        <time>2024-12-16T21:18:59Z</time>
      </trkpt>
      <trkpt lat="46.88775" lon="-1.8241">
        <ele>25</ele>
        <time>2024-12-16T21:19:09Z</time>
      </trkpt>
      <trkpt lat="46.88761" lon="-1.82401">
        <ele>26</ele>
        <time>2024-12-16T21:19:12Z</time>
      </trkpt>
      <trkpt lat="46.88744" lon="-1.82394">
        <ele>26</ele>
        <time>2024-12-16T21:19:15Z</time>
      </trkpt>
      <trkpt lat="46.88682" lon="-1.82379">
        <ele>28</ele>
        <time>2024-12-16T21:19:26Z</time>
      </trkpt>
      <trkpt lat="46.88673" lon="-1.82377">
        <ele>28</ele>
        <time>2024-12-16T21:19:28Z</time>
      </trkpt>
      <trkpt lat="46.88649" lon="-1.82369">
        <ele>28</ele>
        <time>2024-12-16T21:19:32Z</time>
      </trkpt>
      <trkpt lat="46.88646" lon="-1.82367">
        <ele>28</ele>
        <time>2024-12-16T21:19:33Z</time>
      </trkpt>
      <trkpt lat="46.88625" lon="-1.82349">
        <ele>29</ele>
        <time>2024-12-16T21:19:37Z</time>
      </trkpt>
      <trkpt lat="46.88602" lon="-1.82324">
        <ele>29</ele>
        <time>2024-12-16T21:19:42Z</time>
      </trkpt>
      <trkpt lat="46.88579" lon="-1.82309">
        <ele>28</ele>
        <time>2024-12-16T21:19:46Z</time>
      </trkpt>
      <trkpt lat="46.88559" lon="-1.82309">
        <ele>29</ele>
        <time>2024-12-16T21:19:50Z</time>
      </trkpt>
      <trkpt lat="46.88548" lon="-1.82311">
        <ele>29</ele>
        <time>2024-12-16T21:19:52Z</time>
      </trkpt>
      <trkpt lat="46.88524" lon="-1.8232">
        <ele>30</ele>
        <time>2024-12-16T21:19:56Z</time>
      </trkpt>
      <trkpt lat="46.88451" lon="-1.82345">
        <ele>31</ele>
        <time>2024-12-16T21:20:10Z</time>
      </trkpt>
      <trkpt lat="46.88409" lon="-1.82357">
        <ele>32</ele>
        <time>2024-12-16T21:20:17Z</time>
      </trkpt>
      <trkpt lat="46.88226" lon="-1.82369">
        <ele>33</ele>
        <time>2024-12-16T21:20:50Z</time>
      </trkpt>
      <trkpt lat="46.88194" lon="-1.82373">
        <ele>33</ele>
        <time>2024-12-16T21:20:56Z</time>
      </trkpt>
      <trkpt lat="46.88058" lon="-1.82401">
        <ele>34</ele>
        <time>2024-12-16T21:21:20Z</time>
      </trkpt>
      <trkpt lat="46.87924" lon="-1.82446">
        <ele>34</ele>
        <time>2024-12-16T21:21:45Z</time>
      </trkpt>
      <trkpt lat="46.87917" lon="-1.82448">
        <ele>34</ele>
        <time>2024-12-16T21:21:46Z</time>
      </trkpt>
      <trkpt lat="46.87792" lon="-1.82492">
        <ele>33</ele>
        <time>2024-12-16T21:22:09Z</time>
      </trkpt>
      <trkpt lat="46.87697" lon="-1.82524">
        <ele>33</ele>
        <time>2024-12-16T21:22:26Z</time>
      </trkpt>
      <trkpt lat="46.87689" lon="-1.82525">
        <ele>34</ele>
        <time>2024-12-16T21:22:27Z</time>
      </trkpt>
      <trkpt lat="46.87677" lon="-1.82527">
        <ele>34</ele>
        <time>2024-12-16T21:22:30Z</time>
      </trkpt>
      <trkpt lat="46.87668" lon="-1.82524">
        <ele>34</ele>
        <time>2024-12-16T21:22:31Z</time>
      </trkpt>
      <trkpt lat="46.87652" lon="-1.82514">
        <ele>34</ele>
        <time>2024-12-16T21:22:34Z</time>
      </trkpt>
      <trkpt lat="46.87544" lon="-1.82415">
        <ele>36</ele>
        <time>2024-12-16T21:22:57Z</time>
      </trkpt>
      <trkpt lat="46.87504" lon="-1.82375">
        <ele>36</ele>
        <time>2024-12-16T21:23:06Z</time>
      </trkpt>
      <trkpt lat="46.8738" lon="-1.82238">
        <ele>33</ele>
        <time>2024-12-16T21:23:33Z</time>
      </trkpt>
      <trkpt lat="46.87292" lon="-1.82141">
        <ele>32</ele>
        <time>2024-12-16T21:23:53Z</time>
      </trkpt>
      <trkpt lat="46.87277" lon="-1.82122">
        <ele>32</ele>
        <time>2024-12-16T21:23:56Z</time>
      </trkpt>
      <trkpt lat="46.87256" lon="-1.82088">
        <ele>31</ele>
        <time>2024-12-16T21:24:02Z</time>
      </trkpt>
      <trkpt lat="46.87227" lon="-1.82028">
        <ele>31</ele>
        <time>2024-12-16T21:24:11Z</time>
      </trkpt>
      <trkpt lat="46.87196" lon="-1.81981">
        <ele>31</ele>
        <time>2024-12-16T21:24:19Z</time>
      </trkpt>
      <trkpt lat="46.87171" lon="-1.81955">
        <ele>32</ele>
        <time>2024-12-16T21:24:24Z</time>
      </trkpt>
      <trkpt lat="46.87137" lon="-1.81931">
        <ele>32</ele>
        <time>2024-12-16T21:24:31Z</time>
      </trkpt>
      <trkpt lat="46.87079" lon="-1.81896">
        <ele>34</ele>
        <time>2024-12-16T21:24:42Z</time>
      </trkpt>
      <trkpt lat="46.87058" lon="-1.81886">
        <ele>34</ele>
        <time>2024-12-16T21:24:46Z</time>
      </trkpt>
      <trkpt lat="46.87031" lon="-1.81879">
        <ele>34</ele>
        <time>2024-12-16T21:24:51Z</time>
      </trkpt>
      <trkpt lat="46.86986" lon="-1.81882">
        <ele>33</ele>
        <time>2024-12-16T21:24:59Z</time>
      </trkpt>
      <trkpt lat="46.86966" lon="-1.81877">
        <ele>32</ele>
        <time>2024-12-16T21:25:03Z</time>
      </trkpt>
      <trkpt lat="46.86949" lon="-1.81863">
        <ele>32</ele>
        <time>2024-12-16T21:25:06Z</time>
      </trkpt>
      <trkpt lat="46.86935" lon="-1.81844">
        <ele>32</ele>
        <time>2024-12-16T21:25:10Z</time>
      </trkpt>
      <trkpt lat="46.86908" lon="-1.81795">
        <ele>34</ele>
        <time>2024-12-16T21:25:17Z</time>
      </trkpt>
      <trkpt lat="46.8688" lon="-1.81762">
        <ele>35</ele>
        <time>2024-12-16T21:25:24Z</time>
      </trkpt>
      <trkpt lat="46.86837" lon="-1.81722">
        <ele>37</ele>
        <time>2024-12-16T21:25:33Z</time>
      </trkpt>
      <trkpt lat="46.8665" lon="-1.81557">
        <ele>42</ele>
        <time>2024-12-16T21:26:12Z</time>
      </trkpt>
      <trkpt lat="46.86423" lon="-1.81356">
        <ele>43</ele>
        <time>2024-12-16T21:26:59Z</time>
      </trkpt>
      <trkpt lat="46.8637" lon="-1.81309">
        <ele>43</ele>
        <time>2024-12-16T21:27:10Z</time>
      </trkpt>
      <trkpt lat="46.86302" lon="-1.81247">
        <ele>44</ele>
        <time>2024-12-16T21:27:24Z</time>
      </trkpt>
      <trkpt lat="46.86232" lon="-1.81172">
        <ele>44</ele>
        <time>2024-12-16T21:27:39Z</time>
      </trkpt>
      <trkpt lat="46.86169" lon="-1.81104">
        <ele>46</ele>
        <time>2024-12-16T21:27:53Z</time>
      </trkpt>
      <trkpt lat="46.86115" lon="-1.81045">
        <ele>48</ele>
        <time>2024-12-16T21:28:05Z</time>
      </trkpt>
      <trkpt lat="46.85987" lon="-1.80907">
        <ele>48</ele>
        <time>2024-12-16T21:28:34Z</time>
      </trkpt>
      <trkpt lat="46.85958" lon="-1.80877">
        <ele>49</ele>
        <time>2024-12-16T21:28:40Z</time>
      </trkpt>
      <trkpt lat="46.85945" lon="-1.80864">
        <ele>49</ele>
        <time>2024-12-16T21:28:43Z</time>
      </trkpt>
      <trkpt lat="46.85927" lon="-1.80848">
        <ele>50</ele>
        <time>2024-12-16T21:28:47Z</time>
      </trkpt>
      <trkpt lat="46.85889" lon="-1.80814">
        <ele>50</ele>
        <time>2024-12-16T21:28:55Z</time>
      </trkpt>
      <trkpt lat="46.85885" lon="-1.8081">
        <ele>50</ele>
        <time>2024-12-16T21:28:55Z</time>
      </trkpt>
      <trkpt lat="46.85853" lon="-1.80783">
        <ele>50</ele>
        <time>2024-12-16T21:29:02Z</time>
      </trkpt>
      <trkpt lat="46.8583" lon="-1.80763">
        <ele>51</ele>
        <time>2024-12-16T21:29:07Z</time>
      </trkpt>
      <trkpt lat="46.85742" lon="-1.80686">
        <ele>51</ele>
        <time>2024-12-16T21:29:25Z</time>
      </trkpt>
      <trkpt lat="46.85708" lon="-1.80658">
        <ele>51</ele>
        <time>2024-12-16T21:29:32Z</time>
      </trkpt>
      <trkpt lat="46.85601" lon="-1.80565">
        <ele>51</ele>
        <time>2024-12-16T21:29:54Z</time>
      </trkpt>
      <trkpt lat="46.85575" lon="-1.80541">
        <ele>51</ele>
        <time>2024-12-16T21:30:00Z</time>
      </trkpt>
      <trkpt lat="46.85519" lon="-1.80479">
        <ele>52</ele>
        <time>2024-12-16T21:30:12Z</time>
      </trkpt>
      <trkpt lat="46.85476" lon="-1.80427">
        <ele>52</ele>
        <time>2024-12-16T21:30:22Z</time>
      </trkpt>
      <trkpt lat="46.85413" lon="-1.80351">
        <ele>51</ele>
        <time>2024-12-16T21:30:36Z</time>
      </trkpt>
      <trkpt lat="46.85359" lon="-1.80286">
        <ele>52</ele>
        <time>2024-12-16T21:30:49Z</time>
      </trkpt>
      <trkpt lat="46.85334" lon="-1.80258">
        <ele>52</ele>
        <time>2024-12-16T21:30:55Z</time>
      </trkpt>
      <trkpt lat="46.85264" lon="-1.80191">
        <ele>53</ele>
        <time>2024-12-16T21:31:09Z</time>
      </trkpt>
      <trkpt lat="46.85226" lon="-1.80151">
        <ele>54</ele>
        <time>2024-12-16T21:31:18Z</time>
      </trkpt>
      <trkpt lat="46.85219" lon="-1.80143">
        <ele>54</ele>
        <time>2024-12-16T21:31:19Z</time>
      </trkpt>
      <trkpt lat="46.85085" lon="-1.79974">
        <ele>56</ele>
        <time>2024-12-16T21:31:51Z</time>
      </trkpt>
      <trkpt lat="46.84928" lon="-1.79775">
        <ele>55</ele>
        <time>2024-12-16T21:32:28Z</time>
      </trkpt>
      <trkpt lat="46.84857" lon="-1.79676">
        <ele>54</ele>
        <time>2024-12-16T21:32:45Z</time>
      </trkpt>
      <trkpt lat="46.84836" lon="-1.79648">
        <ele>54</ele>
        <time>2024-12-16T21:32:50Z</time>
      </trkpt>
      <trkpt lat="46.84661" lon="-1.79384">
        <ele>56</ele>
        <time>2024-12-16T21:33:35Z</time>
      </trkpt>
      <trkpt lat="46.84623" lon="-1.79336">
        <ele>56</ele>
        <time>2024-12-16T21:33:44Z</time>
      </trkpt>
      <trkpt lat="46.84562" lon="-1.79268">
        <ele>55</ele>
        <time>2024-12-16T21:33:58Z</time>
      </trkpt>
      <trkpt lat="46.84549" lon="-1.79253">
        <ele>55</ele>
        <time>2024-12-16T21:34:01Z</time>
      </trkpt>
      <trkpt lat="46.84526" lon="-1.79226">
        <ele>55</ele>
        <time>2024-12-16T21:34:06Z</time>
      </trkpt>
      <trkpt lat="46.84495" lon="-1.79192">
        <ele>55</ele>
        <time>2024-12-16T21:34:13Z</time>
      </trkpt>
      <trkpt lat="46.8443" lon="-1.79119">
        <ele>56</ele>
        <time>2024-12-16T21:34:27Z</time>
      </trkpt>
      <trkpt lat="46.84414" lon="-1.79096">
        <ele>57</ele>
        <time>2024-12-16T21:34:31Z</time>
      </trkpt>
      <trkpt lat="46.844" lon="-1.79072">
        <ele>57</ele>
        <time>2024-12-16T21:34:35Z</time>
      </trkpt>
      <trkpt lat="46.84366" lon="-1.79002">
        <ele>57</ele>
        <time>2024-12-16T21:34:46Z</time>
      </trkpt>
      <trkpt lat="46.8425" lon="-1.78751">
        <ele>58</ele>
        <time>2024-12-16T21:35:22Z</time>
      </trkpt>
      <trkpt lat="46.84153" lon="-1.78538">
        <ele>57</ele>
        <time>2024-12-16T21:35:54Z</time>
      </trkpt>
      <trkpt lat="46.84134" lon="-1.78499">
        <ele>57</ele>
        <time>2024-12-16T21:35:59Z</time>
      </trkpt>
      <trkpt lat="46.84108" lon="-1.78453">
        <ele>58</ele>
        <time>2024-12-16T21:36:07Z</time>
      </trkpt>
      <trkpt lat="46.84048" lon="-1.78361">
        <ele>59</ele>
        <time>2024-12-16T21:36:22Z</time>
      </trkpt>
      <trkpt lat="46.84033" lon="-1.78337">
        <ele>59</ele>
        <time>2024-12-16T21:36:26Z</time>
      </trkpt>
      <trkpt lat="46.83956" lon="-1.78223">
        <ele>61</ele>
        <time>2024-12-16T21:36:46Z</time>
      </trkpt>
      <trkpt lat="46.83937" lon="-1.78193">
        <ele>61</ele>
        <time>2024-12-16T21:36:51Z</time>
      </trkpt>
      <trkpt lat="46.83923" lon="-1.78168">
        <ele>61</ele>
        <time>2024-12-16T21:36:54Z</time>
      </trkpt>
      <trkpt lat="46.839" lon="-1.78116">
        <ele>61</ele>
        <time>2024-12-16T21:37:02Z</time>
      </trkpt>
      <trkpt lat="46.83896" lon="-1.78106">
        <ele>61</ele>
        <time>2024-12-16T21:37:03Z</time>
      </trkpt>
      <trkpt lat="46.83775" lon="-1.77795">
        <ele>60</ele>
        <time>2024-12-16T21:37:47Z</time>
      </trkpt>
      <trkpt lat="46.83722" lon="-1.7766">
        <ele>60</ele>
        <time>2024-12-16T21:38:06Z</time>
      </trkpt>
      <trkpt lat="46.83704" lon="-1.77617">
        <ele>60</ele>
        <time>2024-12-16T21:38:12Z</time>
      </trkpt>
      <trkpt lat="46.83703" lon="-1.77614">
        <ele>60</ele>
        <time>2024-12-16T21:38:12Z</time>
      </trkpt>
      <trkpt lat="46.83534" lon="-1.77282">
        <ele>60</ele>
        <time>2024-12-16T21:39:03Z</time>
      </trkpt>
      <trkpt lat="46.83318" lon="-1.76909">
        <ele>61</ele>
        <time>2024-12-16T21:40:02Z</time>
      </trkpt>
      <trkpt lat="46.83307" lon="-1.76892">
        <ele>61</ele>
        <time>2024-12-16T21:40:05Z</time>
      </trkpt>
      <trkpt lat="46.83301" lon="-1.76882">
        <ele>61</ele>
        <time>2024-12-16T21:40:07Z</time>
      </trkpt>
      <trkpt lat="46.83286" lon="-1.7686">
        <ele>61</ele>
        <time>2024-12-16T21:40:11Z</time>
      </trkpt>
      <trkpt lat="46.83273" lon="-1.76843">
        <ele>61</ele>
        <time>2024-12-16T21:40:14Z</time>
      </trkpt>
      <trkpt lat="46.83214" lon="-1.7678">
        <ele>61</ele>
        <time>2024-12-16T21:40:27Z</time>
      </trkpt>
      <trkpt lat="46.8311" lon="-1.76668">
        <ele>61</ele>
        <time>2024-12-16T21:40:50Z</time>
      </trkpt>
      <trkpt lat="46.83089" lon="-1.76638">
        <ele>61</ele>
        <time>2024-12-16T21:40:55Z</time>
      </trkpt>
      <trkpt lat="46.83088" lon="-1.76637">
        <ele>61</ele>
        <time>2024-12-16T21:40:55Z</time>
      </trkpt>
      <trkpt lat="46.83081" lon="-1.76621">
        <ele>61</ele>
        <time>2024-12-16T21:40:57Z</time>
      </trkpt>
      <trkpt lat="46.83014" lon="-1.76489">
        <ele>58</ele>
        <time>2024-12-16T21:41:17Z</time>
      </trkpt>
      <trkpt lat="46.83012" lon="-1.76486">
        <ele>58</ele>
        <time>2024-12-16T21:41:18Z</time>
      </trkpt>
      <trkpt lat="46.83009" lon="-1.76489">
        <ele>58</ele>
        <time>2024-12-16T21:41:19Z</time>
      </trkpt>
      <trkpt lat="46.83004" lon="-1.76478">
        <ele>59</ele>
        <time>2024-12-16T21:41:20Z</time>
      </trkpt>
      <trkpt lat="46.82978" lon="-1.76427">
        <ele>60</ele>
        <time>2024-12-16T21:41:28Z</time>
      </trkpt>
      <trkpt lat="46.82935" lon="-1.76341">
        <ele>61</ele>
        <time>2024-12-16T21:41:41Z</time>
      </trkpt>
      <trkpt lat="46.82915" lon="-1.76315">
        <ele>61</ele>
        <time>2024-12-16T21:41:46Z</time>
      </trkpt>
      <trkpt lat="46.82906" lon="-1.76307">
        <ele>60</ele>
        <time>2024-12-16T21:41:48Z</time>
      </trkpt>
      <trkpt lat="46.82908" lon="-1.763">
        <ele>60</ele>
        <time>2024-12-16T21:41:48Z</time>
      </trkpt>
      <trkpt lat="46.82905" lon="-1.76297">
        <ele>60</ele>
        <time>2024-12-16T21:41:49Z</time>
      </trkpt>
      <trkpt lat="46.82908" lon="-1.763">
        <ele>60</ele>
        <time>2024-12-16T21:41:50Z</time>
      </trkpt>
      <trkpt lat="46.82906" lon="-1.76307">
        <ele>60</ele>
        <time>2024-12-16T21:41:51Z</time>
      </trkpt>
      <trkpt lat="46.82895" lon="-1.76301">
        <ele>60</ele>
        <time>2024-12-16T21:41:53Z</time>
      </trkpt>
      <trkpt lat="46.82887" lon="-1.76297">
        <ele>59</ele>
        <time>2024-12-16T21:41:54Z</time>
      </trkpt>
      <trkpt lat="46.82895" lon="-1.76301">
        <ele>60</ele>
        <time>2024-12-16T21:41:56Z</time>
      </trkpt>
      <trkpt lat="46.82906" lon="-1.76307">
        <ele>60</ele>
        <time>2024-12-16T21:41:58Z</time>
      </trkpt>
      <trkpt lat="46.82908" lon="-1.763">
        <ele>60</ele>
        <time>2024-12-16T21:41:59Z</time>
      </trkpt>
      <trkpt lat="46.82905" lon="-1.76297">
        <ele>60</ele>
        <time>2024-12-16T21:41:59Z</time>
      </trkpt>
      <trkpt lat="46.829" lon="-1.76289">
        <ele>60</ele>
        <time>2024-12-16T21:42:01Z</time>
      </trkpt>
      <trkpt lat="46.82897" lon="-1.76291">
        <ele>60</ele>
        <time>2024-12-16T21:42:01Z</time>
      </trkpt>
      <trkpt lat="46.8289" lon="-1.76289">
        <ele>59</ele>
        <time>2024-12-16T21:42:03Z</time>
      </trkpt>
      <trkpt lat="46.82888" lon="-1.7628">
        <ele>59</ele>
        <time>2024-12-16T21:42:04Z</time>
      </trkpt>
      <trkpt lat="46.8288" lon="-1.76278">
        <ele>59</ele>
        <time>2024-12-16T21:42:05Z</time>
      </trkpt>
      <trkpt lat="46.82851" lon="-1.76267">
        <ele>58</ele>
        <time>2024-12-16T21:42:11Z</time>
      </trkpt>
      <trkpt lat="46.82761" lon="-1.76222">
        <ele>56</ele>
        <time>2024-12-16T21:42:27Z</time>
      </trkpt>
      <trkpt lat="46.82751" lon="-1.76217">
        <ele>56</ele>
        <time>2024-12-16T21:42:29Z</time>
      </trkpt>
      <trkpt lat="46.82735" lon="-1.76209">
        <ele>56</ele>
        <time>2024-12-16T21:42:32Z</time>
      </trkpt>
      <trkpt lat="46.82719" lon="-1.76202">
        <ele>56</ele>
        <time>2024-12-16T21:42:35Z</time>
      </trkpt>
      <trkpt lat="46.82698" lon="-1.76189">
        <ele>56</ele>
        <time>2024-12-16T21:42:39Z</time>
      </trkpt>
      <trkpt lat="46.82692" lon="-1.76186">
        <ele>56</ele>
        <time>2024-12-16T21:42:41Z</time>
      </trkpt>
      <trkpt lat="46.82686" lon="-1.76182">
        <ele>56</ele>
        <time>2024-12-16T21:42:42Z</time>
      </trkpt>
      <trkpt lat="46.82671" lon="-1.76178">
        <ele>56</ele>
        <time>2024-12-16T21:42:44Z</time>
      </trkpt>
      <trkpt lat="46.82661" lon="-1.76173">
        <ele>56</ele>
        <time>2024-12-16T21:42:46Z</time>
      </trkpt>
      <trkpt lat="46.82644" lon="-1.76166">
        <ele>55</ele>
        <time>2024-12-16T21:42:49Z</time>
      </trkpt>
      <trkpt lat="46.82585" lon="-1.7615">
        <ele>54</ele>
        <time>2024-12-16T21:43:00Z</time>
      </trkpt>
      <trkpt lat="46.82559" lon="-1.76143">
        <ele>55</ele>
        <time>2024-12-16T21:43:05Z</time>
      </trkpt>
      <trkpt lat="46.82555" lon="-1.76142">
        <ele>55</ele>
        <time>2024-12-16T21:43:06Z</time>
      </trkpt>
      <trkpt lat="46.8253" lon="-1.76143">
        <ele>55</ele>
        <time>2024-12-16T21:43:10Z</time>
      </trkpt>
      <trkpt lat="46.82507" lon="-1.76149">
        <ele>56</ele>
        <time>2024-12-16T21:43:14Z</time>
      </trkpt>
      <trkpt lat="46.82502" lon="-1.76152">
        <ele>57</ele>
        <time>2024-12-16T21:43:15Z</time>
      </trkpt>
      <trkpt lat="46.8249" lon="-1.76158">
        <ele>57</ele>
        <time>2024-12-16T21:43:17Z</time>
      </trkpt>
      <trkpt lat="46.82489" lon="-1.76159">
        <ele>57</ele>
        <time>2024-12-16T21:43:18Z</time>
      </trkpt>
      <trkpt lat="46.82458" lon="-1.76176">
        <ele>57</ele>
        <time>2024-12-16T21:43:23Z</time>
      </trkpt>
      <trkpt lat="46.82442" lon="-1.76188">
        <ele>57</ele>
        <time>2024-12-16T21:43:27Z</time>
      </trkpt>
      <trkpt lat="46.82408" lon="-1.76212">
        <ele>57</ele>
        <time>2024-12-16T21:43:33Z</time>
      </trkpt>
      <trkpt lat="46.82402" lon="-1.76216">
        <ele>57</ele>
        <time>2024-12-16T21:43:35Z</time>
      </trkpt>
      <trkpt lat="46.82373" lon="-1.76237">
        <ele>56</ele>
        <time>2024-12-16T21:43:40Z</time>
      </trkpt>
      <trkpt lat="46.82343" lon="-1.76255">
        <ele>56</ele>
        <time>2024-12-16T21:43:46Z</time>
      </trkpt>
      <trkpt lat="46.82321" lon="-1.7628">
        <ele>54</ele>
        <time>2024-12-16T21:43:51Z</time>
      </trkpt>
      <trkpt lat="46.82294" lon="-1.76309">
        <ele>52</ele>
        <time>2024-12-16T21:43:57Z</time>
      </trkpt>
      <trkpt lat="46.82279" lon="-1.76322">
        <ele>51</ele>
        <time>2024-12-16T21:44:00Z</time>
      </trkpt>
      <trkpt lat="46.82222" lon="-1.76351">
        <ele>49</ele>
        <time>2024-12-16T21:44:11Z</time>
      </trkpt>
      <trkpt lat="46.82175" lon="-1.76369">
        <ele>49</ele>
        <time>2024-12-16T21:44:19Z</time>
      </trkpt>
      <trkpt lat="46.8214" lon="-1.76383">
        <ele>46</ele>
        <time>2024-12-16T21:44:26Z</time>
      </trkpt>
      <trkpt lat="46.82128" lon="-1.76389">
        <ele>46</ele>
        <time>2024-12-16T21:44:28Z</time>
      </trkpt>
      <trkpt lat="46.82093" lon="-1.76416">
        <ele>43</ele>
        <time>2024-12-16T21:44:35Z</time>
      </trkpt>
      <trkpt lat="46.82091" lon="-1.76417">
        <ele>43</ele>
        <time>2024-12-16T21:44:36Z</time>
      </trkpt>
      <trkpt lat="46.82051" lon="-1.76469">
        <ele>41</ele>
        <time>2024-12-16T21:44:45Z</time>
      </trkpt>
      <trkpt lat="46.8204" lon="-1.76483">
        <ele>41</ele>
        <time>2024-12-16T21:44:48Z</time>
      </trkpt>
      <trkpt lat="46.82023" lon="-1.76504">
        <ele>40</ele>
        <time>2024-12-16T21:44:52Z</time>
      </trkpt>
      <trkpt lat="46.81992" lon="-1.76538">
        <ele>39</ele>
        <time>2024-12-16T21:44:59Z</time>
      </trkpt>
      <trkpt lat="46.81981" lon="-1.76551">
        <ele>38</ele>
        <time>2024-12-16T21:45:01Z</time>
      </trkpt>
      <trkpt lat="46.81975" lon="-1.7656">
        <ele>38</ele>
        <time>2024-12-16T21:45:03Z</time>
      </trkpt>
      <trkpt lat="46.81973" lon="-1.76573">
        <ele>38</ele>
        <time>2024-12-16T21:45:04Z</time>
      </trkpt>
      <trkpt lat="46.81966" lon="-1.76583">
        <ele>38</ele>
        <time>2024-12-16T21:45:06Z</time>
      </trkpt>
      <trkpt lat="46.81963" lon="-1.76585">
        <ele>38</ele>
        <time>2024-12-16T21:45:07Z</time>
      </trkpt>
      <trkpt lat="46.81959" lon="-1.76586">
        <ele>38</ele>
        <time>2024-12-16T21:45:07Z</time>
      </trkpt>
      <trkpt lat="46.81949" lon="-1.76583">
        <ele>37</ele>
        <time>2024-12-16T21:45:09Z</time>
      </trkpt>
      <trkpt lat="46.81942" lon="-1.7659">
        <ele>37</ele>
        <time>2024-12-16T21:45:11Z</time>
      </trkpt>
      <trkpt lat="46.81949" lon="-1.76583">
        <ele>37</ele>
        <time>2024-12-16T21:45:12Z</time>
      </trkpt>
      <trkpt lat="46.81943" lon="-1.76572">
        <ele>37</ele>
        <time>2024-12-16T21:45:14Z</time>
      </trkpt>
      <trkpt lat="46.81927" lon="-1.76581">
        <ele>36</ele>
        <time>2024-12-16T21:45:17Z</time>
      </trkpt>
      <trkpt lat="46.81912" lon="-1.76589">
        <ele>36</ele>
        <time>2024-12-16T21:45:20Z</time>
      </trkpt>
      <trkpt lat="46.8188" lon="-1.76604">
        <ele>36</ele>
        <time>2024-12-16T21:45:26Z</time>
      </trkpt>
      <trkpt lat="46.81857" lon="-1.76615">
        <ele>36</ele>
        <time>2024-12-16T21:45:30Z</time>
      </trkpt>
      <trkpt lat="46.81831" lon="-1.76633">
        <ele>35</ele>
        <time>2024-12-16T21:45:35Z</time>
      </trkpt>
      <trkpt lat="46.81799" lon="-1.7666">
        <ele>35</ele>
        <time>2024-12-16T21:45:42Z</time>
      </trkpt>
      <trkpt lat="46.81786" lon="-1.76673">
        <ele>34</ele>
        <time>2024-12-16T21:45:45Z</time>
      </trkpt>
      <trkpt lat="46.8169" lon="-1.76783">
        <ele>31</ele>
        <time>2024-12-16T21:46:06Z</time>
      </trkpt>
      <trkpt lat="46.81689" lon="-1.76785">
        <ele>31</ele>
        <time>2024-12-16T21:46:07Z</time>
      </trkpt>
      <trkpt lat="46.81582" lon="-1.76908">
        <ele>27</ele>
        <time>2024-12-16T21:46:31Z</time>
      </trkpt>
      <trkpt lat="46.81572" lon="-1.7692">
        <ele>27</ele>
        <time>2024-12-16T21:46:33Z</time>
      </trkpt>
      <trkpt lat="46.81437" lon="-1.77073">
        <ele>25</ele>
        <time>2024-12-16T21:47:03Z</time>
      </trkpt>
      <trkpt lat="46.81307" lon="-1.77222">
        <ele>22</ele>
        <time>2024-12-16T21:47:33Z</time>
      </trkpt>
      <trkpt lat="46.8127" lon="-1.77263">
        <ele>23</ele>
        <time>2024-12-16T21:47:41Z</time>
      </trkpt>
      <trkpt lat="46.81243" lon="-1.7729">
        <ele>22</ele>
        <time>2024-12-16T21:47:47Z</time>
      </trkpt>
      <trkpt lat="46.81201" lon="-1.77323">
        <ele>22</ele>
        <time>2024-12-16T21:47:55Z</time>
      </trkpt>
      <trkpt lat="46.81174" lon="-1.77341">
        <ele>21</ele>
        <time>2024-12-16T21:48:01Z</time>
      </trkpt>
      <trkpt lat="46.81154" lon="-1.77354">
        <ele>21</ele>
        <time>2024-12-16T21:48:05Z</time>
      </trkpt>
      <trkpt lat="46.81135" lon="-1.77367">
        <ele>21</ele>
        <time>2024-12-16T21:48:08Z</time>
      </trkpt>
      <trkpt lat="46.81003" lon="-1.77456">
        <ele>25</ele>
        <time>2024-12-16T21:48:34Z</time>
      </trkpt>
      <trkpt lat="46.8098" lon="-1.77472">
        <ele>25</ele>
        <time>2024-12-16T21:48:39Z</time>
      </trkpt>
      <trkpt lat="46.80976" lon="-1.77475">
        <ele>25</ele>
        <time>2024-12-16T21:48:40Z</time>
      </trkpt>
      <trkpt lat="46.80821" lon="-1.77579">
        <ele>25</ele>
        <time>2024-12-16T21:49:10Z</time>
      </trkpt>
      <trkpt lat="46.80798" lon="-1.77597">
        <ele>25</ele>
        <time>2024-12-16T21:49:15Z</time>
      </trkpt>
      <trkpt lat="46.80782" lon="-1.7761">
        <ele>25</ele>
        <time>2024-12-16T21:49:18Z</time>
      </trkpt>
      <trkpt lat="46.80763" lon="-1.77629">
        <ele>25</ele>
        <time>2024-12-16T21:49:22Z</time>
      </trkpt>
      <trkpt lat="46.80655" lon="-1.77776">
        <ele>23</ele>
        <time>2024-12-16T21:49:48Z</time>
      </trkpt>
      <trkpt lat="46.80622" lon="-1.7782">
        <ele>21</ele>
        <time>2024-12-16T21:49:56Z</time>
      </trkpt>
      <trkpt lat="46.80561" lon="-1.77902">
        <ele>20</ele>
        <time>2024-12-16T21:50:11Z</time>
      </trkpt>
      <trkpt lat="46.80555" lon="-1.77911">
        <ele>20</ele>
        <time>2024-12-16T21:50:12Z</time>
      </trkpt>
      <trkpt lat="46.80504" lon="-1.77981">
        <ele>23</ele>
        <time>2024-12-16T21:50:25Z</time>
      </trkpt>
      <trkpt lat="46.80477" lon="-1.78018">
        <ele>24</ele>
        <time>2024-12-16T21:50:31Z</time>
      </trkpt>
      <trkpt lat="46.80462" lon="-1.78039">
        <ele>24</ele>
        <time>2024-12-16T21:50:35Z</time>
      </trkpt>
      <trkpt lat="46.8043" lon="-1.78083">
        <ele>25</ele>
        <time>2024-12-16T21:50:43Z</time>
      </trkpt>
      <trkpt lat="46.80412" lon="-1.78113">
        <ele>25</ele>
        <time>2024-12-16T21:50:48Z</time>
      </trkpt>
      <trkpt lat="46.80395" lon="-1.78146">
        <ele>25</ele>
        <time>2024-12-16T21:50:53Z</time>
      </trkpt>
      <trkpt lat="46.80352" lon="-1.78244">
        <ele>27</ele>
        <time>2024-12-16T21:51:07Z</time>
      </trkpt>
      <trkpt lat="46.80252" lon="-1.78478">
        <ele>26</ele>
        <time>2024-12-16T21:51:41Z</time>
      </trkpt>
      <trkpt lat="46.80254" lon="-1.7848">
        <ele>26</ele>
        <time>2024-12-16T21:51:41Z</time>
      </trkpt>
      <trkpt lat="46.80252" lon="-1.78478">
        <ele>26</ele>
        <time>2024-12-16T21:51:41Z</time>
      </trkpt>
      <trkpt lat="46.8022" lon="-1.78554">
        <ele>24</ele>
        <time>2024-12-16T21:51:52Z</time>
      </trkpt>
      <trkpt lat="46.80143" lon="-1.78734">
        <ele>25</ele>
        <time>2024-12-16T21:52:18Z</time>
      </trkpt>
      <trkpt lat="46.80033" lon="-1.78993">
        <ele>26</ele>
        <time>2024-12-16T21:52:55Z</time>
      </trkpt>
      <trkpt lat="46.80025" lon="-1.79012">
        <ele>26</ele>
        <time>2024-12-16T21:52:58Z</time>
      </trkpt>
      <trkpt lat="46.7999" lon="-1.79096">
        <ele>26</ele>
        <time>2024-12-16T21:53:10Z</time>
      </trkpt>
      <trkpt lat="46.7996" lon="-1.79169">
        <ele>27</ele>
        <time>2024-12-16T21:53:20Z</time>
      </trkpt>
      <trkpt lat="46.79955" lon="-1.79181">
        <ele>27</ele>
        <time>2024-12-16T21:53:22Z</time>
      </trkpt>
      <trkpt lat="46.79927" lon="-1.79258">
        <ele>27</ele>
        <time>2024-12-16T21:53:33Z</time>
      </trkpt>
      <trkpt lat="46.79895" lon="-1.79354">
        <ele>27</ele>
        <time>2024-12-16T21:53:46Z</time>
      </trkpt>
      <trkpt lat="46.79881" lon="-1.79393">
        <ele>27</ele>
        <time>2024-12-16T21:53:51Z</time>
      </trkpt>
      <trkpt lat="46.7983" lon="-1.79537">
        <ele>25</ele>
        <time>2024-12-16T21:54:11Z</time>
      </trkpt>
      <trkpt lat="46.79816" lon="-1.79569">
        <ele>24</ele>
        <time>2024-12-16T21:54:15Z</time>
      </trkpt>
      <trkpt lat="46.79796" lon="-1.79607">
        <ele>24</ele>
        <time>2024-12-16T21:54:21Z</time>
      </trkpt>
      <trkpt lat="46.79697" lon="-1.79794">
        <ele>28</ele>
        <time>2024-12-16T21:54:50Z</time>
      </trkpt>
      <trkpt lat="46.79639" lon="-1.79903">
        <ele>29</ele>
        <time>2024-12-16T21:55:07Z</time>
      </trkpt>
      <trkpt lat="46.79571" lon="-1.80033">
        <ele>27</ele>
        <time>2024-12-16T21:55:27Z</time>
      </trkpt>
      <trkpt lat="46.79475" lon="-1.80215">
        <ele>26</ele>
        <time>2024-12-16T21:55:55Z</time>
      </trkpt>
      <trkpt lat="46.79451" lon="-1.80258">
        <ele>25</ele>
        <time>2024-12-16T21:56:02Z</time>
      </trkpt>
      <trkpt lat="46.79443" lon="-1.80268">
        <ele>25</ele>
        <time>2024-12-16T21:56:03Z</time>
      </trkpt>
      <trkpt lat="46.79415" lon="-1.80304">
        <ele>25</ele>
        <time>2024-12-16T21:56:10Z</time>
      </trkpt>
      <trkpt lat="46.79227" lon="-1.80502">
        <ele>28</ele>
        <time>2024-12-16T21:56:51Z</time>
      </trkpt>
      <trkpt lat="46.79198" lon="-1.80533">
        <ele>28</ele>
        <time>2024-12-16T21:56:58Z</time>
      </trkpt>
      <trkpt lat="46.79123" lon="-1.80611">
        <ele>31</ele>
        <time>2024-12-16T21:57:14Z</time>
      </trkpt>
      <trkpt lat="46.79008" lon="-1.80731">
        <ele>30</ele>
        <time>2024-12-16T21:57:39Z</time>
      </trkpt>
      <trkpt lat="46.78904" lon="-1.80841">
        <ele>30</ele>
        <time>2024-12-16T21:58:02Z</time>
      </trkpt>
      <trkpt lat="46.78856" lon="-1.80892">
        <ele>30</ele>
        <time>2024-12-16T21:58:13Z</time>
      </trkpt>
      <trkpt lat="46.78852" lon="-1.80896">
        <ele>30</ele>
        <time>2024-12-16T21:58:13Z</time>
      </trkpt>
      <trkpt lat="46.78727" lon="-1.81026">
        <ele>29</ele>
        <time>2024-12-16T21:58:41Z</time>
      </trkpt>
      <trkpt lat="46.78623" lon="-1.81135">
        <ele>29</ele>
        <time>2024-12-16T21:59:04Z</time>
      </trkpt>
      <trkpt lat="46.78572" lon="-1.81189">
        <ele>29</ele>
        <time>2024-12-16T21:59:15Z</time>
      </trkpt>
      <trkpt lat="46.78526" lon="-1.81238">
        <ele>28</ele>
        <time>2024-12-16T21:59:25Z</time>
      </trkpt>
      <trkpt lat="46.78495" lon="-1.8127">
        <ele>27</ele>
        <time>2024-12-16T21:59:32Z</time>
      </trkpt>
      <trkpt lat="46.78456" lon="-1.8131">
        <ele>29</ele>
        <time>2024-12-16T21:59:40Z</time>
      </trkpt>
      <trkpt lat="46.78308" lon="-1.81465">
        <ele>30</ele>
        <time>2024-12-16T22:00:13Z</time>
      </trkpt>
      <trkpt lat="46.78149" lon="-1.81632">
        <ele>31</ele>
        <time>2024-12-16T22:00:47Z</time>
      </trkpt>
      <trkpt lat="46.77958" lon="-1.81831">
        <ele>32</ele>
        <time>2024-12-16T22:01:29Z</time>
      </trkpt>
      <trkpt lat="46.777" lon="-1.82097">
        <ele>32</ele>
        <time>2024-12-16T22:02:25Z</time>
      </trkpt>
      <trkpt lat="46.77488" lon="-1.8232">
        <ele>28</ele>
        <time>2024-12-16T22:03:12Z</time>
      </trkpt>
      <trkpt lat="46.77473" lon="-1.82335">
        <ele>28</ele>
        <time>2024-12-16T22:03:15Z</time>
      </trkpt>
      <trkpt lat="46.77256" lon="-1.82561">
        <ele>27</ele>
        <time>2024-12-16T22:04:02Z</time>
      </trkpt>
      <trkpt lat="46.77228" lon="-1.8259">
        <ele>27</ele>
        <time>2024-12-16T22:04:09Z</time>
      </trkpt>
      <trkpt lat="46.77145" lon="-1.82678">
        <ele>26</ele>
        <time>2024-12-16T22:04:27Z</time>
      </trkpt>
      <trkpt lat="46.77139" lon="-1.82684">
        <ele>27</ele>
        <time>2024-12-16T22:04:28Z</time>
      </trkpt>
      <trkpt lat="46.77096" lon="-1.82728">
        <ele>28</ele>
        <time>2024-12-16T22:04:37Z</time>
      </trkpt>
      <trkpt lat="46.77091" lon="-1.82733">
        <ele>28</ele>
        <time>2024-12-16T22:04:39Z</time>
      </trkpt>
      <trkpt lat="46.77042" lon="-1.82783">
        <ele>27</ele>
        <time>2024-12-16T22:04:49Z</time>
      </trkpt>
      <trkpt lat="46.77021" lon="-1.82805">
        <ele>27</ele>
        <time>2024-12-16T22:04:54Z</time>
      </trkpt>
      <trkpt lat="46.76965" lon="-1.82863">
        <ele>26</ele>
        <time>2024-12-16T22:05:06Z</time>
      </trkpt>
      <trkpt lat="46.76938" lon="-1.82894">
        <ele>25</ele>
        <time>2024-12-16T22:05:12Z</time>
      </trkpt>
      <trkpt lat="46.76905" lon="-1.82941">
        <ele>23</ele>
        <time>2024-12-16T22:05:20Z</time>
      </trkpt>
      <trkpt lat="46.76877" lon="-1.82986">
        <ele>20</ele>
        <time>2024-12-16T22:05:28Z</time>
      </trkpt>
      <trkpt lat="46.76862" lon="-1.83014">
        <ele>19</ele>
        <time>2024-12-16T22:05:32Z</time>
      </trkpt>
      <trkpt lat="46.76833" lon="-1.83073">
        <ele>17</ele>
        <time>2024-12-16T22:05:41Z</time>
      </trkpt>
      <trkpt lat="46.76814" lon="-1.83126">
        <ele>18</ele>
        <time>2024-12-16T22:05:48Z</time>
      </trkpt>
      <trkpt lat="46.76797" lon="-1.8318">
        <ele>19</ele>
        <time>2024-12-16T22:05:55Z</time>
      </trkpt>
      <trkpt lat="46.76796" lon="-1.83181">
        <ele>19</ele>
        <time>2024-12-16T22:05:56Z</time>
      </trkpt>
      <trkpt lat="46.76781" lon="-1.83226">
        <ele>19</ele>
        <time>2024-12-16T22:06:02Z</time>
      </trkpt>
      <trkpt lat="46.76751" lon="-1.83294">
        <ele>19</ele>
        <time>2024-12-16T22:06:12Z</time>
      </trkpt>
      <trkpt lat="46.76729" lon="-1.83333">
        <ele>19</ele>
        <time>2024-12-16T22:06:18Z</time>
      </trkpt>
      <trkpt lat="46.76707" lon="-1.83368">
        <ele>19</ele>
        <time>2024-12-16T22:06:24Z</time>
      </trkpt>
      <trkpt lat="46.76696" lon="-1.83382">
        <ele>19</ele>
        <time>2024-12-16T22:06:26Z</time>
      </trkpt>
      <trkpt lat="46.76684" lon="-1.83399">
        <ele>19</ele>
        <time>2024-12-16T22:06:29Z</time>
      </trkpt>
      <trkpt lat="46.76639" lon="-1.8345">
        <ele>18</ele>
        <time>2024-12-16T22:06:39Z</time>
      </trkpt>
      <trkpt lat="46.76595" lon="-1.83485">
        <ele>17</ele>
        <time>2024-12-16T22:06:48Z</time>
      </trkpt>
      <trkpt lat="46.76565" lon="-1.83504">
        <ele>17</ele>
        <time>2024-12-16T22:06:54Z</time>
      </trkpt>
      <trkpt lat="46.76522" lon="-1.8353">
        <ele>16</ele>
        <time>2024-12-16T22:07:02Z</time>
      </trkpt>
      <trkpt lat="46.76449" lon="-1.83571">
        <ele>17</ele>
        <time>2024-12-16T22:07:16Z</time>
      </trkpt>
      <trkpt lat="46.76447" lon="-1.83572">
        <ele>17</ele>
        <time>2024-12-16T22:07:17Z</time>
      </trkpt>
      <trkpt lat="46.7637" lon="-1.83618">
        <ele>18</ele>
        <time>2024-12-16T22:07:31Z</time>
      </trkpt>
      <trkpt lat="46.76348" lon="-1.83634">
        <ele>19</ele>
        <time>2024-12-16T22:07:36Z</time>
      </trkpt>
      <trkpt lat="46.76338" lon="-1.83641">
        <ele>19</ele>
        <time>2024-12-16T22:07:38Z</time>
      </trkpt>
      <trkpt lat="46.76336" lon="-1.83643">
        <ele>19</ele>
        <time>2024-12-16T22:07:38Z</time>
      </trkpt>
      <trkpt lat="46.7632" lon="-1.83655">
        <ele>19</ele>
        <time>2024-12-16T22:07:41Z</time>
      </trkpt>
      <trkpt lat="46.76283" lon="-1.83669">
        <ele>19</ele>
        <time>2024-12-16T22:07:48Z</time>
      </trkpt>
      <trkpt lat="46.76263" lon="-1.83671">
        <ele>19</ele>
        <time>2024-12-16T22:07:52Z</time>
      </trkpt>
      <trkpt lat="46.76253" lon="-1.83671">
        <ele>19</ele>
        <time>2024-12-16T22:07:54Z</time>
      </trkpt>
      <trkpt lat="46.76243" lon="-1.8367">
        <ele>19</ele>
        <time>2024-12-16T22:07:55Z</time>
      </trkpt>
      <trkpt lat="46.76243" lon="-1.83643">
        <ele>18</ele>
        <time>2024-12-16T22:07:59Z</time>
      </trkpt>
      <trkpt lat="46.76237" lon="-1.83612">
        <ele>18</ele>
        <time>2024-12-16T22:08:03Z</time>
      </trkpt>
      <trkpt lat="46.76236" lon="-1.83608">
        <ele>18</ele>
        <time>2024-12-16T22:08:03Z</time>
      </trkpt>
      <trkpt lat="46.76236" lon="-1.83603">
        <ele>18</ele>
        <time>2024-12-16T22:08:04Z</time>
      </trkpt>
      <trkpt lat="46.7621" lon="-1.83506">
        <ele>17</ele>
        <time>2024-12-16T22:08:16Z</time>
      </trkpt>
      <trkpt lat="46.76199" lon="-1.83465">
        <ele>17</ele>
        <time>2024-12-16T22:08:22Z</time>
      </trkpt>
      <trkpt lat="46.76191" lon="-1.83433">
        <ele>17</ele>
        <time>2024-12-16T22:08:26Z</time>
      </trkpt>
      <trkpt lat="46.76188" lon="-1.8342">
        <ele>17</ele>
        <time>2024-12-16T22:08:28Z</time>
      </trkpt>
      <trkpt lat="46.76165" lon="-1.83333">
        <ele>16</ele>
        <time>2024-12-16T22:08:39Z</time>
      </trkpt>
      <trkpt lat="46.76161" lon="-1.83318">
        <ele>16</ele>
        <time>2024-12-16T22:08:41Z</time>
      </trkpt>
      <trkpt lat="46.76093" lon="-1.83056">
        <ele>12</ele>
        <time>2024-12-16T22:09:15Z</time>
      </trkpt>
      <trkpt lat="46.76065" lon="-1.82945">
        <ele>8</ele>
        <time>2024-12-16T22:09:29Z</time>
      </trkpt>
      <trkpt lat="46.76062" lon="-1.82933">
        <ele>8</ele>
        <time>2024-12-16T22:09:31Z</time>
      </trkpt>
      <trkpt lat="46.76023" lon="-1.82782">
        <ele>8</ele>
        <time>2024-12-16T22:09:51Z</time>
      </trkpt>
      <trkpt lat="46.76008" lon="-1.82723">
        <ele>8</ele>
        <time>2024-12-16T22:09:58Z</time>
      </trkpt>
      <trkpt lat="46.76006" lon="-1.82714">
        <ele>8</ele>
        <time>2024-12-16T22:09:59Z</time>
      </trkpt>
      <trkpt lat="46.75974" lon="-1.82595">
        <ele>8</ele>
        <time>2024-12-16T22:10:15Z</time>
      </trkpt>
      <trkpt lat="46.75921" lon="-1.82386">
        <ele>7</ele>
        <time>2024-12-16T22:10:42Z</time>
      </trkpt>
      <trkpt lat="46.75905" lon="-1.8232">
        <ele>7</ele>
        <time>2024-12-16T22:10:51Z</time>
      </trkpt>
      <trkpt lat="46.75902" lon="-1.8231">
        <ele>7</ele>
        <time>2024-12-16T22:10:52Z</time>
      </trkpt>
      <trkpt lat="46.75892" lon="-1.82274">
        <ele>7</ele>
        <time>2024-12-16T22:10:57Z</time>
      </trkpt>
      <trkpt lat="46.75882" lon="-1.82248">
        <ele>7</ele>
        <time>2024-12-16T22:11:00Z</time>
      </trkpt>
      <trkpt lat="46.75862" lon="-1.82201">
        <ele>7</ele>
        <time>2024-12-16T22:11:07Z</time>
      </trkpt>
      <trkpt lat="46.75838" lon="-1.82159">
        <ele>7</ele>
        <time>2024-12-16T22:11:14Z</time>
      </trkpt>
      <trkpt lat="46.75823" lon="-1.82138">
        <ele>7</ele>
        <time>2024-12-16T22:11:18Z</time>
      </trkpt>
      <trkpt lat="46.75809" lon="-1.8212">
        <ele>7</ele>
        <time>2024-12-16T22:11:21Z</time>
      </trkpt>
      <trkpt lat="46.75787" lon="-1.82097">
        <ele>7</ele>
        <time>2024-12-16T22:11:26Z</time>
      </trkpt>
      <trkpt lat="46.757" lon="-1.82024">
        <ele>6</ele>
        <time>2024-12-16T22:11:44Z</time>
      </trkpt>
      <trkpt lat="46.75691" lon="-1.82015">
        <ele>6</ele>
        <time>2024-12-16T22:11:46Z</time>
      </trkpt>
      <trkpt lat="46.75683" lon="-1.82009">
        <ele>6</ele>
        <time>2024-12-16T22:11:47Z</time>
      </trkpt>
      <trkpt lat="46.75581" lon="-1.81925">
        <ele>7</ele>
        <time>2024-12-16T22:12:08Z</time>
      </trkpt>
      <trkpt lat="46.75576" lon="-1.8192">
        <ele>7</ele>
        <time>2024-12-16T22:12:09Z</time>
      </trkpt>
      <trkpt lat="46.75528" lon="-1.81874">
        <ele>8</ele>
        <time>2024-12-16T22:12:19Z</time>
      </trkpt>
      <trkpt lat="46.75494" lon="-1.81831">
        <ele>9</ele>
        <time>2024-12-16T22:12:27Z</time>
      </trkpt>
      <trkpt lat="46.75478" lon="-1.81808">
        <ele>9</ele>
        <time>2024-12-16T22:12:31Z</time>
      </trkpt>
      <trkpt lat="46.75451" lon="-1.81763">
        <ele>9</ele>
        <time>2024-12-16T22:12:39Z</time>
      </trkpt>
      <trkpt lat="46.75428" lon="-1.81712">
        <ele>9</ele>
        <time>2024-12-16T22:12:46Z</time>
      </trkpt>
      <trkpt lat="46.754" lon="-1.81649">
        <ele>9</ele>
        <time>2024-12-16T22:12:55Z</time>
      </trkpt>
      <trkpt lat="46.75329" lon="-1.81488">
        <ele>9</ele>
        <time>2024-12-16T22:13:18Z</time>
      </trkpt>
      <trkpt lat="46.75262" lon="-1.81335">
        <ele>10</ele>
        <time>2024-12-16T22:13:41Z</time>
      </trkpt>
      <trkpt lat="46.75244" lon="-1.81295">
        <ele>10</ele>
        <time>2024-12-16T22:13:46Z</time>
      </trkpt>
      <trkpt lat="46.75231" lon="-1.8126">
        <ele>10</ele>
        <time>2024-12-16T22:13:51Z</time>
      </trkpt>
      <trkpt lat="46.75212" lon="-1.81196">
        <ele>10</ele>
        <time>2024-12-16T22:14:00Z</time>
      </trkpt>
      <trkpt lat="46.7519" lon="-1.81074">
        <ele>10</ele>
        <time>2024-12-16T22:14:15Z</time>
      </trkpt>
      <trkpt lat="46.75168" lon="-1.80939">
        <ele>11</ele>
        <time>2024-12-16T22:14:32Z</time>
      </trkpt>
      <trkpt lat="46.75156" lon="-1.80863">
        <ele>11</ele>
        <time>2024-12-16T22:14:42Z</time>
      </trkpt>
      <trkpt lat="46.75103" lon="-1.8053">
        <ele>14</ele>
        <time>2024-12-16T22:15:23Z</time>
      </trkpt>
      <trkpt lat="46.75096" lon="-1.80489">
        <ele>15</ele>
        <time>2024-12-16T22:15:28Z</time>
      </trkpt>
      <trkpt lat="46.75037" lon="-1.80123">
        <ele>12</ele>
        <time>2024-12-16T22:16:14Z</time>
      </trkpt>
      <trkpt lat="46.75029" lon="-1.80075">
        <ele>12</ele>
        <time>2024-12-16T22:16:20Z</time>
      </trkpt>
      <trkpt lat="46.75017" lon="-1.79999">
        <ele>13</ele>
        <time>2024-12-16T22:16:30Z</time>
      </trkpt>
      <trkpt lat="46.75017" lon="-1.79995">
        <ele>13</ele>
        <time>2024-12-16T22:16:30Z</time>
      </trkpt>
      <trkpt lat="46.75056" lon="-1.79971">
        <ele>14</ele>
        <time>2024-12-16T22:16:38Z</time>
      </trkpt>
      <trkpt lat="46.75092" lon="-1.79954">
        <ele>14</ele>
        <time>2024-12-16T22:16:45Z</time>
      </trkpt>
      <trkpt lat="46.7511" lon="-1.79943">
        <ele>14</ele>
        <time>2024-12-16T22:16:48Z</time>
      </trkpt>
      <trkpt lat="46.7512" lon="-1.79928">
        <ele>15</ele>
        <time>2024-12-16T22:16:51Z</time>
      </trkpt>
      <trkpt lat="46.75134" lon="-1.79893">
        <ele>15</ele>
        <time>2024-12-16T22:16:56Z</time>
      </trkpt>
      <trkpt lat="46.75151" lon="-1.79839">
        <ele>15</ele>
        <time>2024-12-16T22:17:03Z</time>
      </trkpt>
      <trkpt lat="46.75158" lon="-1.79815">
        <ele>16</ele>
        <time>2024-12-16T22:17:06Z</time>
      </trkpt>
      <trkpt lat="46.75172" lon="-1.79759">
        <ele>17</ele>
        <time>2024-12-16T22:17:13Z</time>
      </trkpt>
      <trkpt lat="46.75184" lon="-1.79726">
        <ele>17</ele>
        <time>2024-12-16T22:17:18Z</time>
      </trkpt>
      <trkpt lat="46.75221" lon="-1.7966">
        <ele>17</ele>
        <time>2024-12-16T22:17:28Z</time>
      </trkpt>
      <trkpt lat="46.75237" lon="-1.79611">
        <ele>16</ele>
        <time>2024-12-16T22:17:35Z</time>
      </trkpt>
      <trkpt lat="46.75245" lon="-1.79576">
        <ele>15</ele>
        <time>2024-12-16T22:17:39Z</time>
      </trkpt>
      <trkpt lat="46.75253" lon="-1.79526">
        <ele>14</ele>
        <time>2024-12-16T22:17:46Z</time>
      </trkpt>
      <trkpt lat="46.7526" lon="-1.79448">
        <ele>13</ele>
        <time>2024-12-16T22:17:55Z</time>
      </trkpt>
      <trkpt lat="46.75269" lon="-1.79406">
        <ele>12</ele>
        <time>2024-12-16T22:18:00Z</time>
      </trkpt>
      <trkpt lat="46.7528" lon="-1.79372">
        <ele>12</ele>
        <time>2024-12-16T22:18:05Z</time>
      </trkpt>
      <trkpt lat="46.75292" lon="-1.79342">
        <ele>12</ele>
        <time>2024-12-16T22:18:09Z</time>
      </trkpt>
      <trkpt lat="46.75309" lon="-1.7931">
        <ele>11</ele>
        <time>2024-12-16T22:18:14Z</time>
      </trkpt>
      <trkpt lat="46.75333" lon="-1.79277">
        <ele>11</ele>
        <time>2024-12-16T22:18:20Z</time>
      </trkpt>
      <trkpt lat="46.75341" lon="-1.79261">
        <ele>12</ele>
        <time>2024-12-16T22:18:23Z</time>
      </trkpt>
      <trkpt lat="46.75363" lon="-1.79185">
        <ele>15</ele>
        <time>2024-12-16T22:18:33Z</time>
      </trkpt>
      <trkpt lat="46.75364" lon="-1.79176">
        <ele>15</ele>
        <time>2024-12-16T22:18:34Z</time>
      </trkpt>
      <trkpt lat="46.75364" lon="-1.79169">
        <ele>15</ele>
        <time>2024-12-16T22:18:35Z</time>
      </trkpt>
      <trkpt lat="46.75368" lon="-1.79167">
        <ele>15</ele>
        <time>2024-12-16T22:18:35Z</time>
      </trkpt>
      <trkpt lat="46.75386" lon="-1.79145">
        <ele>15</ele>
        <time>2024-12-16T22:18:39Z</time>
      </trkpt>
      <trkpt lat="46.75457" lon="-1.79039">
        <ele>16</ele>
        <time>2024-12-16T22:18:58Z</time>
      </trkpt>
      <trkpt lat="46.75489" lon="-1.79002">
        <ele>18</ele>
        <time>2024-12-16T22:19:05Z</time>
      </trkpt>
      <trkpt lat="46.75502" lon="-1.78979">
        <ele>18</ele>
        <time>2024-12-16T22:19:08Z</time>
      </trkpt>
      <trkpt lat="46.75521" lon="-1.78946">
        <ele>18</ele>
        <time>2024-12-16T22:19:14Z</time>
      </trkpt>
      <trkpt lat="46.75574" lon="-1.78865">
        <ele>21</ele>
        <time>2024-12-16T22:19:27Z</time>
      </trkpt>
      <trkpt lat="46.75605" lon="-1.78836">
        <ele>22</ele>
        <time>2024-12-16T22:19:34Z</time>
      </trkpt>
      <trkpt lat="46.75807" lon="-1.78682">
        <ele>35</ele>
        <time>2024-12-16T22:20:14Z</time>
      </trkpt>
    </trkseg>
  </trk>
</gpx>